<?xml version="1.0" encoding="UTF-8" standalone="no" ?>
<gpx xmlns="http://www.topografix.com/GPX/1/1" xmlns:xsi="http://www.w3.org/2001/XMLSchema-instance" xsi:schemaLocation="http://www.topografix.com/GPX/1/1 http://www.topografix.com/GPX/1/1/gpx.xsd" version="1.1" creator="VisuGPX - https://www.visugpx.com">
  <metadata>
    <name>Chemin du garde</name>
    <desc><![CDATA[Itinéraire du chemin du garde]]></desc>
  </metadata>
  <wpt lat="45.58807" lon="5.91587">
    <ele>367.5</ele>
    <name><![CDATA[Start]]></name>
  </wpt>
  <wpt lat="45.58997" lon="5.92068">
    <ele>373.9</ele>
    <name><![CDATA[Stop]]></name>
  </wpt>
  <trk>
    <name><![CDATA[Chemin du garde_1]]></name>
    <trkseg>
      <trkpt lat="45.58807" lon="5.91587">
        <ele>367.5</ele>
        <time>2012-04-01T09:19:52Z</time>
      </trkpt>
      <trkpt lat="45.58817" lon="5.91581">
        <ele>368</ele>
        <time>2012-04-01T09:19:52Z</time>
      </trkpt>
      <trkpt lat="45.58828" lon="5.91578">
        <ele>368.8</ele>
        <time>2012-04-01T09:19:57Z</time>
      </trkpt>
      <trkpt lat="45.58834" lon="5.91578">
        <ele>369.2</ele>
        <time>2012-04-01T09:20:02Z</time>
      </trkpt>
      <trkpt lat="45.5884" lon="5.91581">
        <ele>369.1</ele>
        <time>2012-04-01T09:20:07Z</time>
      </trkpt>
      <trkpt lat="45.58847" lon="5.91594">
        <ele>369.2</ele>
        <time>2012-04-01T09:20:12Z</time>
      </trkpt>
      <trkpt lat="45.58854" lon="5.91616">
        <ele>369.4</ele>
        <time>2012-04-01T09:20:17Z</time>
      </trkpt>
      <trkpt lat="45.58861" lon="5.91641">
        <ele>369.9</ele>
        <time>2012-04-01T09:20:22Z</time>
      </trkpt>
      <trkpt lat="45.58868" lon="5.91667">
        <ele>369</ele>
        <time>2012-04-01T09:20:27Z</time>
      </trkpt>
      <trkpt lat="45.58873" lon="5.91688">
        <ele>369</ele>
        <time>2012-04-01T09:20:32Z</time>
      </trkpt>
      <trkpt lat="45.5888" lon="5.91717">
        <ele>369</ele>
        <time>2012-04-01T09:20:37Z</time>
      </trkpt>
      <trkpt lat="45.58889" lon="5.91751">
        <ele>368</ele>
        <time>2012-04-01T09:20:42Z</time>
      </trkpt>
      <trkpt lat="45.58898" lon="5.91781">
        <ele>368</ele>
        <time>2012-04-01T09:20:47Z</time>
      </trkpt>
      <trkpt lat="45.58905" lon="5.91808">
        <ele>368.5</ele>
        <time>2012-04-01T09:20:52Z</time>
      </trkpt>
      <trkpt lat="45.58912" lon="5.91836">
        <ele>368</ele>
        <time>2012-04-01T09:20:57Z</time>
      </trkpt>
      <trkpt lat="45.58919" lon="5.91857">
        <ele>368</ele>
        <time>2012-04-01T09:21:02Z</time>
      </trkpt>
      <trkpt lat="45.58924" lon="5.91886">
        <ele>367.3</ele>
        <time>2012-04-01T09:21:07Z</time>
      </trkpt>
      <trkpt lat="45.58931" lon="5.9192">
        <ele>366.6</ele>
        <time>2012-04-01T09:21:12Z</time>
      </trkpt>
      <trkpt lat="45.5894" lon="5.91944">
        <ele>367.5</ele>
        <time>2012-04-01T09:21:17Z</time>
      </trkpt>
      <trkpt lat="45.58951" lon="5.91965">
        <ele>368.4</ele>
        <time>2012-04-01T09:21:22Z</time>
      </trkpt>
      <trkpt lat="45.58957" lon="5.91987">
        <ele>369.1</ele>
        <time>2012-04-01T09:21:27Z</time>
      </trkpt>
      <trkpt lat="45.58963" lon="5.92009">
        <ele>370.4</ele>
        <time>2012-04-01T09:21:32Z</time>
      </trkpt>
      <trkpt lat="45.58968" lon="5.92026">
        <ele>372.1</ele>
        <time>2012-04-01T09:21:37Z</time>
      </trkpt>
      <trkpt lat="45.58969" lon="5.9205">
        <ele>372.6</ele>
        <time>2012-04-01T09:21:42Z</time>
      </trkpt>
      <trkpt lat="45.5898" lon="5.92068">
        <ele>373.6</ele>
        <time>2012-04-01T09:21:47Z</time>
      </trkpt>
      <trkpt lat="45.58995" lon="5.92091">
        <ele>374.5</ele>
        <time>2012-04-01T09:21:52Z</time>
      </trkpt>
      <trkpt lat="45.59012" lon="5.92098">
        <ele>375.7</ele>
        <time>2012-04-01T09:21:57Z</time>
      </trkpt>
      <trkpt lat="45.59027" lon="5.92103">
        <ele>376.7</ele>
        <time>2012-04-01T09:22:02Z</time>
      </trkpt>
      <trkpt lat="45.59036" lon="5.92106">
        <ele>376.8</ele>
        <time>2012-04-01T09:22:07Z</time>
      </trkpt>
      <trkpt lat="45.59044" lon="5.92108">
        <ele>376.9</ele>
        <time>2012-04-01T09:22:12Z</time>
      </trkpt>
      <trkpt lat="45.59057" lon="5.92112">
        <ele>377</ele>
        <time>2012-04-01T09:22:17Z</time>
      </trkpt>
      <trkpt lat="45.59072" lon="5.92124">
        <ele>376.6</ele>
        <time>2012-04-01T09:22:22Z</time>
      </trkpt>
      <trkpt lat="45.59082" lon="5.9215">
        <ele>375.7</ele>
        <time>2012-04-01T09:22:27Z</time>
      </trkpt>
      <trkpt lat="45.59094" lon="5.9218">
        <ele>374.2</ele>
        <time>2012-04-01T09:22:32Z</time>
      </trkpt>
      <trkpt lat="45.59112" lon="5.92219">
        <ele>372.1</ele>
        <time>2012-04-01T09:22:37Z</time>
      </trkpt>
      <trkpt lat="45.59123" lon="5.92261">
        <ele>369.1</ele>
        <time>2012-04-01T09:22:42Z</time>
      </trkpt>
      <trkpt lat="45.59108" lon="5.92334">
        <ele>364.4</ele>
        <time>2012-04-01T09:22:47Z</time>
      </trkpt>
      <trkpt lat="45.59103" lon="5.92393">
        <ele>362.7</ele>
        <time>2012-04-01T09:22:52Z</time>
      </trkpt>
      <trkpt lat="45.59105" lon="5.9242">
        <ele>364</ele>
        <time>2012-04-01T09:22:57Z</time>
      </trkpt>
      <trkpt lat="45.59127" lon="5.92421">
        <ele>363.9</ele>
        <time>2012-04-01T09:23:02Z</time>
      </trkpt>
      <trkpt lat="45.59156" lon="5.92419">
        <ele>362.9</ele>
        <time>2012-04-01T09:23:07Z</time>
      </trkpt>
      <trkpt lat="45.59181" lon="5.92419">
        <ele>363</ele>
        <time>2012-04-01T09:23:12Z</time>
      </trkpt>
      <trkpt lat="45.59213" lon="5.92418">
        <ele>361.2</ele>
        <time>2012-04-01T09:23:17Z</time>
      </trkpt>
      <trkpt lat="45.59252" lon="5.92416">
        <ele>359</ele>
        <time>2012-04-01T09:23:22Z</time>
      </trkpt>
      <trkpt lat="45.59284" lon="5.92408">
        <ele>359.1</ele>
        <time>2012-04-01T09:23:27Z</time>
      </trkpt>
      <trkpt lat="45.59316" lon="5.92402">
        <ele>358.2</ele>
        <time>2012-04-01T09:23:32Z</time>
      </trkpt>
      <trkpt lat="45.59347" lon="5.92418">
        <ele>356.6</ele>
        <time>2012-04-01T09:23:37Z</time>
      </trkpt>
      <trkpt lat="45.59373" lon="5.92441">
        <ele>354.3</ele>
        <time>2012-04-01T09:23:42Z</time>
      </trkpt>
      <trkpt lat="45.59395" lon="5.92479">
        <ele>349.9</ele>
        <time>2012-04-01T09:23:47Z</time>
      </trkpt>
      <trkpt lat="45.59385" lon="5.92487">
        <ele>351.7</ele>
        <time>2012-04-01T09:23:52Z</time>
      </trkpt>
      <trkpt lat="45.59378" lon="5.92481">
        <ele>354</ele>
        <time>2012-04-01T09:23:57Z</time>
      </trkpt>
      <trkpt lat="45.59371" lon="5.92479">
        <ele>356</ele>
        <time>2012-04-01T09:24:02Z</time>
      </trkpt>
      <trkpt lat="45.59362" lon="5.92483">
        <ele>358.4</ele>
        <time>2012-04-01T09:24:07Z</time>
      </trkpt>
      <trkpt lat="45.59355" lon="5.92489">
        <ele>359.7</ele>
        <time>2012-04-01T09:24:12Z</time>
      </trkpt>
      <trkpt lat="45.5935" lon="5.92491">
        <ele>360.8</ele>
        <time>2012-04-01T09:24:17Z</time>
      </trkpt>
      <trkpt lat="45.59343" lon="5.92489">
        <ele>362.1</ele>
        <time>2012-04-01T09:24:22Z</time>
      </trkpt>
      <trkpt lat="45.59336" lon="5.92493">
        <ele>363.9</ele>
        <time>2012-04-01T09:24:27Z</time>
      </trkpt>
      <trkpt lat="45.59331" lon="5.92493">
        <ele>365.9</ele>
        <time>2012-04-01T09:24:32Z</time>
      </trkpt>
      <trkpt lat="45.59328" lon="5.92489">
        <ele>367</ele>
        <time>2012-04-01T09:24:37Z</time>
      </trkpt>
      <trkpt lat="45.59325" lon="5.92483">
        <ele>367.5</ele>
        <time>2012-04-01T09:24:42Z</time>
      </trkpt>
      <trkpt lat="45.59322" lon="5.92478">
        <ele>368.4</ele>
        <time>2012-04-01T09:24:47Z</time>
      </trkpt>
      <trkpt lat="45.59319" lon="5.92475">
        <ele>369.8</ele>
        <time>2012-04-01T09:24:52Z</time>
      </trkpt>
      <trkpt lat="45.59316" lon="5.92474">
        <ele>371</ele>
        <time>2012-04-01T09:24:57Z</time>
      </trkpt>
      <trkpt lat="45.59317" lon="5.92474">
        <ele>370.6</ele>
        <time>2012-04-01T09:25:02Z</time>
      </trkpt>
      <trkpt lat="45.59311" lon="5.92473">
        <ele>372.7</ele>
        <time>2012-04-01T09:25:07Z</time>
      </trkpt>
      <trkpt lat="45.59304" lon="5.92473">
        <ele>374.6</ele>
        <time>2012-04-01T09:25:12Z</time>
      </trkpt>
      <trkpt lat="45.59306" lon="5.9248">
        <ele>376.1</ele>
        <time>2012-04-01T09:25:17Z</time>
      </trkpt>
      <trkpt lat="45.59305" lon="5.92486">
        <ele>377.3</ele>
        <time>2012-04-01T09:25:22Z</time>
      </trkpt>
      <trkpt lat="45.593" lon="5.92488">
        <ele>376.4</ele>
        <time>2012-04-01T09:25:27Z</time>
      </trkpt>
      <trkpt lat="45.593" lon="5.92496">
        <ele>378.5</ele>
        <time>2012-04-01T09:25:32Z</time>
      </trkpt>
      <trkpt lat="45.59301" lon="5.92501">
        <ele>380.1</ele>
        <time>2012-04-01T09:25:37Z</time>
      </trkpt>
      <trkpt lat="45.59297" lon="5.92502">
        <ele>380</ele>
        <time>2012-04-01T09:25:42Z</time>
      </trkpt>
      <trkpt lat="45.59295" lon="5.92502">
        <ele>380.3</ele>
        <time>2012-04-01T09:25:47Z</time>
      </trkpt>
      <trkpt lat="45.59293" lon="5.92504">
        <ele>381.4</ele>
        <time>2012-04-01T09:25:52Z</time>
      </trkpt>
      <trkpt lat="45.59297" lon="5.92508">
        <ele>384</ele>
        <time>2012-04-01T09:25:57Z</time>
      </trkpt>
      <trkpt lat="45.59301" lon="5.92511">
        <ele>385.6</ele>
        <time>2012-04-01T09:26:02Z</time>
      </trkpt>
      <trkpt lat="45.59296" lon="5.92511">
        <ele>385.9</ele>
        <time>2012-04-01T09:26:07Z</time>
      </trkpt>
      <trkpt lat="45.59291" lon="5.92512">
        <ele>386.9</ele>
        <time>2012-04-01T09:26:12Z</time>
      </trkpt>
      <trkpt lat="45.59294" lon="5.92518">
        <ele>390.5</ele>
        <time>2012-04-01T09:26:17Z</time>
      </trkpt>
      <trkpt lat="45.59297" lon="5.92525">
        <ele>394.4</ele>
        <time>2012-04-01T09:26:22Z</time>
      </trkpt>
      <trkpt lat="45.59294" lon="5.92528">
        <ele>396.9</ele>
        <time>2012-04-01T09:26:27Z</time>
      </trkpt>
      <trkpt lat="45.59287" lon="5.92527">
        <ele>397.9</ele>
        <time>2012-04-01T09:26:32Z</time>
      </trkpt>
      <trkpt lat="45.5928" lon="5.92525">
        <ele>398.4</ele>
        <time>2012-04-01T09:26:37Z</time>
      </trkpt>
      <trkpt lat="45.59273" lon="5.92523">
        <ele>398.2</ele>
        <time>2012-04-01T09:26:42Z</time>
      </trkpt>
      <trkpt lat="45.59267" lon="5.92522">
        <ele>398.3</ele>
        <time>2012-04-01T09:26:47Z</time>
      </trkpt>
      <trkpt lat="45.59265" lon="5.92522">
        <ele>399.1</ele>
        <time>2012-04-01T09:26:52Z</time>
      </trkpt>
      <trkpt lat="45.59263" lon="5.92521">
        <ele>398.9</ele>
        <time>2012-04-01T09:26:57Z</time>
      </trkpt>
      <trkpt lat="45.59256" lon="5.92522">
        <ele>401.4</ele>
        <time>2012-04-01T09:27:02Z</time>
      </trkpt>
      <trkpt lat="45.59251" lon="5.92534">
        <ele>407.1</ele>
        <time>2012-04-01T09:27:07Z</time>
      </trkpt>
      <trkpt lat="45.59253" lon="5.92545">
        <ele>409.1</ele>
        <time>2012-04-01T09:27:12Z</time>
      </trkpt>
      <trkpt lat="45.59256" lon="5.92554">
        <ele>410.7</ele>
        <time>2012-04-01T09:27:17Z</time>
      </trkpt>
      <trkpt lat="45.59258" lon="5.92564">
        <ele>412.7</ele>
        <time>2012-04-01T09:27:22Z</time>
      </trkpt>
      <trkpt lat="45.59261" lon="5.92574">
        <ele>414.5</ele>
        <time>2012-04-01T09:27:27Z</time>
      </trkpt>
      <trkpt lat="45.59265" lon="5.92582">
        <ele>416</ele>
        <time>2012-04-01T09:27:32Z</time>
      </trkpt>
      <trkpt lat="45.59268" lon="5.9259">
        <ele>417.6</ele>
        <time>2012-04-01T09:27:37Z</time>
      </trkpt>
      <trkpt lat="45.59265" lon="5.92597">
        <ele>420.3</ele>
        <time>2012-04-01T09:27:42Z</time>
      </trkpt>
      <trkpt lat="45.59258" lon="5.92595">
        <ele>421.5</ele>
        <time>2012-04-01T09:27:47Z</time>
      </trkpt>
      <trkpt lat="45.5925" lon="5.92592">
        <ele>422.2</ele>
        <time>2012-04-01T09:27:52Z</time>
      </trkpt>
      <trkpt lat="45.59243" lon="5.92589">
        <ele>423.6</ele>
        <time>2012-04-01T09:27:57Z</time>
      </trkpt>
      <trkpt lat="45.59237" lon="5.92587">
        <ele>424.6</ele>
        <time>2012-04-01T09:28:02Z</time>
      </trkpt>
      <trkpt lat="45.59231" lon="5.92582">
        <ele>424.7</ele>
        <time>2012-04-01T09:28:07Z</time>
      </trkpt>
      <trkpt lat="45.59225" lon="5.92573">
        <ele>424.1</ele>
        <time>2012-04-01T09:28:12Z</time>
      </trkpt>
      <trkpt lat="45.59223" lon="5.92572">
        <ele>424.4</ele>
        <time>2012-04-01T09:28:17Z</time>
      </trkpt>
      <trkpt lat="45.59222" lon="5.92571">
        <ele>424.7</ele>
        <time>2012-04-01T09:28:22Z</time>
      </trkpt>
      <trkpt lat="45.59219" lon="5.92568">
        <ele>424.8</ele>
        <time>2012-04-01T09:28:27Z</time>
      </trkpt>
      <trkpt lat="45.59217" lon="5.92572">
        <ele>426.4</ele>
        <time>2012-04-01T09:28:32Z</time>
      </trkpt>
      <trkpt lat="45.59218" lon="5.92578">
        <ele>427.9</ele>
        <time>2012-04-01T09:28:37Z</time>
      </trkpt>
      <trkpt lat="45.59215" lon="5.92575">
        <ele>428</ele>
        <time>2012-04-01T09:28:42Z</time>
      </trkpt>
      <trkpt lat="45.5921" lon="5.92575">
        <ele>429.8</ele>
        <time>2012-04-01T09:28:47Z</time>
      </trkpt>
      <trkpt lat="45.59205" lon="5.92576">
        <ele>431.6</ele>
        <time>2012-04-01T09:28:52Z</time>
      </trkpt>
      <trkpt lat="45.59198" lon="5.92576">
        <ele>433.9</ele>
        <time>2012-04-01T09:28:57Z</time>
      </trkpt>
      <trkpt lat="45.59188" lon="5.92576">
        <ele>435.8</ele>
        <time>2012-04-01T09:29:02Z</time>
      </trkpt>
      <trkpt lat="45.5918" lon="5.92578">
        <ele>437.2</ele>
        <time>2012-04-01T09:29:07Z</time>
      </trkpt>
      <trkpt lat="45.59174" lon="5.9258">
        <ele>438.3</ele>
        <time>2012-04-01T09:29:12Z</time>
      </trkpt>
      <trkpt lat="45.59174" lon="5.92579">
        <ele>438.3</ele>
        <time>2012-04-01T09:29:17Z</time>
      </trkpt>
      <trkpt lat="45.59172" lon="5.92581">
        <ele>438.8</ele>
        <time>2012-04-01T09:29:22Z</time>
      </trkpt>
      <trkpt lat="45.59165" lon="5.92583">
        <ele>440</ele>
        <time>2012-04-01T09:29:27Z</time>
      </trkpt>
      <trkpt lat="45.59155" lon="5.92587">
        <ele>440.7</ele>
        <time>2012-04-01T09:29:32Z</time>
      </trkpt>
      <trkpt lat="45.59145" lon="5.92587">
        <ele>440.6</ele>
        <time>2012-04-01T09:29:37Z</time>
      </trkpt>
      <trkpt lat="45.59133" lon="5.92591">
        <ele>441.8</ele>
        <time>2012-04-01T09:29:42Z</time>
      </trkpt>
      <trkpt lat="45.59119" lon="5.92599">
        <ele>444.4</ele>
        <time>2012-04-01T09:29:47Z</time>
      </trkpt>
      <trkpt lat="45.59108" lon="5.92606">
        <ele>446.5</ele>
        <time>2012-04-01T09:29:52Z</time>
      </trkpt>
      <trkpt lat="45.59101" lon="5.92613">
        <ele>448</ele>
        <time>2012-04-01T09:29:57Z</time>
      </trkpt>
      <trkpt lat="45.59093" lon="5.9262">
        <ele>449.2</ele>
        <time>2012-04-01T09:30:02Z</time>
      </trkpt>
      <trkpt lat="45.59086" lon="5.92625">
        <ele>450.1</ele>
        <time>2012-04-01T09:30:07Z</time>
      </trkpt>
      <trkpt lat="45.59083" lon="5.92626">
        <ele>450.2</ele>
        <time>2012-04-01T09:30:12Z</time>
      </trkpt>
      <trkpt lat="45.59076" lon="5.9263">
        <ele>450.7</ele>
        <time>2012-04-01T09:30:17Z</time>
      </trkpt>
      <trkpt lat="45.59063" lon="5.92638">
        <ele>452.1</ele>
        <time>2012-04-01T09:30:22Z</time>
      </trkpt>
      <trkpt lat="45.59052" lon="5.92644">
        <ele>452.8</ele>
        <time>2012-04-01T09:30:27Z</time>
      </trkpt>
      <trkpt lat="45.5904" lon="5.9265">
        <ele>453.7</ele>
        <time>2012-04-01T09:30:32Z</time>
      </trkpt>
      <trkpt lat="45.59031" lon="5.92654">
        <ele>454.4</ele>
        <time>2012-04-01T09:30:37Z</time>
      </trkpt>
      <trkpt lat="45.59022" lon="5.92656">
        <ele>454.2</ele>
        <time>2012-04-01T09:30:42Z</time>
      </trkpt>
      <trkpt lat="45.59012" lon="5.92665">
        <ele>455.4</ele>
        <time>2012-04-01T09:30:47Z</time>
      </trkpt>
      <trkpt lat="45.58998" lon="5.92677">
        <ele>457.5</ele>
        <time>2012-04-01T09:30:52Z</time>
      </trkpt>
      <trkpt lat="45.58987" lon="5.92687">
        <ele>459.6</ele>
        <time>2012-04-01T09:30:57Z</time>
      </trkpt>
      <trkpt lat="45.58976" lon="5.92696">
        <ele>460.7</ele>
        <time>2012-04-01T09:31:02Z</time>
      </trkpt>
      <trkpt lat="45.58964" lon="5.92701">
        <ele>461.5</ele>
        <time>2012-04-01T09:31:07Z</time>
      </trkpt>
      <trkpt lat="45.58951" lon="5.92706">
        <ele>462.3</ele>
        <time>2012-04-01T09:31:12Z</time>
      </trkpt>
      <trkpt lat="45.58939" lon="5.92716">
        <ele>463.5</ele>
        <time>2012-04-01T09:31:17Z</time>
      </trkpt>
      <trkpt lat="45.58928" lon="5.92729">
        <ele>465.2</ele>
        <time>2012-04-01T09:31:22Z</time>
      </trkpt>
      <trkpt lat="45.58914" lon="5.92742">
        <ele>466.9</ele>
        <time>2012-04-01T09:31:27Z</time>
      </trkpt>
      <trkpt lat="45.589" lon="5.92749">
        <ele>466.9</ele>
        <time>2012-04-01T09:31:32Z</time>
      </trkpt>
      <trkpt lat="45.58884" lon="5.92757">
        <ele>466.8</ele>
        <time>2012-04-01T09:31:37Z</time>
      </trkpt>
      <trkpt lat="45.58865" lon="5.92768">
        <ele>467.2</ele>
        <time>2012-04-01T09:31:42Z</time>
      </trkpt>
      <trkpt lat="45.58853" lon="5.92781">
        <ele>468.1</ele>
        <time>2012-04-01T09:31:47Z</time>
      </trkpt>
      <trkpt lat="45.58864" lon="5.92793">
        <ele>470.4</ele>
        <time>2012-04-01T09:31:52Z</time>
      </trkpt>
      <trkpt lat="45.58874" lon="5.92797">
        <ele>472.1</ele>
        <time>2012-04-01T09:31:57Z</time>
      </trkpt>
      <trkpt lat="45.58883" lon="5.92804">
        <ele>474</ele>
        <time>2012-04-01T09:32:02Z</time>
      </trkpt>
      <trkpt lat="45.58891" lon="5.92815">
        <ele>476.6</ele>
        <time>2012-04-01T09:32:07Z</time>
      </trkpt>
      <trkpt lat="45.589" lon="5.92814">
        <ele>477.5</ele>
        <time>2012-04-01T09:32:12Z</time>
      </trkpt>
      <trkpt lat="45.58908" lon="5.92804">
        <ele>476.8</ele>
        <time>2012-04-01T09:32:17Z</time>
      </trkpt>
      <trkpt lat="45.58923" lon="5.92799">
        <ele>477.3</ele>
        <time>2012-04-01T09:32:22Z</time>
      </trkpt>
      <trkpt lat="45.58944" lon="5.92793">
        <ele>478.1</ele>
        <time>2012-04-01T09:32:27Z</time>
      </trkpt>
      <trkpt lat="45.58955" lon="5.92794">
        <ele>479</ele>
        <time>2012-04-01T09:32:32Z</time>
      </trkpt>
      <trkpt lat="45.58966" lon="5.92797">
        <ele>480.3</ele>
        <time>2012-04-01T09:32:37Z</time>
      </trkpt>
      <trkpt lat="45.58978" lon="5.92799">
        <ele>481.5</ele>
        <time>2012-04-01T09:32:42Z</time>
      </trkpt>
      <trkpt lat="45.58992" lon="5.92796">
        <ele>482</ele>
        <time>2012-04-01T09:32:47Z</time>
      </trkpt>
      <trkpt lat="45.59003" lon="5.92786">
        <ele>481.4</ele>
        <time>2012-04-01T09:32:52Z</time>
      </trkpt>
      <trkpt lat="45.59021" lon="5.92787">
        <ele>483</ele>
        <time>2012-04-01T09:32:57Z</time>
      </trkpt>
      <trkpt lat="45.59028" lon="5.92796">
        <ele>485.3</ele>
        <time>2012-04-01T09:33:02Z</time>
      </trkpt>
      <trkpt lat="45.59035" lon="5.92805">
        <ele>487.7</ele>
        <time>2012-04-01T09:33:07Z</time>
      </trkpt>
      <trkpt lat="45.59041" lon="5.92813">
        <ele>489.9</ele>
        <time>2012-04-01T09:33:12Z</time>
      </trkpt>
      <trkpt lat="45.59047" lon="5.92819">
        <ele>491.7</ele>
        <time>2012-04-01T09:33:17Z</time>
      </trkpt>
      <trkpt lat="45.59053" lon="5.92823">
        <ele>492.9</ele>
        <time>2012-04-01T09:33:22Z</time>
      </trkpt>
      <trkpt lat="45.5906" lon="5.92829">
        <ele>494.6</ele>
        <time>2012-04-01T09:33:27Z</time>
      </trkpt>
      <trkpt lat="45.59065" lon="5.92838">
        <ele>496.6</ele>
        <time>2012-04-01T09:33:32Z</time>
      </trkpt>
      <trkpt lat="45.59069" lon="5.92845">
        <ele>498.2</ele>
        <time>2012-04-01T09:33:37Z</time>
      </trkpt>
      <trkpt lat="45.59074" lon="5.9285">
        <ele>499.8</ele>
        <time>2012-04-01T09:33:42Z</time>
      </trkpt>
      <trkpt lat="45.5908" lon="5.92855">
        <ele>501.3</ele>
        <time>2012-04-01T09:33:47Z</time>
      </trkpt>
      <trkpt lat="45.59085" lon="5.9286">
        <ele>502.8</ele>
        <time>2012-04-01T09:33:52Z</time>
      </trkpt>
      <trkpt lat="45.5909" lon="5.92867">
        <ele>504.2</ele>
        <time>2012-04-01T09:33:57Z</time>
      </trkpt>
      <trkpt lat="45.59094" lon="5.92872">
        <ele>505.4</ele>
        <time>2012-04-01T09:34:02Z</time>
      </trkpt>
      <trkpt lat="45.59094" lon="5.9288">
        <ele>506.8</ele>
        <time>2012-04-01T09:34:07Z</time>
      </trkpt>
      <trkpt lat="45.59092" lon="5.92888">
        <ele>508.1</ele>
        <time>2012-04-01T09:34:12Z</time>
      </trkpt>
      <trkpt lat="45.59086" lon="5.92892">
        <ele>508.5</ele>
        <time>2012-04-01T09:34:17Z</time>
      </trkpt>
      <trkpt lat="45.59082" lon="5.92901">
        <ele>509.6</ele>
        <time>2012-04-01T09:34:22Z</time>
      </trkpt>
      <trkpt lat="45.59078" lon="5.92908">
        <ele>510.5</ele>
        <time>2012-04-01T09:34:27Z</time>
      </trkpt>
      <trkpt lat="45.59072" lon="5.92917">
        <ele>511.6</ele>
        <time>2012-04-01T09:34:32Z</time>
      </trkpt>
      <trkpt lat="45.59066" lon="5.92932">
        <ele>513</ele>
        <time>2012-04-01T09:34:37Z</time>
      </trkpt>
      <trkpt lat="45.59069" lon="5.92948">
        <ele>514.7</ele>
        <time>2012-04-01T09:34:42Z</time>
      </trkpt>
      <trkpt lat="45.59077" lon="5.92958">
        <ele>516</ele>
        <time>2012-04-01T09:34:47Z</time>
      </trkpt>
      <trkpt lat="45.59086" lon="5.92968">
        <ele>517.6</ele>
        <time>2012-04-01T09:34:52Z</time>
      </trkpt>
      <trkpt lat="45.59094" lon="5.92974">
        <ele>518.5</ele>
        <time>2012-04-01T09:34:57Z</time>
      </trkpt>
      <trkpt lat="45.59105" lon="5.92979">
        <ele>519.4</ele>
        <time>2012-04-01T09:35:02Z</time>
      </trkpt>
      <trkpt lat="45.59117" lon="5.92988">
        <ele>521</ele>
        <time>2012-04-01T09:35:07Z</time>
      </trkpt>
      <trkpt lat="45.59127" lon="5.92997">
        <ele>522.7</ele>
        <time>2012-04-01T09:35:12Z</time>
      </trkpt>
      <trkpt lat="45.59136" lon="5.93005">
        <ele>524.4</ele>
        <time>2012-04-01T09:35:17Z</time>
      </trkpt>
      <trkpt lat="45.59146" lon="5.93009">
        <ele>526</ele>
        <time>2012-04-01T09:35:22Z</time>
      </trkpt>
      <trkpt lat="45.59156" lon="5.93012">
        <ele>527.5</ele>
        <time>2012-04-01T09:35:27Z</time>
      </trkpt>
      <trkpt lat="45.59162" lon="5.93014">
        <ele>528.6</ele>
        <time>2012-04-01T09:35:32Z</time>
      </trkpt>
      <trkpt lat="45.59172" lon="5.93023">
        <ele>530.4</ele>
        <time>2012-04-01T09:35:37Z</time>
      </trkpt>
      <trkpt lat="45.5918" lon="5.93033">
        <ele>531.7</ele>
        <time>2012-04-01T09:35:42Z</time>
      </trkpt>
      <trkpt lat="45.5919" lon="5.93035">
        <ele>532.4</ele>
        <time>2012-04-01T09:35:47Z</time>
      </trkpt>
      <trkpt lat="45.59203" lon="5.93038">
        <ele>533.5</ele>
        <time>2012-04-01T09:35:52Z</time>
      </trkpt>
      <trkpt lat="45.59214" lon="5.93048">
        <ele>535.3</ele>
        <time>2012-04-01T09:35:57Z</time>
      </trkpt>
      <trkpt lat="45.59221" lon="5.93055">
        <ele>536</ele>
        <time>2012-04-01T09:36:02Z</time>
      </trkpt>
      <trkpt lat="45.59234" lon="5.93061">
        <ele>536.7</ele>
        <time>2012-04-01T09:36:07Z</time>
      </trkpt>
      <trkpt lat="45.59255" lon="5.93069">
        <ele>537.1</ele>
        <time>2012-04-01T09:36:12Z</time>
      </trkpt>
      <trkpt lat="45.59273" lon="5.93075">
        <ele>536.7</ele>
        <time>2012-04-01T09:36:17Z</time>
      </trkpt>
      <trkpt lat="45.59288" lon="5.93091">
        <ele>537.5</ele>
        <time>2012-04-01T09:36:22Z</time>
      </trkpt>
      <trkpt lat="45.59299" lon="5.93111">
        <ele>539.5</ele>
        <time>2012-04-01T09:36:27Z</time>
      </trkpt>
      <trkpt lat="45.5931" lon="5.93125">
        <ele>540.8</ele>
        <time>2012-04-01T09:36:32Z</time>
      </trkpt>
      <trkpt lat="45.59322" lon="5.9314">
        <ele>543.1</ele>
        <time>2012-04-01T09:36:37Z</time>
      </trkpt>
      <trkpt lat="45.59334" lon="5.93158">
        <ele>544.9</ele>
        <time>2012-04-01T09:36:42Z</time>
      </trkpt>
      <trkpt lat="45.59344" lon="5.93177">
        <ele>545.3</ele>
        <time>2012-04-01T09:36:47Z</time>
      </trkpt>
      <trkpt lat="45.59355" lon="5.93191">
        <ele>545.2</ele>
        <time>2012-04-01T09:36:52Z</time>
      </trkpt>
      <trkpt lat="45.59375" lon="5.93214">
        <ele>545.8</ele>
        <time>2012-04-01T09:36:57Z</time>
      </trkpt>
      <trkpt lat="45.59396" lon="5.93226">
        <ele>545.9</ele>
        <time>2012-04-01T09:37:02Z</time>
      </trkpt>
      <trkpt lat="45.59414" lon="5.93237">
        <ele>546.3</ele>
        <time>2012-04-01T09:37:07Z</time>
      </trkpt>
      <trkpt lat="45.59433" lon="5.93251">
        <ele>550.9</ele>
        <time>2012-04-01T09:37:12Z</time>
      </trkpt>
      <trkpt lat="45.59447" lon="5.93245">
        <ele>552.1</ele>
        <time>2012-04-01T09:37:17Z</time>
      </trkpt>
      <trkpt lat="45.59462" lon="5.9324">
        <ele>552.4</ele>
        <time>2012-04-01T09:37:22Z</time>
      </trkpt>
      <trkpt lat="45.59483" lon="5.93238">
        <ele>554.1</ele>
        <time>2012-04-01T09:37:27Z</time>
      </trkpt>
      <trkpt lat="45.59502" lon="5.93242">
        <ele>556.6</ele>
        <time>2012-04-01T09:37:32Z</time>
      </trkpt>
      <trkpt lat="45.59513" lon="5.93242">
        <ele>557.4</ele>
        <time>2012-04-01T09:37:37Z</time>
      </trkpt>
      <trkpt lat="45.59528" lon="5.93241">
        <ele>558.4</ele>
        <time>2012-04-01T09:37:42Z</time>
      </trkpt>
      <trkpt lat="45.59545" lon="5.93244">
        <ele>558.4</ele>
        <time>2012-04-01T09:37:47Z</time>
      </trkpt>
      <trkpt lat="45.59553" lon="5.93238">
        <ele>557.4</ele>
        <time>2012-04-01T09:37:52Z</time>
      </trkpt>
      <trkpt lat="45.59566" lon="5.93239">
        <ele>556.4</ele>
        <time>2012-04-01T09:37:57Z</time>
      </trkpt>
      <trkpt lat="45.59585" lon="5.93235">
        <ele>553.3</ele>
        <time>2012-04-01T09:38:02Z</time>
      </trkpt>
      <trkpt lat="45.59603" lon="5.93241">
        <ele>551.4</ele>
        <time>2012-04-01T09:38:07Z</time>
      </trkpt>
      <trkpt lat="45.59619" lon="5.93242">
        <ele>549.4</ele>
        <time>2012-04-01T09:38:12Z</time>
      </trkpt>
      <trkpt lat="45.59643" lon="5.93253">
        <ele>554.8</ele>
        <time>2012-04-01T09:38:17Z</time>
      </trkpt>
      <trkpt lat="45.59663" lon="5.93262">
        <ele>553.3</ele>
        <time>2012-04-01T09:38:22Z</time>
      </trkpt>
      <trkpt lat="45.59688" lon="5.93274">
        <ele>551.3</ele>
        <time>2012-04-01T09:38:27Z</time>
      </trkpt>
      <trkpt lat="45.59703" lon="5.93286">
        <ele>549.7</ele>
        <time>2012-04-01T09:38:32Z</time>
      </trkpt>
      <trkpt lat="45.59705" lon="5.93303">
        <ele>549.2</ele>
        <time>2012-04-01T09:38:37Z</time>
      </trkpt>
      <trkpt lat="45.5971" lon="5.93309">
        <ele>548</ele>
        <time>2012-04-01T09:38:42Z</time>
      </trkpt>
      <trkpt lat="45.59718" lon="5.93314">
        <ele>546.2</ele>
        <time>2012-04-01T09:38:47Z</time>
      </trkpt>
      <trkpt lat="45.59725" lon="5.93321">
        <ele>544</ele>
        <time>2012-04-01T09:38:52Z</time>
      </trkpt>
      <trkpt lat="45.59731" lon="5.93327">
        <ele>541.9</ele>
        <time>2012-04-01T09:38:57Z</time>
      </trkpt>
      <trkpt lat="45.59736" lon="5.93334">
        <ele>540</ele>
        <time>2012-04-01T09:39:02Z</time>
      </trkpt>
      <trkpt lat="45.5974" lon="5.93341">
        <ele>537.8</ele>
        <time>2012-04-01T09:39:07Z</time>
      </trkpt>
      <trkpt lat="45.59744" lon="5.93346">
        <ele>536.2</ele>
        <time>2012-04-01T09:39:12Z</time>
      </trkpt>
      <trkpt lat="45.59751" lon="5.9335">
        <ele>534</ele>
        <time>2012-04-01T09:39:17Z</time>
      </trkpt>
      <trkpt lat="45.59767" lon="5.93353">
        <ele>529.8</ele>
        <time>2012-04-01T09:39:22Z</time>
      </trkpt>
      <trkpt lat="45.59786" lon="5.93374">
        <ele>523.7</ele>
        <time>2012-04-01T09:39:27Z</time>
      </trkpt>
      <trkpt lat="45.59795" lon="5.9339">
        <ele>519.9</ele>
        <time>2012-04-01T09:39:32Z</time>
      </trkpt>
      <trkpt lat="45.59801" lon="5.93406">
        <ele>516.4</ele>
        <time>2012-04-01T09:39:37Z</time>
      </trkpt>
      <trkpt lat="45.59808" lon="5.93413">
        <ele>513.4</ele>
        <time>2012-04-01T09:39:42Z</time>
      </trkpt>
      <trkpt lat="45.59812" lon="5.93422">
        <ele>510</ele>
        <time>2012-04-01T09:39:47Z</time>
      </trkpt>
      <trkpt lat="45.59818" lon="5.93422">
        <ele>507</ele>
        <time>2012-04-01T09:39:52Z</time>
      </trkpt>
      <trkpt lat="45.59825" lon="5.93422">
        <ele>504</ele>
        <time>2012-04-01T09:39:57Z</time>
      </trkpt>
      <trkpt lat="45.5983" lon="5.93432">
        <ele>499.9</ele>
        <time>2012-04-01T09:40:02Z</time>
      </trkpt>
      <trkpt lat="45.5983" lon="5.93444">
        <ele>497.7</ele>
        <time>2012-04-01T09:40:07Z</time>
      </trkpt>
      <trkpt lat="45.5984" lon="5.93452">
        <ele>493</ele>
        <time>2012-04-01T09:40:12Z</time>
      </trkpt>
      <trkpt lat="45.59843" lon="5.93458">
        <ele>491.7</ele>
        <time>2012-04-01T09:40:17Z</time>
      </trkpt>
      <trkpt lat="45.59851" lon="5.93476">
        <ele>488.7</ele>
        <time>2012-04-01T09:40:22Z</time>
      </trkpt>
      <trkpt lat="45.59866" lon="5.93501">
        <ele>487.5</ele>
        <time>2012-04-01T09:40:27Z</time>
      </trkpt>
      <trkpt lat="45.59866" lon="5.93531">
        <ele>486.3</ele>
        <time>2012-04-01T09:40:32Z</time>
      </trkpt>
      <trkpt lat="45.59851" lon="5.93556">
        <ele>483.3</ele>
        <time>2012-04-01T09:40:37Z</time>
      </trkpt>
      <trkpt lat="45.59837" lon="5.93586">
        <ele>479.5</ele>
        <time>2012-04-01T09:40:42Z</time>
      </trkpt>
      <trkpt lat="45.59822" lon="5.93629">
        <ele>473.9</ele>
        <time>2012-04-01T09:40:47Z</time>
      </trkpt>
      <trkpt lat="45.5982" lon="5.93659">
        <ele>467.8</ele>
        <time>2012-04-01T09:40:52Z</time>
      </trkpt>
      <trkpt lat="45.59793" lon="5.93697">
        <ele>460</ele>
        <time>2012-04-01T09:40:57Z</time>
      </trkpt>
      <trkpt lat="45.59769" lon="5.93721">
        <ele>454.1</ele>
        <time>2012-04-01T09:41:02Z</time>
      </trkpt>
      <trkpt lat="45.5974" lon="5.9373">
        <ele>450.2</ele>
        <time>2012-04-01T09:41:07Z</time>
      </trkpt>
      <trkpt lat="45.59709" lon="5.93724">
        <ele>450.1</ele>
        <time>2012-04-01T09:41:12Z</time>
      </trkpt>
      <trkpt lat="45.59679" lon="5.9373">
        <ele>449.5</ele>
        <time>2012-04-01T09:41:17Z</time>
      </trkpt>
      <trkpt lat="45.59656" lon="5.93747">
        <ele>447.3</ele>
        <time>2012-04-01T09:41:22Z</time>
      </trkpt>
      <trkpt lat="45.59626" lon="5.93775">
        <ele>442.6</ele>
        <time>2012-04-01T09:41:27Z</time>
      </trkpt>
      <trkpt lat="45.59603" lon="5.93798">
        <ele>439.2</ele>
        <time>2012-04-01T09:41:32Z</time>
      </trkpt>
      <trkpt lat="45.59583" lon="5.93823">
        <ele>436.6</ele>
        <time>2012-04-01T09:41:37Z</time>
      </trkpt>
      <trkpt lat="45.59568" lon="5.9385">
        <ele>435.6</ele>
        <time>2012-04-01T09:41:42Z</time>
      </trkpt>
      <trkpt lat="45.59551" lon="5.93888">
        <ele>433.7</ele>
        <time>2012-04-01T09:41:47Z</time>
      </trkpt>
      <trkpt lat="45.59553" lon="5.93898">
        <ele>431</ele>
        <time>2012-04-01T09:41:52Z</time>
      </trkpt>
      <trkpt lat="45.59576" lon="5.93887">
        <ele>424</ele>
        <time>2012-04-01T09:41:57Z</time>
      </trkpt>
      <trkpt lat="45.59609" lon="5.93882">
        <ele>416.1</ele>
        <time>2012-04-01T09:42:02Z</time>
      </trkpt>
      <trkpt lat="45.59648" lon="5.93879">
        <ele>412.6</ele>
        <time>2012-04-01T09:42:07Z</time>
      </trkpt>
      <trkpt lat="45.59684" lon="5.9387">
        <ele>410.7</ele>
        <time>2012-04-01T09:42:12Z</time>
      </trkpt>
      <trkpt lat="45.59705" lon="5.93862">
        <ele>409.5</ele>
        <time>2012-04-01T09:42:17Z</time>
      </trkpt>
      <trkpt lat="45.59732" lon="5.93859">
        <ele>409.6</ele>
        <time>2012-04-01T09:42:22Z</time>
      </trkpt>
      <trkpt lat="45.59758" lon="5.93855">
        <ele>409.9</ele>
        <time>2012-04-01T09:42:27Z</time>
      </trkpt>
      <trkpt lat="45.59788" lon="5.93844">
        <ele>409.2</ele>
        <time>2012-04-01T09:42:32Z</time>
      </trkpt>
      <trkpt lat="45.59823" lon="5.93811">
        <ele>410.6</ele>
        <time>2012-04-01T09:42:37Z</time>
      </trkpt>
      <trkpt lat="45.59857" lon="5.93793">
        <ele>409.6</ele>
        <time>2012-04-01T09:42:42Z</time>
      </trkpt>
      <trkpt lat="45.59895" lon="5.93784">
        <ele>408.3</ele>
        <time>2012-04-01T09:42:47Z</time>
      </trkpt>
      <trkpt lat="45.59914" lon="5.93764">
        <ele>406.7</ele>
        <time>2012-04-01T09:42:52Z</time>
      </trkpt>
      <trkpt lat="45.59914" lon="5.93764">
        <ele>406.6</ele>
        <time>2012-04-01T09:42:57Z</time>
      </trkpt>
      <trkpt lat="45.59914" lon="5.93763">
        <ele>406.7</ele>
        <time>2012-04-01T09:43:02Z</time>
      </trkpt>
      <trkpt lat="45.59914" lon="5.93762">
        <ele>406.9</ele>
        <time>2012-04-01T09:43:07Z</time>
      </trkpt>
      <trkpt lat="45.59913" lon="5.93761">
        <ele>407</ele>
        <time>2012-04-01T09:43:12Z</time>
      </trkpt>
      <trkpt lat="45.59914" lon="5.93761">
        <ele>406.9</ele>
        <time>2012-04-01T09:43:17Z</time>
      </trkpt>
      <trkpt lat="45.59915" lon="5.93762">
        <ele>406.4</ele>
        <time>2012-04-01T09:43:22Z</time>
      </trkpt>
      <trkpt lat="45.59918" lon="5.93755">
        <ele>406.1</ele>
        <time>2012-04-01T09:43:27Z</time>
      </trkpt>
      <trkpt lat="45.59919" lon="5.93753">
        <ele>406</ele>
        <time>2012-04-01T09:43:32Z</time>
      </trkpt>
      <trkpt lat="45.5992" lon="5.93751">
        <ele>405.8</ele>
        <time>2012-04-01T09:43:37Z</time>
      </trkpt>
      <trkpt lat="45.59919" lon="5.93751">
        <ele>405.9</ele>
        <time>2012-04-01T09:43:42Z</time>
      </trkpt>
      <trkpt lat="45.59917" lon="5.9375">
        <ele>406.2</ele>
        <time>2012-04-01T09:43:47Z</time>
      </trkpt>
      <trkpt lat="45.59916" lon="5.9375">
        <ele>406.2</ele>
        <time>2012-04-01T09:43:52Z</time>
      </trkpt>
      <trkpt lat="45.59916" lon="5.93751">
        <ele>406.2</ele>
        <time>2012-04-01T09:43:57Z</time>
      </trkpt>
      <trkpt lat="45.59916" lon="5.9375">
        <ele>406.4</ele>
        <time>2012-04-01T09:44:07Z</time>
      </trkpt>
      <trkpt lat="45.59916" lon="5.93749">
        <ele>406.9</ele>
        <time>2012-04-01T09:44:12Z</time>
      </trkpt>
      <trkpt lat="45.59917" lon="5.9375">
        <ele>406.5</ele>
        <time>2012-04-01T09:44:17Z</time>
      </trkpt>
      <trkpt lat="45.59917" lon="5.9375">
        <ele>406</ele>
        <time>2012-04-01T09:44:22Z</time>
      </trkpt>
      <trkpt lat="45.59917" lon="5.9375">
        <ele>406.2</ele>
        <time>2012-04-01T09:44:32Z</time>
      </trkpt>
      <trkpt lat="45.59917" lon="5.93751">
        <ele>406</ele>
        <time>2012-04-01T09:44:37Z</time>
      </trkpt>
      <trkpt lat="45.59917" lon="5.93752">
        <ele>406.1</ele>
        <time>2012-04-01T09:44:42Z</time>
      </trkpt>
      <trkpt lat="45.59917" lon="5.93752">
        <ele>406</ele>
        <time>2012-04-01T09:44:47Z</time>
      </trkpt>
      <trkpt lat="45.59917" lon="5.93752">
        <ele>406</ele>
        <time>2012-04-01T09:44:52Z</time>
      </trkpt>
      <trkpt lat="45.59918" lon="5.93752">
        <ele>406</ele>
        <time>2012-04-01T09:44:57Z</time>
      </trkpt>
      <trkpt lat="45.59918" lon="5.93753">
        <ele>406</ele>
        <time>2012-04-01T09:45:02Z</time>
      </trkpt>
      <trkpt lat="45.59917" lon="5.93752">
        <ele>406</ele>
        <time>2012-04-01T09:45:07Z</time>
      </trkpt>
      <trkpt lat="45.59918" lon="5.93753">
        <ele>406</ele>
        <time>2012-04-01T09:45:17Z</time>
      </trkpt>
      <trkpt lat="45.59917" lon="5.93756">
        <ele>406</ele>
        <time>2012-04-01T09:45:22Z</time>
      </trkpt>
      <trkpt lat="45.59918" lon="5.9376">
        <ele>406.3</ele>
        <time>2012-04-01T09:45:27Z</time>
      </trkpt>
      <trkpt lat="45.59919" lon="5.93761">
        <ele>406.4</ele>
        <time>2012-04-01T09:45:32Z</time>
      </trkpt>
      <trkpt lat="45.5992" lon="5.93763">
        <ele>406.7</ele>
        <time>2012-04-01T09:45:37Z</time>
      </trkpt>
      <trkpt lat="45.5992" lon="5.93763">
        <ele>406.9</ele>
        <time>2012-04-01T09:45:42Z</time>
      </trkpt>
      <trkpt lat="45.5992" lon="5.93763">
        <ele>406.8</ele>
        <time>2012-04-01T09:45:47Z</time>
      </trkpt>
      <trkpt lat="45.5992" lon="5.93762">
        <ele>406.7</ele>
        <time>2012-04-01T09:45:52Z</time>
      </trkpt>
      <trkpt lat="45.5992" lon="5.93762">
        <ele>406.7</ele>
        <time>2012-04-01T09:45:57Z</time>
      </trkpt>
      <trkpt lat="45.59919" lon="5.93762">
        <ele>406.5</ele>
        <time>2012-04-01T09:46:02Z</time>
      </trkpt>
      <trkpt lat="45.59916" lon="5.93759">
        <ele>406.2</ele>
        <time>2012-04-01T09:46:07Z</time>
      </trkpt>
      <trkpt lat="45.59915" lon="5.93758">
        <ele>406.8</ele>
        <time>2012-04-01T09:46:12Z</time>
      </trkpt>
      <trkpt lat="45.59915" lon="5.93758">
        <ele>406.5</ele>
        <time>2012-04-01T09:46:17Z</time>
      </trkpt>
      <trkpt lat="45.59915" lon="5.93758">
        <ele>406.5</ele>
        <time>2012-04-01T09:46:22Z</time>
      </trkpt>
      <trkpt lat="45.59916" lon="5.93759">
        <ele>406.3</ele>
        <time>2012-04-01T09:46:27Z</time>
      </trkpt>
      <trkpt lat="45.59916" lon="5.93759">
        <ele>406.2</ele>
        <time>2012-04-01T09:46:32Z</time>
      </trkpt>
      <trkpt lat="45.59916" lon="5.93759">
        <ele>406.1</ele>
        <time>2012-04-01T09:46:37Z</time>
      </trkpt>
      <trkpt lat="45.59917" lon="5.93759">
        <ele>406</ele>
        <time>2012-04-01T09:46:42Z</time>
      </trkpt>
      <trkpt lat="45.59918" lon="5.93759">
        <ele>406.1</ele>
        <time>2012-04-01T09:46:47Z</time>
      </trkpt>
      <trkpt lat="45.59923" lon="5.93758">
        <ele>406.8</ele>
        <time>2012-04-01T09:46:52Z</time>
      </trkpt>
      <trkpt lat="45.59935" lon="5.93753">
        <ele>406</ele>
        <time>2012-04-01T09:46:57Z</time>
      </trkpt>
      <trkpt lat="45.59949" lon="5.93746">
        <ele>407.2</ele>
        <time>2012-04-01T09:47:02Z</time>
      </trkpt>
      <trkpt lat="45.59963" lon="5.93733">
        <ele>409.7</ele>
        <time>2012-04-01T09:47:07Z</time>
      </trkpt>
      <trkpt lat="45.59973" lon="5.93716">
        <ele>407.1</ele>
        <time>2012-04-01T09:47:12Z</time>
      </trkpt>
      <trkpt lat="45.59985" lon="5.93687">
        <ele>413</ele>
        <time>2012-04-01T09:47:17Z</time>
      </trkpt>
      <trkpt lat="45.59998" lon="5.93638">
        <ele>398.1</ele>
        <time>2012-04-01T09:47:22Z</time>
      </trkpt>
      <trkpt lat="45.60006" lon="5.93569">
        <ele>393.8</ele>
        <time>2012-04-01T09:47:27Z</time>
      </trkpt>
      <trkpt lat="45.60015" lon="5.93517">
        <ele>394.6</ele>
        <time>2012-04-01T09:47:32Z</time>
      </trkpt>
      <trkpt lat="45.6003" lon="5.93474">
        <ele>392.5</ele>
        <time>2012-04-01T09:47:37Z</time>
      </trkpt>
      <trkpt lat="45.60037" lon="5.93437">
        <ele>392.8</ele>
        <time>2012-04-01T09:47:42Z</time>
      </trkpt>
      <trkpt lat="45.60034" lon="5.93409">
        <ele>390.5</ele>
        <time>2012-04-01T09:47:47Z</time>
      </trkpt>
      <trkpt lat="45.60015" lon="5.93355">
        <ele>386</ele>
        <time>2012-04-01T09:47:52Z</time>
      </trkpt>
      <trkpt lat="45.5999" lon="5.93325">
        <ele>377.1</ele>
        <time>2012-04-01T09:47:57Z</time>
      </trkpt>
      <trkpt lat="45.59974" lon="5.93271">
        <ele>372</ele>
        <time>2012-04-01T09:48:02Z</time>
      </trkpt>
      <trkpt lat="45.59939" lon="5.93237">
        <ele>369.6</ele>
        <time>2012-04-01T09:48:07Z</time>
      </trkpt>
      <trkpt lat="45.59911" lon="5.93198">
        <ele>365</ele>
        <time>2012-04-01T09:48:12Z</time>
      </trkpt>
      <trkpt lat="45.59902" lon="5.93159">
        <ele>358.3</ele>
        <time>2012-04-01T09:48:17Z</time>
      </trkpt>
      <trkpt lat="45.59877" lon="5.93121">
        <ele>353.2</ele>
        <time>2012-04-01T09:48:22Z</time>
      </trkpt>
      <trkpt lat="45.59847" lon="5.93072">
        <ele>354.3</ele>
        <time>2012-04-01T09:48:27Z</time>
      </trkpt>
      <trkpt lat="45.59845" lon="5.9302">
        <ele>353.9</ele>
        <time>2012-04-01T09:48:32Z</time>
      </trkpt>
      <trkpt lat="45.59835" lon="5.92973">
        <ele>352.9</ele>
        <time>2012-04-01T09:48:37Z</time>
      </trkpt>
      <trkpt lat="45.59827" lon="5.92927">
        <ele>352.6</ele>
        <time>2012-04-01T09:48:42Z</time>
      </trkpt>
      <trkpt lat="45.59825" lon="5.92884">
        <ele>352.5</ele>
        <time>2012-04-01T09:48:47Z</time>
      </trkpt>
      <trkpt lat="45.59823" lon="5.92857">
        <ele>352.6</ele>
        <time>2012-04-01T09:48:52Z</time>
      </trkpt>
      <trkpt lat="45.59823" lon="5.92826">
        <ele>351.4</ele>
        <time>2012-04-01T09:48:57Z</time>
      </trkpt>
      <trkpt lat="45.59845" lon="5.92819">
        <ele>348.8</ele>
        <time>2012-04-01T09:49:02Z</time>
      </trkpt>
      <trkpt lat="45.59877" lon="5.92835">
        <ele>345.4</ele>
        <time>2012-04-01T09:49:07Z</time>
      </trkpt>
      <trkpt lat="45.59912" lon="5.92825">
        <ele>341.5</ele>
        <time>2012-04-01T09:49:12Z</time>
      </trkpt>
      <trkpt lat="45.59934" lon="5.92804">
        <ele>339.1</ele>
        <time>2012-04-01T09:49:17Z</time>
      </trkpt>
      <trkpt lat="45.59933" lon="5.92834">
        <ele>336.4</ele>
        <time>2012-04-01T09:49:22Z</time>
      </trkpt>
      <trkpt lat="45.59947" lon="5.92879">
        <ele>334.8</ele>
        <time>2012-04-01T09:49:27Z</time>
      </trkpt>
      <trkpt lat="45.59987" lon="5.92915">
        <ele>330.4</ele>
        <time>2012-04-01T09:49:32Z</time>
      </trkpt>
      <trkpt lat="45.60034" lon="5.92925">
        <ele>328.1</ele>
        <time>2012-04-01T09:49:37Z</time>
      </trkpt>
      <trkpt lat="45.60062" lon="5.9293">
        <ele>327</ele>
        <time>2012-04-01T09:49:42Z</time>
      </trkpt>
      <trkpt lat="45.60082" lon="5.9294">
        <ele>325.9</ele>
        <time>2012-04-01T09:49:47Z</time>
      </trkpt>
      <trkpt lat="45.60104" lon="5.92951">
        <ele>323.8</ele>
        <time>2012-04-01T09:49:52Z</time>
      </trkpt>
      <trkpt lat="45.60135" lon="5.92964">
        <ele>323.4</ele>
        <time>2012-04-01T09:49:57Z</time>
      </trkpt>
      <trkpt lat="45.60164" lon="5.92973">
        <ele>323.3</ele>
        <time>2012-04-01T09:50:02Z</time>
      </trkpt>
      <trkpt lat="45.60193" lon="5.92976">
        <ele>322.5</ele>
        <time>2012-04-01T09:50:07Z</time>
      </trkpt>
      <trkpt lat="45.60224" lon="5.92973">
        <ele>321</ele>
        <time>2012-04-01T09:50:12Z</time>
      </trkpt>
      <trkpt lat="45.60261" lon="5.92974">
        <ele>318.4</ele>
        <time>2012-04-01T09:50:17Z</time>
      </trkpt>
      <trkpt lat="45.60298" lon="5.92982">
        <ele>316.9</ele>
        <time>2012-04-01T09:50:22Z</time>
      </trkpt>
      <trkpt lat="45.60328" lon="5.92989">
        <ele>316.2</ele>
        <time>2012-04-01T09:50:27Z</time>
      </trkpt>
      <trkpt lat="45.60367" lon="5.92994">
        <ele>313.8</ele>
        <time>2012-04-01T09:50:32Z</time>
      </trkpt>
      <trkpt lat="45.60411" lon="5.93005">
        <ele>312</ele>
        <time>2012-04-01T09:50:37Z</time>
      </trkpt>
      <trkpt lat="45.60443" lon="5.93019">
        <ele>312</ele>
        <time>2012-04-01T09:50:42Z</time>
      </trkpt>
      <trkpt lat="45.6048" lon="5.93043">
        <ele>307.4</ele>
        <time>2012-04-01T09:50:47Z</time>
      </trkpt>
      <trkpt lat="45.60525" lon="5.9305">
        <ele>307.4</ele>
        <time>2012-04-01T09:50:52Z</time>
      </trkpt>
      <trkpt lat="45.60548" lon="5.9306">
        <ele>309.1</ele>
        <time>2012-04-01T09:50:57Z</time>
      </trkpt>
      <trkpt lat="45.60572" lon="5.93071">
        <ele>308.9</ele>
        <time>2012-04-01T09:51:02Z</time>
      </trkpt>
      <trkpt lat="45.60605" lon="5.93079">
        <ele>307.9</ele>
        <time>2012-04-01T09:51:07Z</time>
      </trkpt>
      <trkpt lat="45.60634" lon="5.93088">
        <ele>307.7</ele>
        <time>2012-04-01T09:51:12Z</time>
      </trkpt>
      <trkpt lat="45.6066" lon="5.93098">
        <ele>306.7</ele>
        <time>2012-04-01T09:51:17Z</time>
      </trkpt>
      <trkpt lat="45.60688" lon="5.93104">
        <ele>306</ele>
        <time>2012-04-01T09:51:22Z</time>
      </trkpt>
      <trkpt lat="45.60716" lon="5.93106">
        <ele>305.2</ele>
        <time>2012-04-01T09:51:27Z</time>
      </trkpt>
      <trkpt lat="45.60741" lon="5.93107">
        <ele>304</ele>
        <time>2012-04-01T09:51:32Z</time>
      </trkpt>
      <trkpt lat="45.60785" lon="5.93116">
        <ele>301.6</ele>
        <time>2012-04-01T09:51:37Z</time>
      </trkpt>
      <trkpt lat="45.60817" lon="5.93142">
        <ele>300.8</ele>
        <time>2012-04-01T09:51:42Z</time>
      </trkpt>
      <trkpt lat="45.60849" lon="5.93143">
        <ele>300.4</ele>
        <time>2012-04-01T09:51:47Z</time>
      </trkpt>
      <trkpt lat="45.60881" lon="5.93136">
        <ele>301.1</ele>
        <time>2012-04-01T09:51:52Z</time>
      </trkpt>
      <trkpt lat="45.60911" lon="5.9313">
        <ele>300.7</ele>
        <time>2012-04-01T09:51:57Z</time>
      </trkpt>
      <trkpt lat="45.60935" lon="5.93126">
        <ele>300.4</ele>
        <time>2012-04-01T09:52:02Z</time>
      </trkpt>
      <trkpt lat="45.60965" lon="5.9312">
        <ele>299.5</ele>
        <time>2012-04-01T09:52:07Z</time>
      </trkpt>
      <trkpt lat="45.61" lon="5.93112">
        <ele>299.1</ele>
        <time>2012-04-01T09:52:12Z</time>
      </trkpt>
      <trkpt lat="45.61026" lon="5.93105">
        <ele>299.1</ele>
        <time>2012-04-01T09:52:17Z</time>
      </trkpt>
      <trkpt lat="45.61046" lon="5.93105">
        <ele>299.1</ele>
        <time>2012-04-01T09:52:22Z</time>
      </trkpt>
      <trkpt lat="45.61048" lon="5.9312">
        <ele>300.6</ele>
        <time>2012-04-01T09:52:27Z</time>
      </trkpt>
      <trkpt lat="45.61046" lon="5.93131">
        <ele>301.4</ele>
        <time>2012-04-01T09:52:32Z</time>
      </trkpt>
      <trkpt lat="45.61046" lon="5.93142">
        <ele>302.4</ele>
        <time>2012-04-01T09:52:37Z</time>
      </trkpt>
      <trkpt lat="45.6105" lon="5.93153">
        <ele>303.9</ele>
        <time>2012-04-01T09:52:42Z</time>
      </trkpt>
      <trkpt lat="45.61056" lon="5.93163">
        <ele>305.5</ele>
        <time>2012-04-01T09:52:47Z</time>
      </trkpt>
      <trkpt lat="45.6106" lon="5.93174">
        <ele>307.2</ele>
        <time>2012-04-01T09:52:52Z</time>
      </trkpt>
      <trkpt lat="45.61063" lon="5.93184">
        <ele>308.7</ele>
        <time>2012-04-01T09:52:57Z</time>
      </trkpt>
      <trkpt lat="45.61067" lon="5.93194">
        <ele>310.3</ele>
        <time>2012-04-01T09:53:02Z</time>
      </trkpt>
      <trkpt lat="45.61072" lon="5.932">
        <ele>311.6</ele>
        <time>2012-04-01T09:53:07Z</time>
      </trkpt>
      <trkpt lat="45.6108" lon="5.93208">
        <ele>313.7</ele>
        <time>2012-04-01T09:53:12Z</time>
      </trkpt>
      <trkpt lat="45.61086" lon="5.93214">
        <ele>315.3</ele>
        <time>2012-04-01T09:53:17Z</time>
      </trkpt>
      <trkpt lat="45.61093" lon="5.9322">
        <ele>316.4</ele>
        <time>2012-04-01T09:53:22Z</time>
      </trkpt>
      <trkpt lat="45.61099" lon="5.93226">
        <ele>317.7</ele>
        <time>2012-04-01T09:53:27Z</time>
      </trkpt>
      <trkpt lat="45.61106" lon="5.93231">
        <ele>318.8</ele>
        <time>2012-04-01T09:53:32Z</time>
      </trkpt>
      <trkpt lat="45.61112" lon="5.93234">
        <ele>319.6</ele>
        <time>2012-04-01T09:53:37Z</time>
      </trkpt>
      <trkpt lat="45.61121" lon="5.93237">
        <ele>320.5</ele>
        <time>2012-04-01T09:53:42Z</time>
      </trkpt>
      <trkpt lat="45.61129" lon="5.93241">
        <ele>321.5</ele>
        <time>2012-04-01T09:53:47Z</time>
      </trkpt>
      <trkpt lat="45.6114" lon="5.93245">
        <ele>322.8</ele>
        <time>2012-04-01T09:53:52Z</time>
      </trkpt>
      <trkpt lat="45.61148" lon="5.93246">
        <ele>324</ele>
        <time>2012-04-01T09:53:57Z</time>
      </trkpt>
      <trkpt lat="45.61156" lon="5.93247">
        <ele>325</ele>
        <time>2012-04-01T09:54:02Z</time>
      </trkpt>
      <trkpt lat="45.61163" lon="5.9325">
        <ele>326.5</ele>
        <time>2012-04-01T09:54:07Z</time>
      </trkpt>
      <trkpt lat="45.6117" lon="5.9325">
        <ele>327.1</ele>
        <time>2012-04-01T09:54:12Z</time>
      </trkpt>
      <trkpt lat="45.6118" lon="5.93255">
        <ele>328.8</ele>
        <time>2012-04-01T09:54:17Z</time>
      </trkpt>
      <trkpt lat="45.61188" lon="5.93257">
        <ele>330.1</ele>
        <time>2012-04-01T09:54:22Z</time>
      </trkpt>
      <trkpt lat="45.61195" lon="5.93261">
        <ele>331.5</ele>
        <time>2012-04-01T09:54:27Z</time>
      </trkpt>
      <trkpt lat="45.61203" lon="5.93262">
        <ele>331.9</ele>
        <time>2012-04-01T09:54:32Z</time>
      </trkpt>
      <trkpt lat="45.61211" lon="5.93266">
        <ele>332.7</ele>
        <time>2012-04-01T09:54:37Z</time>
      </trkpt>
      <trkpt lat="45.61218" lon="5.93268">
        <ele>333.3</ele>
        <time>2012-04-01T09:54:42Z</time>
      </trkpt>
      <trkpt lat="45.61226" lon="5.93274">
        <ele>334.8</ele>
        <time>2012-04-01T09:54:47Z</time>
      </trkpt>
      <trkpt lat="45.61236" lon="5.9328">
        <ele>335.7</ele>
        <time>2012-04-01T09:54:52Z</time>
      </trkpt>
      <trkpt lat="45.61244" lon="5.93287">
        <ele>337</ele>
        <time>2012-04-01T09:54:57Z</time>
      </trkpt>
      <trkpt lat="45.61252" lon="5.93292">
        <ele>338.2</ele>
        <time>2012-04-01T09:55:02Z</time>
      </trkpt>
      <trkpt lat="45.61259" lon="5.93298">
        <ele>340</ele>
        <time>2012-04-01T09:55:07Z</time>
      </trkpt>
      <trkpt lat="45.61265" lon="5.93303">
        <ele>341.2</ele>
        <time>2012-04-01T09:55:12Z</time>
      </trkpt>
      <trkpt lat="45.61274" lon="5.93309">
        <ele>342.8</ele>
        <time>2012-04-01T09:55:17Z</time>
      </trkpt>
      <trkpt lat="45.61283" lon="5.93314">
        <ele>344.5</ele>
        <time>2012-04-01T09:55:22Z</time>
      </trkpt>
      <trkpt lat="45.61293" lon="5.93321">
        <ele>346.5</ele>
        <time>2012-04-01T09:55:27Z</time>
      </trkpt>
      <trkpt lat="45.61301" lon="5.93328">
        <ele>348.6</ele>
        <time>2012-04-01T09:55:32Z</time>
      </trkpt>
      <trkpt lat="45.6131" lon="5.93334">
        <ele>350.1</ele>
        <time>2012-04-01T09:55:37Z</time>
      </trkpt>
      <trkpt lat="45.61319" lon="5.93335">
        <ele>350.6</ele>
        <time>2012-04-01T09:55:42Z</time>
      </trkpt>
      <trkpt lat="45.61326" lon="5.93337">
        <ele>351.2</ele>
        <time>2012-04-01T09:55:47Z</time>
      </trkpt>
      <trkpt lat="45.61336" lon="5.93338">
        <ele>351.5</ele>
        <time>2012-04-01T09:55:52Z</time>
      </trkpt>
      <trkpt lat="45.61349" lon="5.93339">
        <ele>351.2</ele>
        <time>2012-04-01T09:55:57Z</time>
      </trkpt>
      <trkpt lat="45.61359" lon="5.93346">
        <ele>352.2</ele>
        <time>2012-04-01T09:56:02Z</time>
      </trkpt>
      <trkpt lat="45.61368" lon="5.93353">
        <ele>353</ele>
        <time>2012-04-01T09:56:07Z</time>
      </trkpt>
      <trkpt lat="45.61378" lon="5.93361">
        <ele>353.6</ele>
        <time>2012-04-01T09:56:12Z</time>
      </trkpt>
      <trkpt lat="45.61387" lon="5.93366">
        <ele>353.6</ele>
        <time>2012-04-01T09:56:17Z</time>
      </trkpt>
      <trkpt lat="45.61396" lon="5.93371">
        <ele>355.7</ele>
        <time>2012-04-01T09:56:22Z</time>
      </trkpt>
      <trkpt lat="45.61407" lon="5.9337">
        <ele>357.3</ele>
        <time>2012-04-01T09:56:27Z</time>
      </trkpt>
      <trkpt lat="45.61417" lon="5.93372">
        <ele>359.3</ele>
        <time>2012-04-01T09:56:32Z</time>
      </trkpt>
      <trkpt lat="45.61426" lon="5.93375">
        <ele>359.5</ele>
        <time>2012-04-01T09:56:37Z</time>
      </trkpt>
      <trkpt lat="45.61435" lon="5.93379">
        <ele>359.7</ele>
        <time>2012-04-01T09:56:42Z</time>
      </trkpt>
      <trkpt lat="45.61444" lon="5.93387">
        <ele>360.7</ele>
        <time>2012-04-01T09:56:47Z</time>
      </trkpt>
      <trkpt lat="45.61452" lon="5.93393">
        <ele>361.6</ele>
        <time>2012-04-01T09:56:52Z</time>
      </trkpt>
      <trkpt lat="45.61463" lon="5.93399">
        <ele>362.6</ele>
        <time>2012-04-01T09:56:57Z</time>
      </trkpt>
      <trkpt lat="45.61475" lon="5.93406">
        <ele>363.5</ele>
        <time>2012-04-01T09:57:02Z</time>
      </trkpt>
      <trkpt lat="45.61485" lon="5.93415">
        <ele>364.2</ele>
        <time>2012-04-01T09:57:07Z</time>
      </trkpt>
      <trkpt lat="45.61497" lon="5.93422">
        <ele>364</ele>
        <time>2012-04-01T09:57:12Z</time>
      </trkpt>
      <trkpt lat="45.61511" lon="5.93429">
        <ele>363.8</ele>
        <time>2012-04-01T09:57:17Z</time>
      </trkpt>
      <trkpt lat="45.61523" lon="5.93437">
        <ele>363.6</ele>
        <time>2012-04-01T09:57:22Z</time>
      </trkpt>
      <trkpt lat="45.6154" lon="5.93447">
        <ele>362.5</ele>
        <time>2012-04-01T09:57:27Z</time>
      </trkpt>
      <trkpt lat="45.61565" lon="5.9346">
        <ele>360.9</ele>
        <time>2012-04-01T09:57:32Z</time>
      </trkpt>
      <trkpt lat="45.61585" lon="5.93469">
        <ele>360.6</ele>
        <time>2012-04-01T09:57:37Z</time>
      </trkpt>
      <trkpt lat="45.61602" lon="5.93492">
        <ele>362.2</ele>
        <time>2012-04-01T09:57:42Z</time>
      </trkpt>
      <trkpt lat="45.6162" lon="5.935">
        <ele>362</ele>
        <time>2012-04-01T09:57:47Z</time>
      </trkpt>
      <trkpt lat="45.61636" lon="5.93506">
        <ele>362.7</ele>
        <time>2012-04-01T09:57:52Z</time>
      </trkpt>
      <trkpt lat="45.61655" lon="5.93515">
        <ele>362.5</ele>
        <time>2012-04-01T09:57:57Z</time>
      </trkpt>
      <trkpt lat="45.61677" lon="5.93501">
        <ele>359.4</ele>
        <time>2012-04-01T09:58:02Z</time>
      </trkpt>
      <trkpt lat="45.61703" lon="5.93476">
        <ele>355.6</ele>
        <time>2012-04-01T09:58:07Z</time>
      </trkpt>
      <trkpt lat="45.61721" lon="5.9349">
        <ele>355.4</ele>
        <time>2012-04-01T09:58:12Z</time>
      </trkpt>
      <trkpt lat="45.61735" lon="5.93504">
        <ele>355.7</ele>
        <time>2012-04-01T09:58:17Z</time>
      </trkpt>
      <trkpt lat="45.61749" lon="5.93516">
        <ele>355.9</ele>
        <time>2012-04-01T09:58:22Z</time>
      </trkpt>
      <trkpt lat="45.61759" lon="5.93526">
        <ele>355.5</ele>
        <time>2012-04-01T09:58:27Z</time>
      </trkpt>
      <trkpt lat="45.61775" lon="5.93546">
        <ele>355.4</ele>
        <time>2012-04-01T09:58:32Z</time>
      </trkpt>
      <trkpt lat="45.61791" lon="5.93559">
        <ele>354.5</ele>
        <time>2012-04-01T09:58:37Z</time>
      </trkpt>
      <trkpt lat="45.61813" lon="5.93572">
        <ele>353.2</ele>
        <time>2012-04-01T09:58:42Z</time>
      </trkpt>
      <trkpt lat="45.61831" lon="5.93588">
        <ele>353.2</ele>
        <time>2012-04-01T09:58:47Z</time>
      </trkpt>
      <trkpt lat="45.61848" lon="5.93597">
        <ele>353.7</ele>
        <time>2012-04-01T09:58:52Z</time>
      </trkpt>
      <trkpt lat="45.61861" lon="5.93605">
        <ele>354.3</ele>
        <time>2012-04-01T09:58:57Z</time>
      </trkpt>
      <trkpt lat="45.61878" lon="5.93609">
        <ele>354.9</ele>
        <time>2012-04-01T09:59:02Z</time>
      </trkpt>
      <trkpt lat="45.619" lon="5.93612">
        <ele>354.7</ele>
        <time>2012-04-01T09:59:07Z</time>
      </trkpt>
      <trkpt lat="45.61914" lon="5.93615">
        <ele>354.8</ele>
        <time>2012-04-01T09:59:12Z</time>
      </trkpt>
      <trkpt lat="45.61924" lon="5.93621">
        <ele>355.1</ele>
        <time>2012-04-01T09:59:17Z</time>
      </trkpt>
      <trkpt lat="45.61932" lon="5.93628">
        <ele>356</ele>
        <time>2012-04-01T09:59:22Z</time>
      </trkpt>
      <trkpt lat="45.61937" lon="5.9364">
        <ele>357.7</ele>
        <time>2012-04-01T09:59:27Z</time>
      </trkpt>
      <trkpt lat="45.61945" lon="5.9365">
        <ele>359</ele>
        <time>2012-04-01T09:59:32Z</time>
      </trkpt>
      <trkpt lat="45.61957" lon="5.93661">
        <ele>361.5</ele>
        <time>2012-04-01T09:59:37Z</time>
      </trkpt>
      <trkpt lat="45.61972" lon="5.93664">
        <ele>363.1</ele>
        <time>2012-04-01T09:59:42Z</time>
      </trkpt>
      <trkpt lat="45.61981" lon="5.93662">
        <ele>362.6</ele>
        <time>2012-04-01T09:59:47Z</time>
      </trkpt>
      <trkpt lat="45.61986" lon="5.93662">
        <ele>362.7</ele>
        <time>2012-04-01T09:59:52Z</time>
      </trkpt>
      <trkpt lat="45.61993" lon="5.93666">
        <ele>363.7</ele>
        <time>2012-04-01T09:59:57Z</time>
      </trkpt>
      <trkpt lat="45.62001" lon="5.93674">
        <ele>365.4</ele>
        <time>2012-04-01T10:00:02Z</time>
      </trkpt>
      <trkpt lat="45.6201" lon="5.93685">
        <ele>367.2</ele>
        <time>2012-04-01T10:00:07Z</time>
      </trkpt>
      <trkpt lat="45.62016" lon="5.93691">
        <ele>368.2</ele>
        <time>2012-04-01T10:00:12Z</time>
      </trkpt>
      <trkpt lat="45.62015" lon="5.93694">
        <ele>368.8</ele>
        <time>2012-04-01T10:00:17Z</time>
      </trkpt>
      <trkpt lat="45.62016" lon="5.93696">
        <ele>369.1</ele>
        <time>2012-04-01T10:00:22Z</time>
      </trkpt>
      <trkpt lat="45.62018" lon="5.93697">
        <ele>369.2</ele>
        <time>2012-04-01T10:00:27Z</time>
      </trkpt>
      <trkpt lat="45.62017" lon="5.93699">
        <ele>369.7</ele>
        <time>2012-04-01T10:00:32Z</time>
      </trkpt>
      <trkpt lat="45.62018" lon="5.93699">
        <ele>369.7</ele>
        <time>2012-04-01T10:00:37Z</time>
      </trkpt>
      <trkpt lat="45.6202" lon="5.93697">
        <ele>369</ele>
        <time>2012-04-01T10:00:42Z</time>
      </trkpt>
      <trkpt lat="45.62021" lon="5.937">
        <ele>369.5</ele>
        <time>2012-04-01T10:00:47Z</time>
      </trkpt>
      <trkpt lat="45.62023" lon="5.93701">
        <ele>369.6</ele>
        <time>2012-04-01T10:00:52Z</time>
      </trkpt>
      <trkpt lat="45.62022" lon="5.937">
        <ele>369.5</ele>
        <time>2012-04-01T10:00:57Z</time>
      </trkpt>
      <trkpt lat="45.62021" lon="5.93699">
        <ele>369.4</ele>
        <time>2012-04-01T10:01:02Z</time>
      </trkpt>
      <trkpt lat="45.62019" lon="5.93699">
        <ele>369.5</ele>
        <time>2012-04-01T10:01:07Z</time>
      </trkpt>
      <trkpt lat="45.62017" lon="5.93698">
        <ele>369.5</ele>
        <time>2012-04-01T10:01:12Z</time>
      </trkpt>
      <trkpt lat="45.62017" lon="5.93698">
        <ele>369.4</ele>
        <time>2012-04-01T10:01:17Z</time>
      </trkpt>
      <trkpt lat="45.62017" lon="5.93699">
        <ele>369.7</ele>
        <time>2012-04-01T10:01:22Z</time>
      </trkpt>
      <trkpt lat="45.62017" lon="5.93699">
        <ele>369.7</ele>
        <time>2012-04-01T10:01:27Z</time>
      </trkpt>
      <trkpt lat="45.62017" lon="5.93699">
        <ele>369.6</ele>
        <time>2012-04-01T10:01:32Z</time>
      </trkpt>
      <trkpt lat="45.62018" lon="5.93698">
        <ele>369.3</ele>
        <time>2012-04-01T10:01:37Z</time>
      </trkpt>
      <trkpt lat="45.62017" lon="5.93697">
        <ele>369.3</ele>
        <time>2012-04-01T10:01:42Z</time>
      </trkpt>
      <trkpt lat="45.62016" lon="5.93697">
        <ele>369.3</ele>
        <time>2012-04-01T10:01:47Z</time>
      </trkpt>
      <trkpt lat="45.62014" lon="5.93697">
        <ele>369.5</ele>
        <time>2012-04-01T10:01:52Z</time>
      </trkpt>
      <trkpt lat="45.62016" lon="5.93697">
        <ele>369.3</ele>
        <time>2012-04-01T10:01:57Z</time>
      </trkpt>
      <trkpt lat="45.62018" lon="5.93695">
        <ele>368.8</ele>
        <time>2012-04-01T10:02:02Z</time>
      </trkpt>
      <trkpt lat="45.62023" lon="5.93694">
        <ele>368.3</ele>
        <time>2012-04-01T10:02:07Z</time>
      </trkpt>
      <trkpt lat="45.62027" lon="5.93695">
        <ele>368.1</ele>
        <time>2012-04-01T10:02:12Z</time>
      </trkpt>
      <trkpt lat="45.62042" lon="5.93687">
        <ele>364</ele>
        <time>2012-04-01T10:02:17Z</time>
      </trkpt>
      <trkpt lat="45.62051" lon="5.93693">
        <ele>363.5</ele>
        <time>2012-04-01T10:02:22Z</time>
      </trkpt>
      <trkpt lat="45.62059" lon="5.93701">
        <ele>363.9</ele>
        <time>2012-04-01T10:02:27Z</time>
      </trkpt>
      <trkpt lat="45.62064" lon="5.93703">
        <ele>363.7</ele>
        <time>2012-04-01T10:02:32Z</time>
      </trkpt>
      <trkpt lat="45.6207" lon="5.93708">
        <ele>364</ele>
        <time>2012-04-01T10:02:37Z</time>
      </trkpt>
      <trkpt lat="45.62077" lon="5.93715">
        <ele>364.8</ele>
        <time>2012-04-01T10:02:42Z</time>
      </trkpt>
      <trkpt lat="45.62085" lon="5.93721">
        <ele>365.7</ele>
        <time>2012-04-01T10:02:47Z</time>
      </trkpt>
      <trkpt lat="45.62091" lon="5.93726">
        <ele>367.2</ele>
        <time>2012-04-01T10:02:52Z</time>
      </trkpt>
      <trkpt lat="45.62099" lon="5.93729">
        <ele>368.2</ele>
        <time>2012-04-01T10:02:57Z</time>
      </trkpt>
      <trkpt lat="45.62107" lon="5.93728">
        <ele>367.9</ele>
        <time>2012-04-01T10:03:02Z</time>
      </trkpt>
      <trkpt lat="45.62128" lon="5.93728">
        <ele>366</ele>
        <time>2012-04-01T10:03:07Z</time>
      </trkpt>
      <trkpt lat="45.62144" lon="5.93729">
        <ele>365.2</ele>
        <time>2012-04-01T10:03:12Z</time>
      </trkpt>
      <trkpt lat="45.62165" lon="5.9373">
        <ele>364.1</ele>
        <time>2012-04-01T10:03:17Z</time>
      </trkpt>
      <trkpt lat="45.62198" lon="5.93723">
        <ele>360.1</ele>
        <time>2012-04-01T10:03:22Z</time>
      </trkpt>
      <trkpt lat="45.62233" lon="5.93704">
        <ele>352.2</ele>
        <time>2012-04-01T10:03:27Z</time>
      </trkpt>
      <trkpt lat="45.62252" lon="5.93681">
        <ele>344.6</ele>
        <time>2012-04-01T10:03:32Z</time>
      </trkpt>
      <trkpt lat="45.62276" lon="5.93664">
        <ele>338.2</ele>
        <time>2012-04-01T10:03:37Z</time>
      </trkpt>
      <trkpt lat="45.6231" lon="5.93649">
        <ele>330.7</ele>
        <time>2012-04-01T10:03:42Z</time>
      </trkpt>
      <trkpt lat="45.62343" lon="5.93642">
        <ele>326.4</ele>
        <time>2012-04-01T10:03:47Z</time>
      </trkpt>
      <trkpt lat="45.62373" lon="5.9364">
        <ele>324.8</ele>
        <time>2012-04-01T10:03:52Z</time>
      </trkpt>
      <trkpt lat="45.62397" lon="5.93644">
        <ele>325.2</ele>
        <time>2012-04-01T10:03:57Z</time>
      </trkpt>
      <trkpt lat="45.62414" lon="5.93645">
        <ele>325.2</ele>
        <time>2012-04-01T10:04:02Z</time>
      </trkpt>
      <trkpt lat="45.62429" lon="5.93645">
        <ele>326.6</ele>
        <time>2012-04-01T10:04:07Z</time>
      </trkpt>
      <trkpt lat="45.62441" lon="5.93641">
        <ele>327</ele>
        <time>2012-04-01T10:04:12Z</time>
      </trkpt>
      <trkpt lat="45.62451" lon="5.93636">
        <ele>327</ele>
        <time>2012-04-01T10:04:17Z</time>
      </trkpt>
      <trkpt lat="45.62461" lon="5.93632">
        <ele>327.4</ele>
        <time>2012-04-01T10:04:22Z</time>
      </trkpt>
      <trkpt lat="45.62477" lon="5.93624">
        <ele>327.6</ele>
        <time>2012-04-01T10:04:27Z</time>
      </trkpt>
      <trkpt lat="45.62494" lon="5.93616">
        <ele>327.1</ele>
        <time>2012-04-01T10:04:32Z</time>
      </trkpt>
      <trkpt lat="45.62508" lon="5.93606">
        <ele>326.4</ele>
        <time>2012-04-01T10:04:37Z</time>
      </trkpt>
      <trkpt lat="45.62517" lon="5.93589">
        <ele>324.3</ele>
        <time>2012-04-01T10:04:42Z</time>
      </trkpt>
      <trkpt lat="45.62529" lon="5.93574">
        <ele>322.3</ele>
        <time>2012-04-01T10:04:47Z</time>
      </trkpt>
      <trkpt lat="45.62549" lon="5.93557">
        <ele>318.5</ele>
        <time>2012-04-01T10:04:52Z</time>
      </trkpt>
      <trkpt lat="45.62579" lon="5.93555">
        <ele>316.3</ele>
        <time>2012-04-01T10:04:57Z</time>
      </trkpt>
      <trkpt lat="45.62609" lon="5.93557">
        <ele>316.3</ele>
        <time>2012-04-01T10:05:02Z</time>
      </trkpt>
      <trkpt lat="45.62621" lon="5.9356">
        <ele>315.9</ele>
        <time>2012-04-01T10:05:07Z</time>
      </trkpt>
      <trkpt lat="45.62623" lon="5.9356">
        <ele>315.8</ele>
        <time>2012-04-01T10:05:12Z</time>
      </trkpt>
      <trkpt lat="45.62622" lon="5.93559">
        <ele>315.8</ele>
        <time>2012-04-01T10:05:17Z</time>
      </trkpt>
      <trkpt lat="45.62618" lon="5.93558">
        <ele>315.9</ele>
        <time>2012-04-01T10:05:22Z</time>
      </trkpt>
      <trkpt lat="45.62602" lon="5.93556">
        <ele>316.1</ele>
        <time>2012-04-01T10:05:27Z</time>
      </trkpt>
      <trkpt lat="45.62574" lon="5.93554">
        <ele>316.5</ele>
        <time>2012-04-01T10:05:32Z</time>
      </trkpt>
      <trkpt lat="45.62549" lon="5.93555">
        <ele>318.2</ele>
        <time>2012-04-01T10:05:37Z</time>
      </trkpt>
      <trkpt lat="45.62537" lon="5.93562">
        <ele>319.8</ele>
        <time>2012-04-01T10:05:42Z</time>
      </trkpt>
      <trkpt lat="45.62535" lon="5.93564">
        <ele>320.2</ele>
        <time>2012-04-01T10:05:47Z</time>
      </trkpt>
      <trkpt lat="45.62543" lon="5.93559">
        <ele>319.1</ele>
        <time>2012-04-01T10:05:52Z</time>
      </trkpt>
      <trkpt lat="45.62569" lon="5.93555">
        <ele>316.9</ele>
        <time>2012-04-01T10:05:57Z</time>
      </trkpt>
      <trkpt lat="45.62594" lon="5.93558">
        <ele>316.4</ele>
        <time>2012-04-01T10:06:02Z</time>
      </trkpt>
      <trkpt lat="45.62602" lon="5.93557">
        <ele>316.3</ele>
        <time>2012-04-01T10:06:07Z</time>
      </trkpt>
      <trkpt lat="45.62604" lon="5.93557">
        <ele>316.2</ele>
        <time>2012-04-01T10:06:12Z</time>
      </trkpt>
      <trkpt lat="45.62619" lon="5.93559">
        <ele>316</ele>
        <time>2012-04-01T10:06:17Z</time>
      </trkpt>
      <trkpt lat="45.62644" lon="5.93571">
        <ele>315.7</ele>
        <time>2012-04-01T10:06:22Z</time>
      </trkpt>
      <trkpt lat="45.62667" lon="5.9358">
        <ele>314.6</ele>
        <time>2012-04-01T10:06:27Z</time>
      </trkpt>
      <trkpt lat="45.627" lon="5.93581">
        <ele>313.4</ele>
        <time>2012-04-01T10:06:32Z</time>
      </trkpt>
      <trkpt lat="45.6273" lon="5.93578">
        <ele>311.7</ele>
        <time>2012-04-01T10:06:37Z</time>
      </trkpt>
      <trkpt lat="45.62731" lon="5.93578">
        <ele>311.8</ele>
        <time>2012-04-01T10:06:42Z</time>
      </trkpt>
      <trkpt lat="45.62731" lon="5.93578">
        <ele>311.7</ele>
        <time>2012-04-01T10:06:47Z</time>
      </trkpt>
      <trkpt lat="45.6273" lon="5.93577">
        <ele>311.7</ele>
        <time>2012-04-01T10:06:52Z</time>
      </trkpt>
      <trkpt lat="45.6273" lon="5.93576">
        <ele>311.6</ele>
        <time>2012-04-01T10:06:57Z</time>
      </trkpt>
      <trkpt lat="45.6273" lon="5.93577">
        <ele>311.6</ele>
        <time>2012-04-01T10:07:02Z</time>
      </trkpt>
      <trkpt lat="45.62731" lon="5.93577">
        <ele>311.6</ele>
        <time>2012-04-01T10:07:07Z</time>
      </trkpt>
      <trkpt lat="45.62739" lon="5.9358">
        <ele>311.5</ele>
        <time>2012-04-01T10:07:12Z</time>
      </trkpt>
      <trkpt lat="45.62752" lon="5.93581">
        <ele>310.7</ele>
        <time>2012-04-01T10:07:17Z</time>
      </trkpt>
      <trkpt lat="45.62762" lon="5.93589">
        <ele>310.9</ele>
        <time>2012-04-01T10:07:22Z</time>
      </trkpt>
      <trkpt lat="45.62772" lon="5.93604">
        <ele>311.9</ele>
        <time>2012-04-01T10:07:27Z</time>
      </trkpt>
      <trkpt lat="45.6278" lon="5.93615">
        <ele>312.6</ele>
        <time>2012-04-01T10:07:32Z</time>
      </trkpt>
      <trkpt lat="45.62792" lon="5.93628">
        <ele>314.2</ele>
        <time>2012-04-01T10:07:37Z</time>
      </trkpt>
      <trkpt lat="45.62801" lon="5.93638">
        <ele>315.2</ele>
        <time>2012-04-01T10:07:42Z</time>
      </trkpt>
      <trkpt lat="45.62812" lon="5.93646">
        <ele>316</ele>
        <time>2012-04-01T10:07:47Z</time>
      </trkpt>
      <trkpt lat="45.62822" lon="5.93651">
        <ele>316.9</ele>
        <time>2012-04-01T10:07:52Z</time>
      </trkpt>
      <trkpt lat="45.62831" lon="5.93658">
        <ele>318.3</ele>
        <time>2012-04-01T10:07:57Z</time>
      </trkpt>
      <trkpt lat="45.62839" lon="5.93663">
        <ele>319.5</ele>
        <time>2012-04-01T10:08:02Z</time>
      </trkpt>
      <trkpt lat="45.62849" lon="5.93667">
        <ele>320.6</ele>
        <time>2012-04-01T10:08:07Z</time>
      </trkpt>
      <trkpt lat="45.62862" lon="5.9367">
        <ele>322</ele>
        <time>2012-04-01T10:08:12Z</time>
      </trkpt>
      <trkpt lat="45.62873" lon="5.9367">
        <ele>323.1</ele>
        <time>2012-04-01T10:08:17Z</time>
      </trkpt>
      <trkpt lat="45.62884" lon="5.93669">
        <ele>324</ele>
        <time>2012-04-01T10:08:22Z</time>
      </trkpt>
      <trkpt lat="45.62894" lon="5.93667">
        <ele>325.3</ele>
        <time>2012-04-01T10:08:27Z</time>
      </trkpt>
      <trkpt lat="45.62903" lon="5.93665">
        <ele>326.8</ele>
        <time>2012-04-01T10:08:32Z</time>
      </trkpt>
      <trkpt lat="45.62914" lon="5.93663">
        <ele>328.7</ele>
        <time>2012-04-01T10:08:37Z</time>
      </trkpt>
      <trkpt lat="45.62924" lon="5.93657">
        <ele>329.7</ele>
        <time>2012-04-01T10:08:42Z</time>
      </trkpt>
      <trkpt lat="45.62938" lon="5.93651">
        <ele>330.8</ele>
        <time>2012-04-01T10:08:47Z</time>
      </trkpt>
      <trkpt lat="45.6295" lon="5.93648">
        <ele>331.3</ele>
        <time>2012-04-01T10:08:52Z</time>
      </trkpt>
      <trkpt lat="45.62963" lon="5.93647">
        <ele>331.6</ele>
        <time>2012-04-01T10:08:57Z</time>
      </trkpt>
      <trkpt lat="45.62975" lon="5.93647">
        <ele>332.2</ele>
        <time>2012-04-01T10:09:02Z</time>
      </trkpt>
      <trkpt lat="45.62985" lon="5.93646">
        <ele>333.4</ele>
        <time>2012-04-01T10:09:07Z</time>
      </trkpt>
      <trkpt lat="45.63001" lon="5.93644">
        <ele>335.1</ele>
        <time>2012-04-01T10:09:12Z</time>
      </trkpt>
      <trkpt lat="45.63015" lon="5.93644">
        <ele>336.3</ele>
        <time>2012-04-01T10:09:17Z</time>
      </trkpt>
      <trkpt lat="45.63028" lon="5.93646">
        <ele>337.7</ele>
        <time>2012-04-01T10:09:22Z</time>
      </trkpt>
      <trkpt lat="45.6304" lon="5.93648">
        <ele>338.4</ele>
        <time>2012-04-01T10:09:27Z</time>
      </trkpt>
      <trkpt lat="45.63051" lon="5.93652">
        <ele>339.2</ele>
        <time>2012-04-01T10:09:32Z</time>
      </trkpt>
      <trkpt lat="45.6306" lon="5.93656">
        <ele>340</ele>
        <time>2012-04-01T10:09:37Z</time>
      </trkpt>
      <trkpt lat="45.63073" lon="5.9366">
        <ele>340.9</ele>
        <time>2012-04-01T10:09:42Z</time>
      </trkpt>
      <trkpt lat="45.63086" lon="5.93663">
        <ele>341.7</ele>
        <time>2012-04-01T10:09:47Z</time>
      </trkpt>
      <trkpt lat="45.631" lon="5.93663">
        <ele>342.2</ele>
        <time>2012-04-01T10:09:52Z</time>
      </trkpt>
      <trkpt lat="45.6311" lon="5.93663">
        <ele>342.6</ele>
        <time>2012-04-01T10:09:57Z</time>
      </trkpt>
      <trkpt lat="45.63123" lon="5.93662">
        <ele>344</ele>
        <time>2012-04-01T10:10:02Z</time>
      </trkpt>
      <trkpt lat="45.63134" lon="5.93659">
        <ele>345</ele>
        <time>2012-04-01T10:10:07Z</time>
      </trkpt>
      <trkpt lat="45.63148" lon="5.93656">
        <ele>345.5</ele>
        <time>2012-04-01T10:10:12Z</time>
      </trkpt>
      <trkpt lat="45.63167" lon="5.93655">
        <ele>346.3</ele>
        <time>2012-04-01T10:10:17Z</time>
      </trkpt>
      <trkpt lat="45.63183" lon="5.9366">
        <ele>346.1</ele>
        <time>2012-04-01T10:10:22Z</time>
      </trkpt>
      <trkpt lat="45.63196" lon="5.93665">
        <ele>345.8</ele>
        <time>2012-04-01T10:10:27Z</time>
      </trkpt>
      <trkpt lat="45.63213" lon="5.93666">
        <ele>345.3</ele>
        <time>2012-04-01T10:10:32Z</time>
      </trkpt>
      <trkpt lat="45.63235" lon="5.93665">
        <ele>344.5</ele>
        <time>2012-04-01T10:10:37Z</time>
      </trkpt>
      <trkpt lat="45.63257" lon="5.93665">
        <ele>343.5</ele>
        <time>2012-04-01T10:10:42Z</time>
      </trkpt>
      <trkpt lat="45.63291" lon="5.93663">
        <ele>341.3</ele>
        <time>2012-04-01T10:10:47Z</time>
      </trkpt>
      <trkpt lat="45.63333" lon="5.93666">
        <ele>340</ele>
        <time>2012-04-01T10:10:52Z</time>
      </trkpt>
      <trkpt lat="45.63362" lon="5.93678">
        <ele>340</ele>
        <time>2012-04-01T10:10:57Z</time>
      </trkpt>
      <trkpt lat="45.63384" lon="5.93688">
        <ele>340.3</ele>
        <time>2012-04-01T10:11:02Z</time>
      </trkpt>
      <trkpt lat="45.63399" lon="5.93699">
        <ele>340.9</ele>
        <time>2012-04-01T10:11:07Z</time>
      </trkpt>
      <trkpt lat="45.63416" lon="5.93704">
        <ele>340.1</ele>
        <time>2012-04-01T10:11:12Z</time>
      </trkpt>
      <trkpt lat="45.63441" lon="5.93702">
        <ele>339.6</ele>
        <time>2012-04-01T10:11:17Z</time>
      </trkpt>
      <trkpt lat="45.63468" lon="5.93703">
        <ele>337.3</ele>
        <time>2012-04-01T10:11:22Z</time>
      </trkpt>
      <trkpt lat="45.63503" lon="5.93717">
        <ele>337.4</ele>
        <time>2012-04-01T10:11:27Z</time>
      </trkpt>
      <trkpt lat="45.63529" lon="5.93716">
        <ele>338.9</ele>
        <time>2012-04-01T10:11:32Z</time>
      </trkpt>
      <trkpt lat="45.63551" lon="5.93712">
        <ele>340.3</ele>
        <time>2012-04-01T10:11:37Z</time>
      </trkpt>
      <trkpt lat="45.6357" lon="5.9371">
        <ele>340.9</ele>
        <time>2012-04-01T10:11:42Z</time>
      </trkpt>
      <trkpt lat="45.63585" lon="5.93708">
        <ele>341</ele>
        <time>2012-04-01T10:11:47Z</time>
      </trkpt>
      <trkpt lat="45.63604" lon="5.93703">
        <ele>341.3</ele>
        <time>2012-04-01T10:11:52Z</time>
      </trkpt>
      <trkpt lat="45.63629" lon="5.937">
        <ele>341.5</ele>
        <time>2012-04-01T10:11:57Z</time>
      </trkpt>
      <trkpt lat="45.63649" lon="5.937">
        <ele>341.3</ele>
        <time>2012-04-01T10:12:02Z</time>
      </trkpt>
      <trkpt lat="45.63669" lon="5.93699">
        <ele>340.9</ele>
        <time>2012-04-01T10:12:07Z</time>
      </trkpt>
      <trkpt lat="45.63689" lon="5.93697">
        <ele>342</ele>
        <time>2012-04-01T10:12:12Z</time>
      </trkpt>
      <trkpt lat="45.63705" lon="5.93692">
        <ele>343</ele>
        <time>2012-04-01T10:12:17Z</time>
      </trkpt>
      <trkpt lat="45.63721" lon="5.93685">
        <ele>344.4</ele>
        <time>2012-04-01T10:12:22Z</time>
      </trkpt>
      <trkpt lat="45.63739" lon="5.93679">
        <ele>345.6</ele>
        <time>2012-04-01T10:12:27Z</time>
      </trkpt>
      <trkpt lat="45.63756" lon="5.9368">
        <ele>347.1</ele>
        <time>2012-04-01T10:12:32Z</time>
      </trkpt>
      <trkpt lat="45.63775" lon="5.93681">
        <ele>347.9</ele>
        <time>2012-04-01T10:12:37Z</time>
      </trkpt>
      <trkpt lat="45.63792" lon="5.93682">
        <ele>347.8</ele>
        <time>2012-04-01T10:12:42Z</time>
      </trkpt>
      <trkpt lat="45.63811" lon="5.93685">
        <ele>347.8</ele>
        <time>2012-04-01T10:12:47Z</time>
      </trkpt>
      <trkpt lat="45.63826" lon="5.93686">
        <ele>348.7</ele>
        <time>2012-04-01T10:12:52Z</time>
      </trkpt>
      <trkpt lat="45.63848" lon="5.93691">
        <ele>349.7</ele>
        <time>2012-04-01T10:12:57Z</time>
      </trkpt>
      <trkpt lat="45.63864" lon="5.93697">
        <ele>350.6</ele>
        <time>2012-04-01T10:13:02Z</time>
      </trkpt>
      <trkpt lat="45.63879" lon="5.93704">
        <ele>352.1</ele>
        <time>2012-04-01T10:13:07Z</time>
      </trkpt>
      <trkpt lat="45.63892" lon="5.93712">
        <ele>353.5</ele>
        <time>2012-04-01T10:13:12Z</time>
      </trkpt>
      <trkpt lat="45.63904" lon="5.93721">
        <ele>354.8</ele>
        <time>2012-04-01T10:13:17Z</time>
      </trkpt>
      <trkpt lat="45.63914" lon="5.93728">
        <ele>355.8</ele>
        <time>2012-04-01T10:13:22Z</time>
      </trkpt>
      <trkpt lat="45.63926" lon="5.93735">
        <ele>357.7</ele>
        <time>2012-04-01T10:13:27Z</time>
      </trkpt>
      <trkpt lat="45.63941" lon="5.93741">
        <ele>360</ele>
        <time>2012-04-01T10:13:32Z</time>
      </trkpt>
      <trkpt lat="45.63954" lon="5.93744">
        <ele>361.2</ele>
        <time>2012-04-01T10:13:37Z</time>
      </trkpt>
      <trkpt lat="45.63967" lon="5.93748">
        <ele>362.4</ele>
        <time>2012-04-01T10:13:42Z</time>
      </trkpt>
      <trkpt lat="45.63981" lon="5.93752">
        <ele>362.9</ele>
        <time>2012-04-01T10:13:47Z</time>
      </trkpt>
      <trkpt lat="45.63993" lon="5.93758">
        <ele>363.2</ele>
        <time>2012-04-01T10:13:52Z</time>
      </trkpt>
      <trkpt lat="45.64004" lon="5.93768">
        <ele>364.2</ele>
        <time>2012-04-01T10:13:57Z</time>
      </trkpt>
      <trkpt lat="45.64015" lon="5.93774">
        <ele>365.6</ele>
        <time>2012-04-01T10:14:02Z</time>
      </trkpt>
      <trkpt lat="45.64021" lon="5.93774">
        <ele>366</ele>
        <time>2012-04-01T10:14:07Z</time>
      </trkpt>
      <trkpt lat="45.64024" lon="5.93774">
        <ele>366.3</ele>
        <time>2012-04-01T10:14:12Z</time>
      </trkpt>
      <trkpt lat="45.64025" lon="5.93772">
        <ele>366</ele>
        <time>2012-04-01T10:14:17Z</time>
      </trkpt>
      <trkpt lat="45.64025" lon="5.93771">
        <ele>365.9</ele>
        <time>2012-04-01T10:14:22Z</time>
      </trkpt>
      <trkpt lat="45.64025" lon="5.9377">
        <ele>365.8</ele>
        <time>2012-04-01T10:14:27Z</time>
      </trkpt>
      <trkpt lat="45.64026" lon="5.93769">
        <ele>365.6</ele>
        <time>2012-04-01T10:14:32Z</time>
      </trkpt>
      <trkpt lat="45.64025" lon="5.93769">
        <ele>365.5</ele>
        <time>2012-04-01T10:14:37Z</time>
      </trkpt>
      <trkpt lat="45.64025" lon="5.93768">
        <ele>365.5</ele>
        <time>2012-04-01T10:14:42Z</time>
      </trkpt>
      <trkpt lat="45.64025" lon="5.93768">
        <ele>365.4</ele>
        <time>2012-04-01T10:14:47Z</time>
      </trkpt>
      <trkpt lat="45.64025" lon="5.93768">
        <ele>365.5</ele>
        <time>2012-04-01T10:14:52Z</time>
      </trkpt>
      <trkpt lat="45.64025" lon="5.93768">
        <ele>365.5</ele>
        <time>2012-04-01T10:14:57Z</time>
      </trkpt>
      <trkpt lat="45.64025" lon="5.93769">
        <ele>365.5</ele>
        <time>2012-04-01T10:15:02Z</time>
      </trkpt>
      <trkpt lat="45.64032" lon="5.93767">
        <ele>365.3</ele>
        <time>2012-04-01T10:15:07Z</time>
      </trkpt>
      <trkpt lat="45.64046" lon="5.93763">
        <ele>364.1</ele>
        <time>2012-04-01T10:15:12Z</time>
      </trkpt>
      <trkpt lat="45.64068" lon="5.93762">
        <ele>362.8</ele>
        <time>2012-04-01T10:15:17Z</time>
      </trkpt>
      <trkpt lat="45.64092" lon="5.93768">
        <ele>362.3</ele>
        <time>2012-04-01T10:15:22Z</time>
      </trkpt>
      <trkpt lat="45.64113" lon="5.93772">
        <ele>362.1</ele>
        <time>2012-04-01T10:15:27Z</time>
      </trkpt>
      <trkpt lat="45.64126" lon="5.93773">
        <ele>361.9</ele>
        <time>2012-04-01T10:15:32Z</time>
      </trkpt>
      <trkpt lat="45.64133" lon="5.93782">
        <ele>362.8</ele>
        <time>2012-04-01T10:15:37Z</time>
      </trkpt>
      <trkpt lat="45.64135" lon="5.93807">
        <ele>366</ele>
        <time>2012-04-01T10:15:42Z</time>
      </trkpt>
      <trkpt lat="45.64145" lon="5.93813">
        <ele>367.5</ele>
        <time>2012-04-01T10:15:47Z</time>
      </trkpt>
      <trkpt lat="45.64158" lon="5.93812">
        <ele>368.3</ele>
        <time>2012-04-01T10:15:52Z</time>
      </trkpt>
      <trkpt lat="45.64172" lon="5.93807">
        <ele>368.4</ele>
        <time>2012-04-01T10:15:57Z</time>
      </trkpt>
      <trkpt lat="45.64186" lon="5.93802">
        <ele>368.1</ele>
        <time>2012-04-01T10:16:02Z</time>
      </trkpt>
      <trkpt lat="45.64207" lon="5.93796">
        <ele>367.6</ele>
        <time>2012-04-01T10:16:07Z</time>
      </trkpt>
      <trkpt lat="45.64226" lon="5.93795">
        <ele>367.7</ele>
        <time>2012-04-01T10:16:12Z</time>
      </trkpt>
      <trkpt lat="45.64248" lon="5.93795">
        <ele>368.2</ele>
        <time>2012-04-01T10:16:17Z</time>
      </trkpt>
      <trkpt lat="45.64263" lon="5.93804">
        <ele>369.4</ele>
        <time>2012-04-01T10:16:22Z</time>
      </trkpt>
      <trkpt lat="45.6428" lon="5.93802">
        <ele>370</ele>
        <time>2012-04-01T10:16:27Z</time>
      </trkpt>
      <trkpt lat="45.64294" lon="5.93801">
        <ele>370.4</ele>
        <time>2012-04-01T10:16:32Z</time>
      </trkpt>
      <trkpt lat="45.64314" lon="5.938">
        <ele>371</ele>
        <time>2012-04-01T10:16:37Z</time>
      </trkpt>
      <trkpt lat="45.64329" lon="5.93797">
        <ele>371.3</ele>
        <time>2012-04-01T10:16:42Z</time>
      </trkpt>
      <trkpt lat="45.64339" lon="5.93808">
        <ele>372.6</ele>
        <time>2012-04-01T10:16:47Z</time>
      </trkpt>
      <trkpt lat="45.64347" lon="5.93823">
        <ele>374.5</ele>
        <time>2012-04-01T10:16:52Z</time>
      </trkpt>
      <trkpt lat="45.64362" lon="5.93828">
        <ele>376.4</ele>
        <time>2012-04-01T10:16:57Z</time>
      </trkpt>
      <trkpt lat="45.64378" lon="5.9383">
        <ele>377.2</ele>
        <time>2012-04-01T10:17:02Z</time>
      </trkpt>
      <trkpt lat="45.64391" lon="5.93834">
        <ele>378</ele>
        <time>2012-04-01T10:17:07Z</time>
      </trkpt>
      <trkpt lat="45.64412" lon="5.93841">
        <ele>378.7</ele>
        <time>2012-04-01T10:17:12Z</time>
      </trkpt>
      <trkpt lat="45.64429" lon="5.93847">
        <ele>379.9</ele>
        <time>2012-04-01T10:17:17Z</time>
      </trkpt>
      <trkpt lat="45.64446" lon="5.93853">
        <ele>380.7</ele>
        <time>2012-04-01T10:17:22Z</time>
      </trkpt>
      <trkpt lat="45.64461" lon="5.93863">
        <ele>381</ele>
        <time>2012-04-01T10:17:27Z</time>
      </trkpt>
      <trkpt lat="45.64477" lon="5.93875">
        <ele>381.5</ele>
        <time>2012-04-01T10:17:32Z</time>
      </trkpt>
      <trkpt lat="45.64489" lon="5.93887">
        <ele>381.9</ele>
        <time>2012-04-01T10:17:37Z</time>
      </trkpt>
      <trkpt lat="45.64507" lon="5.939">
        <ele>382.7</ele>
        <time>2012-04-01T10:17:42Z</time>
      </trkpt>
      <trkpt lat="45.64526" lon="5.93917">
        <ele>384.1</ele>
        <time>2012-04-01T10:17:47Z</time>
      </trkpt>
      <trkpt lat="45.64541" lon="5.93929">
        <ele>385</ele>
        <time>2012-04-01T10:17:52Z</time>
      </trkpt>
      <trkpt lat="45.64553" lon="5.93939">
        <ele>385.6</ele>
        <time>2012-04-01T10:17:57Z</time>
      </trkpt>
      <trkpt lat="45.64562" lon="5.93955">
        <ele>387.8</ele>
        <time>2012-04-01T10:18:02Z</time>
      </trkpt>
      <trkpt lat="45.64566" lon="5.93963">
        <ele>389.1</ele>
        <time>2012-04-01T10:18:07Z</time>
      </trkpt>
      <trkpt lat="45.6457" lon="5.93974">
        <ele>390.7</ele>
        <time>2012-04-01T10:18:12Z</time>
      </trkpt>
      <trkpt lat="45.64576" lon="5.93987">
        <ele>392</ele>
        <time>2012-04-01T10:18:17Z</time>
      </trkpt>
      <trkpt lat="45.64585" lon="5.94004">
        <ele>393.6</ele>
        <time>2012-04-01T10:18:22Z</time>
      </trkpt>
      <trkpt lat="45.64597" lon="5.94011">
        <ele>395.1</ele>
        <time>2012-04-01T10:18:27Z</time>
      </trkpt>
      <trkpt lat="45.64611" lon="5.94012">
        <ele>395.7</ele>
        <time>2012-04-01T10:18:32Z</time>
      </trkpt>
      <trkpt lat="45.64626" lon="5.94011">
        <ele>396.2</ele>
        <time>2012-04-01T10:18:37Z</time>
      </trkpt>
      <trkpt lat="45.64639" lon="5.94011">
        <ele>396.6</ele>
        <time>2012-04-01T10:18:42Z</time>
      </trkpt>
      <trkpt lat="45.64655" lon="5.94013">
        <ele>397.1</ele>
        <time>2012-04-01T10:18:47Z</time>
      </trkpt>
      <trkpt lat="45.64673" lon="5.94014">
        <ele>397.6</ele>
        <time>2012-04-01T10:18:52Z</time>
      </trkpt>
      <trkpt lat="45.64688" lon="5.94017">
        <ele>398.3</ele>
        <time>2012-04-01T10:18:57Z</time>
      </trkpt>
      <trkpt lat="45.64704" lon="5.9402">
        <ele>399</ele>
        <time>2012-04-01T10:19:02Z</time>
      </trkpt>
      <trkpt lat="45.6472" lon="5.94023">
        <ele>399.5</ele>
        <time>2012-04-01T10:19:07Z</time>
      </trkpt>
      <trkpt lat="45.64731" lon="5.94027">
        <ele>400.5</ele>
        <time>2012-04-01T10:19:12Z</time>
      </trkpt>
      <trkpt lat="45.64745" lon="5.94035">
        <ele>401.9</ele>
        <time>2012-04-01T10:19:17Z</time>
      </trkpt>
      <trkpt lat="45.64754" lon="5.94049">
        <ele>402.6</ele>
        <time>2012-04-01T10:19:22Z</time>
      </trkpt>
      <trkpt lat="45.64758" lon="5.94073">
        <ele>404.5</ele>
        <time>2012-04-01T10:19:27Z</time>
      </trkpt>
      <trkpt lat="45.64758" lon="5.94092">
        <ele>406.3</ele>
        <time>2012-04-01T10:19:32Z</time>
      </trkpt>
      <trkpt lat="45.64757" lon="5.9411">
        <ele>407.7</ele>
        <time>2012-04-01T10:19:37Z</time>
      </trkpt>
      <trkpt lat="45.64759" lon="5.94126">
        <ele>409.3</ele>
        <time>2012-04-01T10:19:42Z</time>
      </trkpt>
      <trkpt lat="45.64766" lon="5.94133">
        <ele>409.8</ele>
        <time>2012-04-01T10:19:47Z</time>
      </trkpt>
      <trkpt lat="45.64782" lon="5.94138">
        <ele>409.7</ele>
        <time>2012-04-01T10:19:52Z</time>
      </trkpt>
      <trkpt lat="45.64801" lon="5.94143">
        <ele>409.6</ele>
        <time>2012-04-01T10:19:57Z</time>
      </trkpt>
      <trkpt lat="45.64813" lon="5.94147">
        <ele>410</ele>
        <time>2012-04-01T10:20:02Z</time>
      </trkpt>
      <trkpt lat="45.64828" lon="5.9415">
        <ele>410.5</ele>
        <time>2012-04-01T10:20:07Z</time>
      </trkpt>
      <trkpt lat="45.64844" lon="5.94152">
        <ele>411</ele>
        <time>2012-04-01T10:20:12Z</time>
      </trkpt>
      <trkpt lat="45.64857" lon="5.94153">
        <ele>411.4</ele>
        <time>2012-04-01T10:20:17Z</time>
      </trkpt>
      <trkpt lat="45.64868" lon="5.94155">
        <ele>412.1</ele>
        <time>2012-04-01T10:20:22Z</time>
      </trkpt>
      <trkpt lat="45.64879" lon="5.94156">
        <ele>412.7</ele>
        <time>2012-04-01T10:20:27Z</time>
      </trkpt>
      <trkpt lat="45.64897" lon="5.94157">
        <ele>413.5</ele>
        <time>2012-04-01T10:20:32Z</time>
      </trkpt>
      <trkpt lat="45.64917" lon="5.94158">
        <ele>414.1</ele>
        <time>2012-04-01T10:20:37Z</time>
      </trkpt>
      <trkpt lat="45.64934" lon="5.94159">
        <ele>414.9</ele>
        <time>2012-04-01T10:20:42Z</time>
      </trkpt>
      <trkpt lat="45.64949" lon="5.94159">
        <ele>415.4</ele>
        <time>2012-04-01T10:20:47Z</time>
      </trkpt>
      <trkpt lat="45.64967" lon="5.9416">
        <ele>415.6</ele>
        <time>2012-04-01T10:20:52Z</time>
      </trkpt>
      <trkpt lat="45.64989" lon="5.94161">
        <ele>415.3</ele>
        <time>2012-04-01T10:20:57Z</time>
      </trkpt>
      <trkpt lat="45.65021" lon="5.94162">
        <ele>415.1</ele>
        <time>2012-04-01T10:21:02Z</time>
      </trkpt>
      <trkpt lat="45.65044" lon="5.94163">
        <ele>414.3</ele>
        <time>2012-04-01T10:21:07Z</time>
      </trkpt>
      <trkpt lat="45.65067" lon="5.94166">
        <ele>413.5</ele>
        <time>2012-04-01T10:21:12Z</time>
      </trkpt>
      <trkpt lat="45.65092" lon="5.94168">
        <ele>413.1</ele>
        <time>2012-04-01T10:21:17Z</time>
      </trkpt>
      <trkpt lat="45.65112" lon="5.94169">
        <ele>413.2</ele>
        <time>2012-04-01T10:21:22Z</time>
      </trkpt>
      <trkpt lat="45.65133" lon="5.94169">
        <ele>412.6</ele>
        <time>2012-04-01T10:21:27Z</time>
      </trkpt>
      <trkpt lat="45.65145" lon="5.9417">
        <ele>412.3</ele>
        <time>2012-04-01T10:21:32Z</time>
      </trkpt>
      <trkpt lat="45.65147" lon="5.9417">
        <ele>412.1</ele>
        <time>2012-04-01T10:21:37Z</time>
      </trkpt>
      <trkpt lat="45.65147" lon="5.94169">
        <ele>412</ele>
        <time>2012-04-01T10:21:42Z</time>
      </trkpt>
      <trkpt lat="45.65146" lon="5.94169">
        <ele>412</ele>
        <time>2012-04-01T10:21:47Z</time>
      </trkpt>
      <trkpt lat="45.65146" lon="5.94169">
        <ele>412</ele>
        <time>2012-04-01T10:21:52Z</time>
      </trkpt>
      <trkpt lat="45.65149" lon="5.94167">
        <ele>411.7</ele>
        <time>2012-04-01T10:21:57Z</time>
      </trkpt>
      <trkpt lat="45.65158" lon="5.94168">
        <ele>411.4</ele>
        <time>2012-04-01T10:22:02Z</time>
      </trkpt>
      <trkpt lat="45.65185" lon="5.94173">
        <ele>410</ele>
        <time>2012-04-01T10:22:07Z</time>
      </trkpt>
      <trkpt lat="45.65211" lon="5.94185">
        <ele>408.8</ele>
        <time>2012-04-01T10:22:12Z</time>
      </trkpt>
      <trkpt lat="45.65233" lon="5.94202">
        <ele>409.3</ele>
        <time>2012-04-01T10:22:17Z</time>
      </trkpt>
      <trkpt lat="45.65258" lon="5.94205">
        <ele>409.7</ele>
        <time>2012-04-01T10:22:22Z</time>
      </trkpt>
      <trkpt lat="45.65277" lon="5.94205">
        <ele>410.1</ele>
        <time>2012-04-01T10:22:27Z</time>
      </trkpt>
      <trkpt lat="45.65304" lon="5.94207">
        <ele>412.2</ele>
        <time>2012-04-01T10:22:32Z</time>
      </trkpt>
      <trkpt lat="45.65324" lon="5.94208">
        <ele>413.4</ele>
        <time>2012-04-01T10:22:37Z</time>
      </trkpt>
      <trkpt lat="45.65341" lon="5.94208">
        <ele>414.3</ele>
        <time>2012-04-01T10:22:42Z</time>
      </trkpt>
      <trkpt lat="45.65358" lon="5.94206">
        <ele>415</ele>
        <time>2012-04-01T10:22:47Z</time>
      </trkpt>
      <trkpt lat="45.65376" lon="5.94204">
        <ele>416.1</ele>
        <time>2012-04-01T10:22:52Z</time>
      </trkpt>
      <trkpt lat="45.6539" lon="5.94202">
        <ele>416.8</ele>
        <time>2012-04-01T10:22:57Z</time>
      </trkpt>
      <trkpt lat="45.65406" lon="5.942">
        <ele>417.8</ele>
        <time>2012-04-01T10:23:02Z</time>
      </trkpt>
      <trkpt lat="45.65425" lon="5.94205">
        <ele>419.3</ele>
        <time>2012-04-01T10:23:07Z</time>
      </trkpt>
      <trkpt lat="45.65433" lon="5.94222">
        <ele>420.9</ele>
        <time>2012-04-01T10:23:12Z</time>
      </trkpt>
      <trkpt lat="45.65439" lon="5.94239">
        <ele>422.7</ele>
        <time>2012-04-01T10:23:17Z</time>
      </trkpt>
      <trkpt lat="45.65453" lon="5.94246">
        <ele>423.5</ele>
        <time>2012-04-01T10:23:22Z</time>
      </trkpt>
      <trkpt lat="45.65469" lon="5.94248">
        <ele>423.7</ele>
        <time>2012-04-01T10:23:27Z</time>
      </trkpt>
      <trkpt lat="45.65483" lon="5.9425">
        <ele>423.9</ele>
        <time>2012-04-01T10:23:32Z</time>
      </trkpt>
      <trkpt lat="45.65504" lon="5.94254">
        <ele>424.5</ele>
        <time>2012-04-01T10:23:37Z</time>
      </trkpt>
      <trkpt lat="45.65521" lon="5.94257">
        <ele>425.3</ele>
        <time>2012-04-01T10:23:42Z</time>
      </trkpt>
      <trkpt lat="45.65539" lon="5.94261">
        <ele>426.5</ele>
        <time>2012-04-01T10:23:47Z</time>
      </trkpt>
      <trkpt lat="45.65557" lon="5.94261">
        <ele>427.4</ele>
        <time>2012-04-01T10:23:52Z</time>
      </trkpt>
      <trkpt lat="45.65576" lon="5.94259">
        <ele>427.9</ele>
        <time>2012-04-01T10:23:57Z</time>
      </trkpt>
      <trkpt lat="45.65591" lon="5.94258">
        <ele>428.4</ele>
        <time>2012-04-01T10:24:02Z</time>
      </trkpt>
      <trkpt lat="45.65611" lon="5.94257">
        <ele>428.9</ele>
        <time>2012-04-01T10:24:07Z</time>
      </trkpt>
      <trkpt lat="45.65634" lon="5.94255">
        <ele>429.3</ele>
        <time>2012-04-01T10:24:12Z</time>
      </trkpt>
      <trkpt lat="45.65653" lon="5.94254">
        <ele>430</ele>
        <time>2012-04-01T10:24:17Z</time>
      </trkpt>
      <trkpt lat="45.65671" lon="5.94253">
        <ele>430.7</ele>
        <time>2012-04-01T10:24:22Z</time>
      </trkpt>
      <trkpt lat="45.65689" lon="5.94252">
        <ele>431</ele>
        <time>2012-04-01T10:24:27Z</time>
      </trkpt>
      <trkpt lat="45.65703" lon="5.94248">
        <ele>431.3</ele>
        <time>2012-04-01T10:24:32Z</time>
      </trkpt>
      <trkpt lat="45.65721" lon="5.94235">
        <ele>430.7</ele>
        <time>2012-04-01T10:24:37Z</time>
      </trkpt>
      <trkpt lat="45.65745" lon="5.94215">
        <ele>428.3</ele>
        <time>2012-04-01T10:24:42Z</time>
      </trkpt>
      <trkpt lat="45.65784" lon="5.94193">
        <ele>426.1</ele>
        <time>2012-04-01T10:24:47Z</time>
      </trkpt>
      <trkpt lat="45.65817" lon="5.94177">
        <ele>425.9</ele>
        <time>2012-04-01T10:24:52Z</time>
      </trkpt>
      <trkpt lat="45.65845" lon="5.94168">
        <ele>425.6</ele>
        <time>2012-04-01T10:24:57Z</time>
      </trkpt>
      <trkpt lat="45.6587" lon="5.94166">
        <ele>426</ele>
        <time>2012-04-01T10:25:02Z</time>
      </trkpt>
      <trkpt lat="45.65888" lon="5.94162">
        <ele>425.5</ele>
        <time>2012-04-01T10:25:07Z</time>
      </trkpt>
      <trkpt lat="45.65917" lon="5.9415">
        <ele>424.2</ele>
        <time>2012-04-01T10:25:12Z</time>
      </trkpt>
      <trkpt lat="45.65934" lon="5.9416">
        <ele>424.8</ele>
        <time>2012-04-01T10:25:17Z</time>
      </trkpt>
      <trkpt lat="45.65961" lon="5.94171">
        <ele>425.6</ele>
        <time>2012-04-01T10:25:22Z</time>
      </trkpt>
      <trkpt lat="45.65983" lon="5.94179">
        <ele>426.8</ele>
        <time>2012-04-01T10:25:27Z</time>
      </trkpt>
      <trkpt lat="45.66002" lon="5.9419">
        <ele>428.2</ele>
        <time>2012-04-01T10:25:32Z</time>
      </trkpt>
      <trkpt lat="45.66015" lon="5.94198">
        <ele>428.8</ele>
        <time>2012-04-01T10:25:37Z</time>
      </trkpt>
      <trkpt lat="45.66029" lon="5.94211">
        <ele>429.7</ele>
        <time>2012-04-01T10:25:42Z</time>
      </trkpt>
      <trkpt lat="45.66044" lon="5.94229">
        <ele>431.2</ele>
        <time>2012-04-01T10:25:47Z</time>
      </trkpt>
      <trkpt lat="45.66057" lon="5.94242">
        <ele>432.9</ele>
        <time>2012-04-01T10:25:52Z</time>
      </trkpt>
      <trkpt lat="45.6607" lon="5.94252">
        <ele>435.2</ele>
        <time>2012-04-01T10:25:57Z</time>
      </trkpt>
      <trkpt lat="45.66082" lon="5.94261">
        <ele>436.7</ele>
        <time>2012-04-01T10:26:02Z</time>
      </trkpt>
      <trkpt lat="45.66094" lon="5.94269">
        <ele>438.3</ele>
        <time>2012-04-01T10:26:07Z</time>
      </trkpt>
      <trkpt lat="45.66103" lon="5.94275">
        <ele>439.2</ele>
        <time>2012-04-01T10:26:12Z</time>
      </trkpt>
      <trkpt lat="45.66113" lon="5.94282">
        <ele>440.2</ele>
        <time>2012-04-01T10:26:17Z</time>
      </trkpt>
      <trkpt lat="45.66125" lon="5.94289">
        <ele>441.1</ele>
        <time>2012-04-01T10:26:22Z</time>
      </trkpt>
      <trkpt lat="45.66134" lon="5.94298">
        <ele>442.2</ele>
        <time>2012-04-01T10:26:27Z</time>
      </trkpt>
      <trkpt lat="45.66141" lon="5.94311">
        <ele>443.6</ele>
        <time>2012-04-01T10:26:32Z</time>
      </trkpt>
      <trkpt lat="45.66147" lon="5.94323">
        <ele>445.2</ele>
        <time>2012-04-01T10:26:37Z</time>
      </trkpt>
      <trkpt lat="45.66151" lon="5.94334">
        <ele>446.5</ele>
        <time>2012-04-01T10:26:42Z</time>
      </trkpt>
      <trkpt lat="45.66156" lon="5.94348">
        <ele>448</ele>
        <time>2012-04-01T10:26:47Z</time>
      </trkpt>
      <trkpt lat="45.66163" lon="5.94359">
        <ele>449.5</ele>
        <time>2012-04-01T10:26:52Z</time>
      </trkpt>
      <trkpt lat="45.66175" lon="5.94359">
        <ele>450</ele>
        <time>2012-04-01T10:26:57Z</time>
      </trkpt>
      <trkpt lat="45.66189" lon="5.94358">
        <ele>450.3</ele>
        <time>2012-04-01T10:27:02Z</time>
      </trkpt>
      <trkpt lat="45.66203" lon="5.94369">
        <ele>451.2</ele>
        <time>2012-04-01T10:27:07Z</time>
      </trkpt>
      <trkpt lat="45.66211" lon="5.94382">
        <ele>451.9</ele>
        <time>2012-04-01T10:27:12Z</time>
      </trkpt>
      <trkpt lat="45.66221" lon="5.94397">
        <ele>453</ele>
        <time>2012-04-01T10:27:17Z</time>
      </trkpt>
      <trkpt lat="45.66232" lon="5.94408">
        <ele>454.6</ele>
        <time>2012-04-01T10:27:22Z</time>
      </trkpt>
      <trkpt lat="45.66247" lon="5.94416">
        <ele>456.7</ele>
        <time>2012-04-01T10:27:27Z</time>
      </trkpt>
      <trkpt lat="45.66259" lon="5.94421">
        <ele>458.3</ele>
        <time>2012-04-01T10:27:32Z</time>
      </trkpt>
      <trkpt lat="45.66273" lon="5.9442">
        <ele>458.6</ele>
        <time>2012-04-01T10:27:37Z</time>
      </trkpt>
      <trkpt lat="45.66288" lon="5.94414">
        <ele>458.2</ele>
        <time>2012-04-01T10:27:42Z</time>
      </trkpt>
      <trkpt lat="45.66299" lon="5.94409">
        <ele>458.3</ele>
        <time>2012-04-01T10:27:47Z</time>
      </trkpt>
      <trkpt lat="45.66316" lon="5.94401">
        <ele>459.4</ele>
        <time>2012-04-01T10:27:52Z</time>
      </trkpt>
      <trkpt lat="45.6633" lon="5.94392">
        <ele>460.6</ele>
        <time>2012-04-01T10:27:57Z</time>
      </trkpt>
      <trkpt lat="45.6634" lon="5.9438">
        <ele>461.8</ele>
        <time>2012-04-01T10:28:02Z</time>
      </trkpt>
      <trkpt lat="45.6635" lon="5.94367">
        <ele>463</ele>
        <time>2012-04-01T10:28:07Z</time>
      </trkpt>
      <trkpt lat="45.66361" lon="5.94354">
        <ele>464.2</ele>
        <time>2012-04-01T10:28:12Z</time>
      </trkpt>
      <trkpt lat="45.66371" lon="5.94344">
        <ele>464.3</ele>
        <time>2012-04-01T10:28:17Z</time>
      </trkpt>
      <trkpt lat="45.66384" lon="5.94336">
        <ele>464.8</ele>
        <time>2012-04-01T10:28:22Z</time>
      </trkpt>
      <trkpt lat="45.66398" lon="5.94334">
        <ele>466.1</ele>
        <time>2012-04-01T10:28:27Z</time>
      </trkpt>
      <trkpt lat="45.66415" lon="5.94334">
        <ele>467.8</ele>
        <time>2012-04-01T10:28:32Z</time>
      </trkpt>
      <trkpt lat="45.66429" lon="5.94335">
        <ele>468.1</ele>
        <time>2012-04-01T10:28:37Z</time>
      </trkpt>
      <trkpt lat="45.66441" lon="5.94339">
        <ele>468.4</ele>
        <time>2012-04-01T10:28:42Z</time>
      </trkpt>
      <trkpt lat="45.66454" lon="5.94344">
        <ele>468.7</ele>
        <time>2012-04-01T10:28:47Z</time>
      </trkpt>
      <trkpt lat="45.66466" lon="5.94349">
        <ele>469.3</ele>
        <time>2012-04-01T10:28:52Z</time>
      </trkpt>
      <trkpt lat="45.66481" lon="5.94352">
        <ele>470.4</ele>
        <time>2012-04-01T10:28:57Z</time>
      </trkpt>
      <trkpt lat="45.66493" lon="5.94352">
        <ele>471</ele>
        <time>2012-04-01T10:29:02Z</time>
      </trkpt>
      <trkpt lat="45.66509" lon="5.94352">
        <ele>471.4</ele>
        <time>2012-04-01T10:29:07Z</time>
      </trkpt>
      <trkpt lat="45.66525" lon="5.94352">
        <ele>471.3</ele>
        <time>2012-04-01T10:29:12Z</time>
      </trkpt>
      <trkpt lat="45.66543" lon="5.9435">
        <ele>471.2</ele>
        <time>2012-04-01T10:29:17Z</time>
      </trkpt>
      <trkpt lat="45.66557" lon="5.94348">
        <ele>471.1</ele>
        <time>2012-04-01T10:29:22Z</time>
      </trkpt>
      <trkpt lat="45.66577" lon="5.94345">
        <ele>470.4</ele>
        <time>2012-04-01T10:29:27Z</time>
      </trkpt>
      <trkpt lat="45.66604" lon="5.94342">
        <ele>468.6</ele>
        <time>2012-04-01T10:29:32Z</time>
      </trkpt>
      <trkpt lat="45.66626" lon="5.9435">
        <ele>468.5</ele>
        <time>2012-04-01T10:29:37Z</time>
      </trkpt>
      <trkpt lat="45.6665" lon="5.94346">
        <ele>468.6</ele>
        <time>2012-04-01T10:29:42Z</time>
      </trkpt>
      <trkpt lat="45.66667" lon="5.94346">
        <ele>470.4</ele>
        <time>2012-04-01T10:29:47Z</time>
      </trkpt>
      <trkpt lat="45.66678" lon="5.94355">
        <ele>470.5</ele>
        <time>2012-04-01T10:29:52Z</time>
      </trkpt>
      <trkpt lat="45.66691" lon="5.94372">
        <ele>471.3</ele>
        <time>2012-04-01T10:29:57Z</time>
      </trkpt>
      <trkpt lat="45.667" lon="5.9439">
        <ele>472.7</ele>
        <time>2012-04-01T10:30:02Z</time>
      </trkpt>
      <trkpt lat="45.6671" lon="5.94407">
        <ele>474.6</ele>
        <time>2012-04-01T10:30:07Z</time>
      </trkpt>
      <trkpt lat="45.66716" lon="5.94418">
        <ele>475.5</ele>
        <time>2012-04-01T10:30:12Z</time>
      </trkpt>
      <trkpt lat="45.66725" lon="5.94419">
        <ele>475.2</ele>
        <time>2012-04-01T10:30:17Z</time>
      </trkpt>
      <trkpt lat="45.66736" lon="5.94416">
        <ele>475.4</ele>
        <time>2012-04-01T10:30:22Z</time>
      </trkpt>
      <trkpt lat="45.66746" lon="5.94414">
        <ele>475.6</ele>
        <time>2012-04-01T10:30:27Z</time>
      </trkpt>
      <trkpt lat="45.6676" lon="5.94412">
        <ele>475.5</ele>
        <time>2012-04-01T10:30:32Z</time>
      </trkpt>
      <trkpt lat="45.66785" lon="5.9441">
        <ele>474.8</ele>
        <time>2012-04-01T10:30:37Z</time>
      </trkpt>
      <trkpt lat="45.66809" lon="5.94409">
        <ele>474</ele>
        <time>2012-04-01T10:30:42Z</time>
      </trkpt>
      <trkpt lat="45.6683" lon="5.94405">
        <ele>474.2</ele>
        <time>2012-04-01T10:30:47Z</time>
      </trkpt>
      <trkpt lat="45.66849" lon="5.94407">
        <ele>474.9</ele>
        <time>2012-04-01T10:30:52Z</time>
      </trkpt>
      <trkpt lat="45.66861" lon="5.94409">
        <ele>475.6</ele>
        <time>2012-04-01T10:30:57Z</time>
      </trkpt>
      <trkpt lat="45.66865" lon="5.94417">
        <ele>476.9</ele>
        <time>2012-04-01T10:31:02Z</time>
      </trkpt>
      <trkpt lat="45.66861" lon="5.9443">
        <ele>478.4</ele>
        <time>2012-04-01T10:31:07Z</time>
      </trkpt>
      <trkpt lat="45.66854" lon="5.94442">
        <ele>479.4</ele>
        <time>2012-04-01T10:31:12Z</time>
      </trkpt>
      <trkpt lat="45.66851" lon="5.94456">
        <ele>480.3</ele>
        <time>2012-04-01T10:31:17Z</time>
      </trkpt>
      <trkpt lat="45.6685" lon="5.94472">
        <ele>481.2</ele>
        <time>2012-04-01T10:31:22Z</time>
      </trkpt>
      <trkpt lat="45.6685" lon="5.94487">
        <ele>482.2</ele>
        <time>2012-04-01T10:31:27Z</time>
      </trkpt>
      <trkpt lat="45.6685" lon="5.94498">
        <ele>483</ele>
        <time>2012-04-01T10:31:32Z</time>
      </trkpt>
      <trkpt lat="45.66853" lon="5.94516">
        <ele>484</ele>
        <time>2012-04-01T10:31:37Z</time>
      </trkpt>
      <trkpt lat="45.66856" lon="5.94529">
        <ele>484.8</ele>
        <time>2012-04-01T10:31:42Z</time>
      </trkpt>
      <trkpt lat="45.66859" lon="5.9454">
        <ele>486.1</ele>
        <time>2012-04-01T10:31:47Z</time>
      </trkpt>
      <trkpt lat="45.6686" lon="5.94552">
        <ele>487.4</ele>
        <time>2012-04-01T10:31:52Z</time>
      </trkpt>
      <trkpt lat="45.66861" lon="5.94563">
        <ele>488.8</ele>
        <time>2012-04-01T10:31:57Z</time>
      </trkpt>
      <trkpt lat="45.66862" lon="5.94573">
        <ele>489.9</ele>
        <time>2012-04-01T10:32:02Z</time>
      </trkpt>
      <trkpt lat="45.66864" lon="5.94584">
        <ele>491</ele>
        <time>2012-04-01T10:32:07Z</time>
      </trkpt>
      <trkpt lat="45.66865" lon="5.94596">
        <ele>492.9</ele>
        <time>2012-04-01T10:32:12Z</time>
      </trkpt>
      <trkpt lat="45.66867" lon="5.94606">
        <ele>494.4</ele>
        <time>2012-04-01T10:32:17Z</time>
      </trkpt>
      <trkpt lat="45.66871" lon="5.94614">
        <ele>495.8</ele>
        <time>2012-04-01T10:32:22Z</time>
      </trkpt>
      <trkpt lat="45.66875" lon="5.94624">
        <ele>497.6</ele>
        <time>2012-04-01T10:32:27Z</time>
      </trkpt>
      <trkpt lat="45.66878" lon="5.9463">
        <ele>498.8</ele>
        <time>2012-04-01T10:32:32Z</time>
      </trkpt>
      <trkpt lat="45.66879" lon="5.94639">
        <ele>500.2</ele>
        <time>2012-04-01T10:32:37Z</time>
      </trkpt>
      <trkpt lat="45.66884" lon="5.94644">
        <ele>501.9</ele>
        <time>2012-04-01T10:32:42Z</time>
      </trkpt>
      <trkpt lat="45.6689" lon="5.94651">
        <ele>504</ele>
        <time>2012-04-01T10:32:47Z</time>
      </trkpt>
      <trkpt lat="45.66897" lon="5.94656">
        <ele>506.1</ele>
        <time>2012-04-01T10:32:52Z</time>
      </trkpt>
      <trkpt lat="45.66905" lon="5.94659">
        <ele>507.6</ele>
        <time>2012-04-01T10:32:57Z</time>
      </trkpt>
      <trkpt lat="45.66913" lon="5.94663">
        <ele>509.6</ele>
        <time>2012-04-01T10:33:02Z</time>
      </trkpt>
      <trkpt lat="45.66919" lon="5.94667">
        <ele>511.2</ele>
        <time>2012-04-01T10:33:07Z</time>
      </trkpt>
      <trkpt lat="45.66926" lon="5.94674">
        <ele>512.9</ele>
        <time>2012-04-01T10:33:12Z</time>
      </trkpt>
      <trkpt lat="45.66936" lon="5.94682">
        <ele>514.8</ele>
        <time>2012-04-01T10:33:17Z</time>
      </trkpt>
      <trkpt lat="45.66943" lon="5.94688">
        <ele>516.4</ele>
        <time>2012-04-01T10:33:22Z</time>
      </trkpt>
      <trkpt lat="45.66949" lon="5.94695">
        <ele>518.4</ele>
        <time>2012-04-01T10:33:27Z</time>
      </trkpt>
      <trkpt lat="45.66957" lon="5.94702">
        <ele>520.1</ele>
        <time>2012-04-01T10:33:32Z</time>
      </trkpt>
      <trkpt lat="45.66962" lon="5.94707">
        <ele>521.4</ele>
        <time>2012-04-01T10:33:37Z</time>
      </trkpt>
      <trkpt lat="45.66968" lon="5.94714">
        <ele>523.1</ele>
        <time>2012-04-01T10:33:42Z</time>
      </trkpt>
      <trkpt lat="45.66976" lon="5.94722">
        <ele>524.7</ele>
        <time>2012-04-01T10:33:47Z</time>
      </trkpt>
      <trkpt lat="45.66981" lon="5.9473">
        <ele>526.9</ele>
        <time>2012-04-01T10:33:52Z</time>
      </trkpt>
      <trkpt lat="45.66986" lon="5.94738">
        <ele>528.7</ele>
        <time>2012-04-01T10:33:57Z</time>
      </trkpt>
      <trkpt lat="45.66992" lon="5.94746">
        <ele>530.5</ele>
        <time>2012-04-01T10:34:02Z</time>
      </trkpt>
      <trkpt lat="45.66995" lon="5.94756">
        <ele>532.7</ele>
        <time>2012-04-01T10:34:07Z</time>
      </trkpt>
      <trkpt lat="45.66998" lon="5.94762">
        <ele>534</ele>
        <time>2012-04-01T10:34:12Z</time>
      </trkpt>
      <trkpt lat="45.67001" lon="5.94757">
        <ele>532.7</ele>
        <time>2012-04-01T10:34:17Z</time>
      </trkpt>
      <trkpt lat="45.67" lon="5.94757">
        <ele>532.8</ele>
        <time>2012-04-01T10:34:22Z</time>
      </trkpt>
      <trkpt lat="45.66999" lon="5.94756">
        <ele>532.5</ele>
        <time>2012-04-01T10:34:27Z</time>
      </trkpt>
      <trkpt lat="45.66999" lon="5.94755">
        <ele>532.2</ele>
        <time>2012-04-01T10:34:32Z</time>
      </trkpt>
      <trkpt lat="45.67" lon="5.94753">
        <ele>531.9</ele>
        <time>2012-04-01T10:34:37Z</time>
      </trkpt>
      <trkpt lat="45.67002" lon="5.94754">
        <ele>532</ele>
        <time>2012-04-01T10:34:42Z</time>
      </trkpt>
      <trkpt lat="45.67002" lon="5.94757">
        <ele>532.7</ele>
        <time>2012-04-01T10:34:47Z</time>
      </trkpt>
      <trkpt lat="45.67001" lon="5.94757">
        <ele>532.9</ele>
        <time>2012-04-01T10:34:52Z</time>
      </trkpt>
      <trkpt lat="45.67001" lon="5.94756">
        <ele>532.5</ele>
        <time>2012-04-01T10:34:57Z</time>
      </trkpt>
      <trkpt lat="45.67002" lon="5.94757">
        <ele>532.8</ele>
        <time>2012-04-01T10:35:02Z</time>
      </trkpt>
      <trkpt lat="45.67005" lon="5.94763">
        <ele>534.4</ele>
        <time>2012-04-01T10:35:07Z</time>
      </trkpt>
      <trkpt lat="45.67007" lon="5.94768">
        <ele>535.6</ele>
        <time>2012-04-01T10:35:12Z</time>
      </trkpt>
      <trkpt lat="45.67008" lon="5.94774">
        <ele>537.2</ele>
        <time>2012-04-01T10:35:17Z</time>
      </trkpt>
      <trkpt lat="45.67009" lon="5.94778">
        <ele>538.3</ele>
        <time>2012-04-01T10:35:22Z</time>
      </trkpt>
      <trkpt lat="45.67011" lon="5.94785">
        <ele>539.8</ele>
        <time>2012-04-01T10:35:27Z</time>
      </trkpt>
      <trkpt lat="45.6701" lon="5.94786">
        <ele>540</ele>
        <time>2012-04-01T10:35:32Z</time>
      </trkpt>
      <trkpt lat="45.67013" lon="5.94791">
        <ele>541.2</ele>
        <time>2012-04-01T10:35:37Z</time>
      </trkpt>
      <trkpt lat="45.67015" lon="5.94797">
        <ele>542.6</ele>
        <time>2012-04-01T10:35:42Z</time>
      </trkpt>
      <trkpt lat="45.67016" lon="5.94799">
        <ele>543.2</ele>
        <time>2012-04-01T10:35:47Z</time>
      </trkpt>
      <trkpt lat="45.67018" lon="5.94806">
        <ele>544.8</ele>
        <time>2012-04-01T10:35:52Z</time>
      </trkpt>
      <trkpt lat="45.67022" lon="5.94814">
        <ele>546.3</ele>
        <time>2012-04-01T10:35:57Z</time>
      </trkpt>
      <trkpt lat="45.67026" lon="5.9482">
        <ele>547.6</ele>
        <time>2012-04-01T10:36:02Z</time>
      </trkpt>
      <trkpt lat="45.67029" lon="5.94826">
        <ele>548.7</ele>
        <time>2012-04-01T10:36:07Z</time>
      </trkpt>
      <trkpt lat="45.67032" lon="5.94832">
        <ele>549.8</ele>
        <time>2012-04-01T10:36:12Z</time>
      </trkpt>
      <trkpt lat="45.67034" lon="5.94836">
        <ele>550.7</ele>
        <time>2012-04-01T10:36:17Z</time>
      </trkpt>
      <trkpt lat="45.67037" lon="5.9484">
        <ele>551.6</ele>
        <time>2012-04-01T10:36:22Z</time>
      </trkpt>
      <trkpt lat="45.6704" lon="5.94846">
        <ele>552.8</ele>
        <time>2012-04-01T10:36:27Z</time>
      </trkpt>
      <trkpt lat="45.67043" lon="5.94853">
        <ele>554.4</ele>
        <time>2012-04-01T10:36:32Z</time>
      </trkpt>
      <trkpt lat="45.67048" lon="5.94858">
        <ele>555.7</ele>
        <time>2012-04-01T10:36:37Z</time>
      </trkpt>
      <trkpt lat="45.67052" lon="5.94863">
        <ele>557</ele>
        <time>2012-04-01T10:36:42Z</time>
      </trkpt>
      <trkpt lat="45.67056" lon="5.94868">
        <ele>558</ele>
        <time>2012-04-01T10:36:47Z</time>
      </trkpt>
      <trkpt lat="45.6706" lon="5.94871">
        <ele>558.6</ele>
        <time>2012-04-01T10:36:52Z</time>
      </trkpt>
      <trkpt lat="45.67067" lon="5.94875">
        <ele>559.9</ele>
        <time>2012-04-01T10:36:57Z</time>
      </trkpt>
      <trkpt lat="45.67073" lon="5.94874">
        <ele>560</ele>
        <time>2012-04-01T10:37:02Z</time>
      </trkpt>
      <trkpt lat="45.67074" lon="5.94873">
        <ele>559.9</ele>
        <time>2012-04-01T10:37:07Z</time>
      </trkpt>
      <trkpt lat="45.67075" lon="5.94872">
        <ele>559.8</ele>
        <time>2012-04-01T10:37:12Z</time>
      </trkpt>
      <trkpt lat="45.67076" lon="5.94871">
        <ele>559.6</ele>
        <time>2012-04-01T10:37:17Z</time>
      </trkpt>
      <trkpt lat="45.67076" lon="5.9487">
        <ele>559.4</ele>
        <time>2012-04-01T10:37:22Z</time>
      </trkpt>
      <trkpt lat="45.67075" lon="5.9487">
        <ele>559.4</ele>
        <time>2012-04-01T10:37:27Z</time>
      </trkpt>
      <trkpt lat="45.67072" lon="5.9487">
        <ele>559.2</ele>
        <time>2012-04-01T10:37:32Z</time>
      </trkpt>
      <trkpt lat="45.6707" lon="5.9487">
        <ele>559.1</ele>
        <time>2012-04-01T10:37:37Z</time>
      </trkpt>
      <trkpt lat="45.67071" lon="5.94871">
        <ele>559.4</ele>
        <time>2012-04-01T10:37:42Z</time>
      </trkpt>
      <trkpt lat="45.6707" lon="5.94872">
        <ele>559.5</ele>
        <time>2012-04-01T10:37:47Z</time>
      </trkpt>
      <trkpt lat="45.67071" lon="5.94873">
        <ele>559.7</ele>
        <time>2012-04-01T10:37:52Z</time>
      </trkpt>
      <trkpt lat="45.67071" lon="5.94874">
        <ele>560</ele>
        <time>2012-04-01T10:37:57Z</time>
      </trkpt>
      <trkpt lat="45.67072" lon="5.94873">
        <ele>559.9</ele>
        <time>2012-04-01T10:38:02Z</time>
      </trkpt>
      <trkpt lat="45.67072" lon="5.94872">
        <ele>559.7</ele>
        <time>2012-04-01T10:38:07Z</time>
      </trkpt>
      <trkpt lat="45.67071" lon="5.94874">
        <ele>559.9</ele>
        <time>2012-04-01T10:38:17Z</time>
      </trkpt>
      <trkpt lat="45.6707" lon="5.94876">
        <ele>560.2</ele>
        <time>2012-04-01T10:38:22Z</time>
      </trkpt>
      <trkpt lat="45.67069" lon="5.94878">
        <ele>560.5</ele>
        <time>2012-04-01T10:38:27Z</time>
      </trkpt>
      <trkpt lat="45.6707" lon="5.94879">
        <ele>560.7</ele>
        <time>2012-04-01T10:38:32Z</time>
      </trkpt>
      <trkpt lat="45.67076" lon="5.94882">
        <ele>561.9</ele>
        <time>2012-04-01T10:38:37Z</time>
      </trkpt>
      <trkpt lat="45.67084" lon="5.94886">
        <ele>563.4</ele>
        <time>2012-04-01T10:38:42Z</time>
      </trkpt>
      <trkpt lat="45.67095" lon="5.94892">
        <ele>564.2</ele>
        <time>2012-04-01T10:38:47Z</time>
      </trkpt>
      <trkpt lat="45.67108" lon="5.94896">
        <ele>564.5</ele>
        <time>2012-04-01T10:38:52Z</time>
      </trkpt>
      <trkpt lat="45.67118" lon="5.94898">
        <ele>565</ele>
        <time>2012-04-01T10:38:57Z</time>
      </trkpt>
      <trkpt lat="45.67134" lon="5.94896">
        <ele>564.7</ele>
        <time>2012-04-01T10:39:02Z</time>
      </trkpt>
      <trkpt lat="45.67153" lon="5.949">
        <ele>564.9</ele>
        <time>2012-04-01T10:39:07Z</time>
      </trkpt>
      <trkpt lat="45.67179" lon="5.94904">
        <ele>565.5</ele>
        <time>2012-04-01T10:39:12Z</time>
      </trkpt>
      <trkpt lat="45.67198" lon="5.94906">
        <ele>565.9</ele>
        <time>2012-04-01T10:39:17Z</time>
      </trkpt>
      <trkpt lat="45.67212" lon="5.94919">
        <ele>567.6</ele>
        <time>2012-04-01T10:39:22Z</time>
      </trkpt>
      <trkpt lat="45.67226" lon="5.94932">
        <ele>568.6</ele>
        <time>2012-04-01T10:39:27Z</time>
      </trkpt>
      <trkpt lat="45.67237" lon="5.94937">
        <ele>569.2</ele>
        <time>2012-04-01T10:39:32Z</time>
      </trkpt>
      <trkpt lat="45.67251" lon="5.94941">
        <ele>570</ele>
        <time>2012-04-01T10:39:37Z</time>
      </trkpt>
      <trkpt lat="45.67264" lon="5.94952">
        <ele>571</ele>
        <time>2012-04-01T10:39:42Z</time>
      </trkpt>
      <trkpt lat="45.67275" lon="5.94963">
        <ele>572.3</ele>
        <time>2012-04-01T10:39:47Z</time>
      </trkpt>
      <trkpt lat="45.67294" lon="5.94967">
        <ele>570</ele>
        <time>2012-04-01T10:39:52Z</time>
      </trkpt>
      <trkpt lat="45.67315" lon="5.94969">
        <ele>569.3</ele>
        <time>2012-04-01T10:39:57Z</time>
      </trkpt>
      <trkpt lat="45.67329" lon="5.94964">
        <ele>569.8</ele>
        <time>2012-04-01T10:40:02Z</time>
      </trkpt>
      <trkpt lat="45.67348" lon="5.94954">
        <ele>570.1</ele>
        <time>2012-04-01T10:40:07Z</time>
      </trkpt>
      <trkpt lat="45.67364" lon="5.94947">
        <ele>570.8</ele>
        <time>2012-04-01T10:40:12Z</time>
      </trkpt>
      <trkpt lat="45.67383" lon="5.94947">
        <ele>572.1</ele>
        <time>2012-04-01T10:40:17Z</time>
      </trkpt>
      <trkpt lat="45.674" lon="5.94945">
        <ele>572.9</ele>
        <time>2012-04-01T10:40:22Z</time>
      </trkpt>
      <trkpt lat="45.67416" lon="5.94935">
        <ele>572.2</ele>
        <time>2012-04-01T10:40:27Z</time>
      </trkpt>
      <trkpt lat="45.67429" lon="5.9493">
        <ele>571.7</ele>
        <time>2012-04-01T10:40:32Z</time>
      </trkpt>
      <trkpt lat="45.67444" lon="5.94933">
        <ele>572.8</ele>
        <time>2012-04-01T10:40:37Z</time>
      </trkpt>
      <trkpt lat="45.6746" lon="5.94938">
        <ele>573.9</ele>
        <time>2012-04-01T10:40:42Z</time>
      </trkpt>
      <trkpt lat="45.67479" lon="5.94946">
        <ele>574.9</ele>
        <time>2012-04-01T10:40:47Z</time>
      </trkpt>
      <trkpt lat="45.67495" lon="5.94953">
        <ele>575.2</ele>
        <time>2012-04-01T10:40:52Z</time>
      </trkpt>
      <trkpt lat="45.67514" lon="5.94963">
        <ele>574.2</ele>
        <time>2012-04-01T10:40:57Z</time>
      </trkpt>
      <trkpt lat="45.67536" lon="5.94986">
        <ele>572.6</ele>
        <time>2012-04-01T10:41:02Z</time>
      </trkpt>
      <trkpt lat="45.67555" lon="5.9501">
        <ele>572.8</ele>
        <time>2012-04-01T10:41:07Z</time>
      </trkpt>
      <trkpt lat="45.67572" lon="5.95028">
        <ele>574</ele>
        <time>2012-04-01T10:41:12Z</time>
      </trkpt>
      <trkpt lat="45.67584" lon="5.95044">
        <ele>575.2</ele>
        <time>2012-04-01T10:41:17Z</time>
      </trkpt>
      <trkpt lat="45.67599" lon="5.95055">
        <ele>575.9</ele>
        <time>2012-04-01T10:41:22Z</time>
      </trkpt>
      <trkpt lat="45.67607" lon="5.95055">
        <ele>575.9</ele>
        <time>2012-04-01T10:41:27Z</time>
      </trkpt>
      <trkpt lat="45.67607" lon="5.95053">
        <ele>575.8</ele>
        <time>2012-04-01T10:41:32Z</time>
      </trkpt>
      <trkpt lat="45.67607" lon="5.95053">
        <ele>575.8</ele>
        <time>2012-04-01T10:41:37Z</time>
      </trkpt>
      <trkpt lat="45.67605" lon="5.95056">
        <ele>576</ele>
        <time>2012-04-01T10:41:42Z</time>
      </trkpt>
      <trkpt lat="45.67605" lon="5.95057">
        <ele>576.1</ele>
        <time>2012-04-01T10:41:47Z</time>
      </trkpt>
      <trkpt lat="45.67605" lon="5.95058">
        <ele>576.3</ele>
        <time>2012-04-01T10:41:52Z</time>
      </trkpt>
      <trkpt lat="45.67606" lon="5.95059">
        <ele>576.5</ele>
        <time>2012-04-01T10:41:57Z</time>
      </trkpt>
      <trkpt lat="45.67614" lon="5.9506">
        <ele>576.5</ele>
        <time>2012-04-01T10:42:02Z</time>
      </trkpt>
      <trkpt lat="45.67621" lon="5.95068">
        <ele>577.2</ele>
        <time>2012-04-01T10:42:07Z</time>
      </trkpt>
      <trkpt lat="45.67625" lon="5.95077">
        <ele>577.8</ele>
        <time>2012-04-01T10:42:12Z</time>
      </trkpt>
      <trkpt lat="45.67633" lon="5.95087">
        <ele>578.3</ele>
        <time>2012-04-01T10:42:17Z</time>
      </trkpt>
      <trkpt lat="45.67645" lon="5.95097">
        <ele>579.4</ele>
        <time>2012-04-01T10:42:22Z</time>
      </trkpt>
      <trkpt lat="45.67654" lon="5.95105">
        <ele>580.6</ele>
        <time>2012-04-01T10:42:27Z</time>
      </trkpt>
      <trkpt lat="45.67663" lon="5.95114">
        <ele>581.5</ele>
        <time>2012-04-01T10:42:32Z</time>
      </trkpt>
      <trkpt lat="45.67673" lon="5.95122">
        <ele>582.1</ele>
        <time>2012-04-01T10:42:37Z</time>
      </trkpt>
      <trkpt lat="45.67682" lon="5.9513">
        <ele>583.1</ele>
        <time>2012-04-01T10:42:42Z</time>
      </trkpt>
      <trkpt lat="45.67694" lon="5.95134">
        <ele>583.5</ele>
        <time>2012-04-01T10:42:47Z</time>
      </trkpt>
      <trkpt lat="45.67708" lon="5.9514">
        <ele>582.6</ele>
        <time>2012-04-01T10:42:52Z</time>
      </trkpt>
      <trkpt lat="45.67723" lon="5.95156">
        <ele>583.5</ele>
        <time>2012-04-01T10:42:57Z</time>
      </trkpt>
      <trkpt lat="45.67729" lon="5.95166">
        <ele>585.1</ele>
        <time>2012-04-01T10:43:02Z</time>
      </trkpt>
      <trkpt lat="45.67734" lon="5.95175">
        <ele>586.5</ele>
        <time>2012-04-01T10:43:07Z</time>
      </trkpt>
      <trkpt lat="45.6774" lon="5.95183">
        <ele>587.5</ele>
        <time>2012-04-01T10:43:12Z</time>
      </trkpt>
      <trkpt lat="45.67746" lon="5.95192">
        <ele>588.7</ele>
        <time>2012-04-01T10:43:17Z</time>
      </trkpt>
      <trkpt lat="45.67752" lon="5.952">
        <ele>589.8</ele>
        <time>2012-04-01T10:43:22Z</time>
      </trkpt>
      <trkpt lat="45.67763" lon="5.95207">
        <ele>591.5</ele>
        <time>2012-04-01T10:43:27Z</time>
      </trkpt>
      <trkpt lat="45.67771" lon="5.95215">
        <ele>593.3</ele>
        <time>2012-04-01T10:43:32Z</time>
      </trkpt>
      <trkpt lat="45.67778" lon="5.95222">
        <ele>595</ele>
        <time>2012-04-01T10:43:37Z</time>
      </trkpt>
      <trkpt lat="45.67785" lon="5.9523">
        <ele>596.2</ele>
        <time>2012-04-01T10:43:42Z</time>
      </trkpt>
      <trkpt lat="45.6779" lon="5.95237">
        <ele>597.1</ele>
        <time>2012-04-01T10:43:47Z</time>
      </trkpt>
      <trkpt lat="45.67798" lon="5.95245">
        <ele>598.3</ele>
        <time>2012-04-01T10:43:52Z</time>
      </trkpt>
      <trkpt lat="45.67804" lon="5.95252">
        <ele>599.3</ele>
        <time>2012-04-01T10:43:57Z</time>
      </trkpt>
      <trkpt lat="45.67806" lon="5.95261">
        <ele>600.6</ele>
        <time>2012-04-01T10:44:02Z</time>
      </trkpt>
      <trkpt lat="45.67806" lon="5.95269">
        <ele>601.8</ele>
        <time>2012-04-01T10:44:07Z</time>
      </trkpt>
      <trkpt lat="45.67799" lon="5.95274">
        <ele>602.2</ele>
        <time>2012-04-01T10:44:12Z</time>
      </trkpt>
      <trkpt lat="45.67793" lon="5.9528">
        <ele>602.8</ele>
        <time>2012-04-01T10:44:17Z</time>
      </trkpt>
      <trkpt lat="45.67786" lon="5.95289">
        <ele>603.5</ele>
        <time>2012-04-01T10:44:22Z</time>
      </trkpt>
      <trkpt lat="45.6778" lon="5.95299">
        <ele>604.4</ele>
        <time>2012-04-01T10:44:27Z</time>
      </trkpt>
      <trkpt lat="45.67771" lon="5.95311">
        <ele>605.7</ele>
        <time>2012-04-01T10:44:32Z</time>
      </trkpt>
      <trkpt lat="45.67765" lon="5.95322">
        <ele>607.1</ele>
        <time>2012-04-01T10:44:37Z</time>
      </trkpt>
      <trkpt lat="45.67758" lon="5.95331">
        <ele>608</ele>
        <time>2012-04-01T10:44:42Z</time>
      </trkpt>
      <trkpt lat="45.67749" lon="5.95339">
        <ele>608.8</ele>
        <time>2012-04-01T10:44:47Z</time>
      </trkpt>
      <trkpt lat="45.67743" lon="5.95346">
        <ele>609.6</ele>
        <time>2012-04-01T10:44:52Z</time>
      </trkpt>
      <trkpt lat="45.67733" lon="5.95356">
        <ele>610.8</ele>
        <time>2012-04-01T10:44:57Z</time>
      </trkpt>
      <trkpt lat="45.67725" lon="5.95364">
        <ele>611.5</ele>
        <time>2012-04-01T10:45:02Z</time>
      </trkpt>
      <trkpt lat="45.67718" lon="5.95373">
        <ele>612.5</ele>
        <time>2012-04-01T10:45:07Z</time>
      </trkpt>
      <trkpt lat="45.6771" lon="5.95382">
        <ele>613.5</ele>
        <time>2012-04-01T10:45:12Z</time>
      </trkpt>
      <trkpt lat="45.67702" lon="5.9539">
        <ele>614.4</ele>
        <time>2012-04-01T10:45:17Z</time>
      </trkpt>
      <trkpt lat="45.67696" lon="5.95396">
        <ele>615</ele>
        <time>2012-04-01T10:45:22Z</time>
      </trkpt>
      <trkpt lat="45.67688" lon="5.95403">
        <ele>616.7</ele>
        <time>2012-04-01T10:45:27Z</time>
      </trkpt>
      <trkpt lat="45.67679" lon="5.95412">
        <ele>618.5</ele>
        <time>2012-04-01T10:45:32Z</time>
      </trkpt>
      <trkpt lat="45.67673" lon="5.95418">
        <ele>619.8</ele>
        <time>2012-04-01T10:45:37Z</time>
      </trkpt>
      <trkpt lat="45.67666" lon="5.95424">
        <ele>621.2</ele>
        <time>2012-04-01T10:45:42Z</time>
      </trkpt>
      <trkpt lat="45.67658" lon="5.95425">
        <ele>622.8</ele>
        <time>2012-04-01T10:45:47Z</time>
      </trkpt>
      <trkpt lat="45.67652" lon="5.95427">
        <ele>623.9</ele>
        <time>2012-04-01T10:45:52Z</time>
      </trkpt>
      <trkpt lat="45.67644" lon="5.95428">
        <ele>625.4</ele>
        <time>2012-04-01T10:45:57Z</time>
      </trkpt>
      <trkpt lat="45.67635" lon="5.95432">
        <ele>627</ele>
        <time>2012-04-01T10:46:02Z</time>
      </trkpt>
      <trkpt lat="45.67626" lon="5.9544">
        <ele>628.5</ele>
        <time>2012-04-01T10:46:07Z</time>
      </trkpt>
      <trkpt lat="45.67621" lon="5.9545">
        <ele>630</ele>
        <time>2012-04-01T10:46:12Z</time>
      </trkpt>
      <trkpt lat="45.67621" lon="5.95461">
        <ele>631.2</ele>
        <time>2012-04-01T10:46:17Z</time>
      </trkpt>
      <trkpt lat="45.67622" lon="5.95472">
        <ele>632.6</ele>
        <time>2012-04-01T10:46:22Z</time>
      </trkpt>
      <trkpt lat="45.67625" lon="5.9548">
        <ele>633.4</ele>
        <time>2012-04-01T10:46:27Z</time>
      </trkpt>
      <trkpt lat="45.67628" lon="5.95488">
        <ele>634.1</ele>
        <time>2012-04-01T10:46:32Z</time>
      </trkpt>
      <trkpt lat="45.67631" lon="5.95494">
        <ele>634.6</ele>
        <time>2012-04-01T10:46:37Z</time>
      </trkpt>
      <trkpt lat="45.67633" lon="5.95493">
        <ele>634.5</ele>
        <time>2012-04-01T10:46:42Z</time>
      </trkpt>
      <trkpt lat="45.67632" lon="5.95493">
        <ele>634.5</ele>
        <time>2012-04-01T10:46:47Z</time>
      </trkpt>
      <trkpt lat="45.67631" lon="5.95493">
        <ele>634.5</ele>
        <time>2012-04-01T10:46:52Z</time>
      </trkpt>
      <trkpt lat="45.67629" lon="5.95494">
        <ele>634.7</ele>
        <time>2012-04-01T10:46:57Z</time>
      </trkpt>
      <trkpt lat="45.67628" lon="5.95495">
        <ele>634.9</ele>
        <time>2012-04-01T10:47:02Z</time>
      </trkpt>
      <trkpt lat="45.67627" lon="5.95495">
        <ele>634.8</ele>
        <time>2012-04-01T10:47:07Z</time>
      </trkpt>
      <trkpt lat="45.6763" lon="5.95491">
        <ele>634.3</ele>
        <time>2012-04-01T10:47:12Z</time>
      </trkpt>
      <trkpt lat="45.67631" lon="5.95489">
        <ele>634.1</ele>
        <time>2012-04-01T10:47:17Z</time>
      </trkpt>
      <trkpt lat="45.67629" lon="5.95491">
        <ele>634.4</ele>
        <time>2012-04-01T10:47:22Z</time>
      </trkpt>
      <trkpt lat="45.67627" lon="5.95493">
        <ele>634.7</ele>
        <time>2012-04-01T10:47:27Z</time>
      </trkpt>
      <trkpt lat="45.67628" lon="5.95493">
        <ele>634.6</ele>
        <time>2012-04-01T10:47:32Z</time>
      </trkpt>
      <trkpt lat="45.6763" lon="5.9549">
        <ele>634.3</ele>
        <time>2012-04-01T10:47:37Z</time>
      </trkpt>
      <trkpt lat="45.67631" lon="5.9549">
        <ele>634.2</ele>
        <time>2012-04-01T10:47:42Z</time>
      </trkpt>
      <trkpt lat="45.67632" lon="5.95489">
        <ele>634.1</ele>
        <time>2012-04-01T10:47:47Z</time>
      </trkpt>
      <trkpt lat="45.67631" lon="5.9549">
        <ele>634.2</ele>
        <time>2012-04-01T10:47:52Z</time>
      </trkpt>
      <trkpt lat="45.6763" lon="5.9549">
        <ele>634.2</ele>
        <time>2012-04-01T10:47:57Z</time>
      </trkpt>
      <trkpt lat="45.6763" lon="5.95491">
        <ele>634.3</ele>
        <time>2012-04-01T10:48:02Z</time>
      </trkpt>
      <trkpt lat="45.6763" lon="5.95491">
        <ele>634.3</ele>
        <time>2012-04-01T10:48:07Z</time>
      </trkpt>
      <trkpt lat="45.6763" lon="5.95491">
        <ele>634.4</ele>
        <time>2012-04-01T10:48:12Z</time>
      </trkpt>
      <trkpt lat="45.6763" lon="5.95491">
        <ele>634.3</ele>
        <time>2012-04-01T10:48:17Z</time>
      </trkpt>
      <trkpt lat="45.67632" lon="5.95491">
        <ele>634.3</ele>
        <time>2012-04-01T10:48:22Z</time>
      </trkpt>
      <trkpt lat="45.67633" lon="5.95491">
        <ele>634.3</ele>
        <time>2012-04-01T10:48:27Z</time>
      </trkpt>
      <trkpt lat="45.67633" lon="5.95491">
        <ele>634.3</ele>
        <time>2012-04-01T10:48:32Z</time>
      </trkpt>
      <trkpt lat="45.67632" lon="5.95492">
        <ele>634.4</ele>
        <time>2012-04-01T10:48:47Z</time>
      </trkpt>
      <trkpt lat="45.67632" lon="5.95492">
        <ele>634.4</ele>
        <time>2012-04-01T10:48:52Z</time>
      </trkpt>
      <trkpt lat="45.67631" lon="5.95492">
        <ele>634.4</ele>
        <time>2012-04-01T10:48:57Z</time>
      </trkpt>
      <trkpt lat="45.67631" lon="5.95491">
        <ele>634.3</ele>
        <time>2012-04-01T10:49:02Z</time>
      </trkpt>
      <trkpt lat="45.67631" lon="5.9549">
        <ele>634.2</ele>
        <time>2012-04-01T10:49:07Z</time>
      </trkpt>
      <trkpt lat="45.67631" lon="5.9549">
        <ele>634.2</ele>
        <time>2012-04-01T10:49:12Z</time>
      </trkpt>
      <trkpt lat="45.6763" lon="5.95491">
        <ele>634.3</ele>
        <time>2012-04-01T10:49:17Z</time>
      </trkpt>
      <trkpt lat="45.6763" lon="5.95489">
        <ele>634.2</ele>
        <time>2012-04-01T10:49:22Z</time>
      </trkpt>
      <trkpt lat="45.6763" lon="5.95488">
        <ele>634</ele>
        <time>2012-04-01T10:49:27Z</time>
      </trkpt>
      <trkpt lat="45.6763" lon="5.95491">
        <ele>634.3</ele>
        <time>2012-04-01T10:49:32Z</time>
      </trkpt>
      <trkpt lat="45.6763" lon="5.95492">
        <ele>634.5</ele>
        <time>2012-04-01T10:49:37Z</time>
      </trkpt>
      <trkpt lat="45.6763" lon="5.95494">
        <ele>634.6</ele>
        <time>2012-04-01T10:49:42Z</time>
      </trkpt>
      <trkpt lat="45.67631" lon="5.95495">
        <ele>634.7</ele>
        <time>2012-04-01T10:49:47Z</time>
      </trkpt>
      <trkpt lat="45.67629" lon="5.95496">
        <ele>634.9</ele>
        <time>2012-04-01T10:49:52Z</time>
      </trkpt>
      <trkpt lat="45.6763" lon="5.95497">
        <ele>635</ele>
        <time>2012-04-01T10:49:57Z</time>
      </trkpt>
      <trkpt lat="45.67629" lon="5.95498">
        <ele>635.1</ele>
        <time>2012-04-01T10:50:02Z</time>
      </trkpt>
      <trkpt lat="45.67628" lon="5.95498">
        <ele>635.2</ele>
        <time>2012-04-01T10:50:07Z</time>
      </trkpt>
      <trkpt lat="45.67627" lon="5.95498">
        <ele>635.2</ele>
        <time>2012-04-01T10:50:12Z</time>
      </trkpt>
      <trkpt lat="45.67626" lon="5.95496">
        <ele>635.1</ele>
        <time>2012-04-01T10:50:17Z</time>
      </trkpt>
      <trkpt lat="45.67627" lon="5.95494">
        <ele>634.7</ele>
        <time>2012-04-01T10:50:22Z</time>
      </trkpt>
      <trkpt lat="45.6763" lon="5.95492">
        <ele>634.4</ele>
        <time>2012-04-01T10:50:27Z</time>
      </trkpt>
      <trkpt lat="45.67632" lon="5.95489">
        <ele>634.1</ele>
        <time>2012-04-01T10:50:32Z</time>
      </trkpt>
      <trkpt lat="45.67633" lon="5.95488">
        <ele>634</ele>
        <time>2012-04-01T10:50:37Z</time>
      </trkpt>
      <trkpt lat="45.67634" lon="5.95487">
        <ele>633.8</ele>
        <time>2012-04-01T10:50:42Z</time>
      </trkpt>
      <trkpt lat="45.67635" lon="5.95486">
        <ele>633.7</ele>
        <time>2012-04-01T10:50:47Z</time>
      </trkpt>
      <trkpt lat="45.67635" lon="5.95486">
        <ele>633.6</ele>
        <time>2012-04-01T10:50:52Z</time>
      </trkpt>
      <trkpt lat="45.67635" lon="5.95486">
        <ele>633.6</ele>
        <time>2012-04-01T10:50:57Z</time>
      </trkpt>
      <trkpt lat="45.67634" lon="5.95485">
        <ele>633.5</ele>
        <time>2012-04-01T10:51:02Z</time>
      </trkpt>
      <trkpt lat="45.67635" lon="5.95483">
        <ele>633.3</ele>
        <time>2012-04-01T10:51:07Z</time>
      </trkpt>
      <trkpt lat="45.67635" lon="5.95484">
        <ele>633.4</ele>
        <time>2012-04-01T10:51:12Z</time>
      </trkpt>
      <trkpt lat="45.67636" lon="5.95483">
        <ele>633.2</ele>
        <time>2012-04-01T10:51:17Z</time>
      </trkpt>
      <trkpt lat="45.67636" lon="5.95481">
        <ele>633</ele>
        <time>2012-04-01T10:51:22Z</time>
      </trkpt>
      <trkpt lat="45.67637" lon="5.9548">
        <ele>632.9</ele>
        <time>2012-04-01T10:51:27Z</time>
      </trkpt>
      <trkpt lat="45.67636" lon="5.95481">
        <ele>633</ele>
        <time>2012-04-01T10:51:32Z</time>
      </trkpt>
      <trkpt lat="45.67635" lon="5.95484">
        <ele>633.4</ele>
        <time>2012-04-01T10:51:37Z</time>
      </trkpt>
      <trkpt lat="45.67635" lon="5.95484">
        <ele>633.4</ele>
        <time>2012-04-01T10:51:42Z</time>
      </trkpt>
      <trkpt lat="45.67636" lon="5.95483">
        <ele>633.3</ele>
        <time>2012-04-01T10:51:47Z</time>
      </trkpt>
      <trkpt lat="45.67637" lon="5.95482">
        <ele>633.1</ele>
        <time>2012-04-01T10:51:52Z</time>
      </trkpt>
      <trkpt lat="45.67634" lon="5.95484">
        <ele>633.4</ele>
        <time>2012-04-01T10:51:57Z</time>
      </trkpt>
      <trkpt lat="45.67633" lon="5.95485">
        <ele>633.6</ele>
        <time>2012-04-01T10:52:02Z</time>
      </trkpt>
      <trkpt lat="45.67634" lon="5.95485">
        <ele>633.5</ele>
        <time>2012-04-01T10:52:07Z</time>
      </trkpt>
      <trkpt lat="45.67633" lon="5.95484">
        <ele>633.5</ele>
        <time>2012-04-01T10:52:12Z</time>
      </trkpt>
      <trkpt lat="45.67629" lon="5.95477">
        <ele>632.9</ele>
        <time>2012-04-01T10:52:17Z</time>
      </trkpt>
      <trkpt lat="45.67621" lon="5.9546">
        <ele>631.1</ele>
        <time>2012-04-01T10:52:22Z</time>
      </trkpt>
      <trkpt lat="45.67611" lon="5.95455">
        <ele>631.1</ele>
        <time>2012-04-01T10:52:27Z</time>
      </trkpt>
      <trkpt lat="45.67602" lon="5.95459">
        <ele>632.3</ele>
        <time>2012-04-01T10:52:32Z</time>
      </trkpt>
      <trkpt lat="45.67595" lon="5.95465">
        <ele>633.4</ele>
        <time>2012-04-01T10:52:37Z</time>
      </trkpt>
      <trkpt lat="45.67587" lon="5.95466">
        <ele>634.1</ele>
        <time>2012-04-01T10:52:42Z</time>
      </trkpt>
      <trkpt lat="45.67582" lon="5.95465">
        <ele>634.3</ele>
        <time>2012-04-01T10:52:47Z</time>
      </trkpt>
      <trkpt lat="45.67573" lon="5.95463">
        <ele>634.5</ele>
        <time>2012-04-01T10:52:52Z</time>
      </trkpt>
      <trkpt lat="45.67558" lon="5.95462">
        <ele>635.1</ele>
        <time>2012-04-01T10:52:57Z</time>
      </trkpt>
      <trkpt lat="45.67545" lon="5.95461">
        <ele>635.9</ele>
        <time>2012-04-01T10:53:02Z</time>
      </trkpt>
      <trkpt lat="45.67534" lon="5.9545">
        <ele>636</ele>
        <time>2012-04-01T10:53:07Z</time>
      </trkpt>
      <trkpt lat="45.67522" lon="5.95439">
        <ele>636</ele>
        <time>2012-04-01T10:53:12Z</time>
      </trkpt>
      <trkpt lat="45.67507" lon="5.95431">
        <ele>635.9</ele>
        <time>2012-04-01T10:53:17Z</time>
      </trkpt>
      <trkpt lat="45.67495" lon="5.95428">
        <ele>636.2</ele>
        <time>2012-04-01T10:53:22Z</time>
      </trkpt>
      <trkpt lat="45.67485" lon="5.95423">
        <ele>636.5</ele>
        <time>2012-04-01T10:53:27Z</time>
      </trkpt>
      <trkpt lat="45.67478" lon="5.95413">
        <ele>636</ele>
        <time>2012-04-01T10:53:32Z</time>
      </trkpt>
      <trkpt lat="45.67473" lon="5.95403">
        <ele>635</ele>
        <time>2012-04-01T10:53:37Z</time>
      </trkpt>
      <trkpt lat="45.67458" lon="5.95385">
        <ele>634.1</ele>
        <time>2012-04-01T10:53:42Z</time>
      </trkpt>
      <trkpt lat="45.67451" lon="5.9537">
        <ele>633.3</ele>
        <time>2012-04-01T10:53:47Z</time>
      </trkpt>
      <trkpt lat="45.6744" lon="5.95361">
        <ele>633.6</ele>
        <time>2012-04-01T10:53:52Z</time>
      </trkpt>
      <trkpt lat="45.67426" lon="5.95349">
        <ele>634.5</ele>
        <time>2012-04-01T10:53:57Z</time>
      </trkpt>
      <trkpt lat="45.67415" lon="5.95335">
        <ele>634.4</ele>
        <time>2012-04-01T10:54:02Z</time>
      </trkpt>
      <trkpt lat="45.67403" lon="5.95313">
        <ele>633.8</ele>
        <time>2012-04-01T10:54:07Z</time>
      </trkpt>
      <trkpt lat="45.6739" lon="5.95304">
        <ele>634.7</ele>
        <time>2012-04-01T10:54:12Z</time>
      </trkpt>
      <trkpt lat="45.67375" lon="5.95303">
        <ele>635.1</ele>
        <time>2012-04-01T10:54:17Z</time>
      </trkpt>
      <trkpt lat="45.67361" lon="5.95302">
        <ele>635.4</ele>
        <time>2012-04-01T10:54:22Z</time>
      </trkpt>
      <trkpt lat="45.6735" lon="5.95303">
        <ele>636.5</ele>
        <time>2012-04-01T10:54:27Z</time>
      </trkpt>
      <trkpt lat="45.67337" lon="5.95305">
        <ele>637.7</ele>
        <time>2012-04-01T10:54:32Z</time>
      </trkpt>
      <trkpt lat="45.67322" lon="5.95301">
        <ele>638.2</ele>
        <time>2012-04-01T10:54:37Z</time>
      </trkpt>
      <trkpt lat="45.67307" lon="5.953">
        <ele>639.1</ele>
        <time>2012-04-01T10:54:42Z</time>
      </trkpt>
      <trkpt lat="45.67292" lon="5.95304">
        <ele>640.7</ele>
        <time>2012-04-01T10:54:47Z</time>
      </trkpt>
      <trkpt lat="45.67279" lon="5.95309">
        <ele>642.3</ele>
        <time>2012-04-01T10:54:52Z</time>
      </trkpt>
      <trkpt lat="45.67268" lon="5.95311">
        <ele>642.6</ele>
        <time>2012-04-01T10:54:57Z</time>
      </trkpt>
      <trkpt lat="45.67253" lon="5.95312">
        <ele>642.7</ele>
        <time>2012-04-01T10:55:02Z</time>
      </trkpt>
      <trkpt lat="45.67239" lon="5.95316">
        <ele>643.4</ele>
        <time>2012-04-01T10:55:07Z</time>
      </trkpt>
      <trkpt lat="45.67223" lon="5.95315">
        <ele>643.6</ele>
        <time>2012-04-01T10:55:12Z</time>
      </trkpt>
      <trkpt lat="45.6721" lon="5.95319">
        <ele>643.3</ele>
        <time>2012-04-01T10:55:17Z</time>
      </trkpt>
      <trkpt lat="45.67198" lon="5.95321">
        <ele>642.8</ele>
        <time>2012-04-01T10:55:22Z</time>
      </trkpt>
      <trkpt lat="45.67193" lon="5.95321">
        <ele>642.6</ele>
        <time>2012-04-01T10:55:27Z</time>
      </trkpt>
      <trkpt lat="45.67191" lon="5.95321">
        <ele>642.5</ele>
        <time>2012-04-01T10:55:32Z</time>
      </trkpt>
      <trkpt lat="45.6719" lon="5.95319">
        <ele>642.2</ele>
        <time>2012-04-01T10:55:37Z</time>
      </trkpt>
      <trkpt lat="45.67188" lon="5.95321">
        <ele>642.3</ele>
        <time>2012-04-01T10:55:42Z</time>
      </trkpt>
      <trkpt lat="45.67189" lon="5.9532">
        <ele>642.2</ele>
        <time>2012-04-01T10:55:47Z</time>
      </trkpt>
      <trkpt lat="45.67191" lon="5.95323">
        <ele>642.6</ele>
        <time>2012-04-01T10:55:52Z</time>
      </trkpt>
      <trkpt lat="45.67191" lon="5.95325">
        <ele>642.9</ele>
        <time>2012-04-01T10:55:57Z</time>
      </trkpt>
      <trkpt lat="45.6719" lon="5.95326">
        <ele>642.9</ele>
        <time>2012-04-01T10:56:02Z</time>
      </trkpt>
      <trkpt lat="45.67191" lon="5.95326">
        <ele>643</ele>
        <time>2012-04-01T10:56:07Z</time>
      </trkpt>
      <trkpt lat="45.67193" lon="5.95324">
        <ele>642.9</ele>
        <time>2012-04-01T10:56:12Z</time>
      </trkpt>
      <trkpt lat="45.67194" lon="5.95323">
        <ele>642.8</ele>
        <time>2012-04-01T10:56:17Z</time>
      </trkpt>
      <trkpt lat="45.67196" lon="5.95322">
        <ele>642.8</ele>
        <time>2012-04-01T10:56:22Z</time>
      </trkpt>
      <trkpt lat="45.67196" lon="5.9532">
        <ele>642.6</ele>
        <time>2012-04-01T10:56:27Z</time>
      </trkpt>
      <trkpt lat="45.67196" lon="5.95319">
        <ele>642.5</ele>
        <time>2012-04-01T10:56:32Z</time>
      </trkpt>
      <trkpt lat="45.67195" lon="5.95318">
        <ele>642.4</ele>
        <time>2012-04-01T10:56:37Z</time>
      </trkpt>
      <trkpt lat="45.67193" lon="5.95315">
        <ele>642</ele>
        <time>2012-04-01T10:56:42Z</time>
      </trkpt>
      <trkpt lat="45.67194" lon="5.95316">
        <ele>642.1</ele>
        <time>2012-04-01T10:56:47Z</time>
      </trkpt>
      <trkpt lat="45.67195" lon="5.95317">
        <ele>642.3</ele>
        <time>2012-04-01T10:56:52Z</time>
      </trkpt>
      <trkpt lat="45.67196" lon="5.95317">
        <ele>642.3</ele>
        <time>2012-04-01T10:56:57Z</time>
      </trkpt>
      <trkpt lat="45.67197" lon="5.95318">
        <ele>642.5</ele>
        <time>2012-04-01T10:57:02Z</time>
      </trkpt>
      <trkpt lat="45.67197" lon="5.95319">
        <ele>642.6</ele>
        <time>2012-04-01T10:57:07Z</time>
      </trkpt>
      <trkpt lat="45.67196" lon="5.95319">
        <ele>642.5</ele>
        <time>2012-04-01T10:57:12Z</time>
      </trkpt>
      <trkpt lat="45.67183" lon="5.95319">
        <ele>641.8</ele>
        <time>2012-04-01T10:57:17Z</time>
      </trkpt>
      <trkpt lat="45.67167" lon="5.95317">
        <ele>640.8</ele>
        <time>2012-04-01T10:57:22Z</time>
      </trkpt>
      <trkpt lat="45.67146" lon="5.95312">
        <ele>639.7</ele>
        <time>2012-04-01T10:57:27Z</time>
      </trkpt>
      <trkpt lat="45.67128" lon="5.95292">
        <ele>638.3</ele>
        <time>2012-04-01T10:57:32Z</time>
      </trkpt>
      <trkpt lat="45.67106" lon="5.95293">
        <ele>637.7</ele>
        <time>2012-04-01T10:57:37Z</time>
      </trkpt>
      <trkpt lat="45.6708" lon="5.95308">
        <ele>635.7</ele>
        <time>2012-04-01T10:57:42Z</time>
      </trkpt>
      <trkpt lat="45.67054" lon="5.95317">
        <ele>628.4</ele>
        <time>2012-04-01T10:57:47Z</time>
      </trkpt>
      <trkpt lat="45.67034" lon="5.95323">
        <ele>623.3</ele>
        <time>2012-04-01T10:57:52Z</time>
      </trkpt>
      <trkpt lat="45.67005" lon="5.95313">
        <ele>617.2</ele>
        <time>2012-04-01T10:57:57Z</time>
      </trkpt>
      <trkpt lat="45.66985" lon="5.95314">
        <ele>615.7</ele>
        <time>2012-04-01T10:58:02Z</time>
      </trkpt>
      <trkpt lat="45.6697" lon="5.9532">
        <ele>615.6</ele>
        <time>2012-04-01T10:58:07Z</time>
      </trkpt>
      <trkpt lat="45.66944" lon="5.95314">
        <ele>614.2</ele>
        <time>2012-04-01T10:58:12Z</time>
      </trkpt>
      <trkpt lat="45.6691" lon="5.95291">
        <ele>615.4</ele>
        <time>2012-04-01T10:58:17Z</time>
      </trkpt>
      <trkpt lat="45.66896" lon="5.95302">
        <ele>616.7</ele>
        <time>2012-04-01T10:58:22Z</time>
      </trkpt>
      <trkpt lat="45.66895" lon="5.95303">
        <ele>616.7</ele>
        <time>2012-04-01T10:58:27Z</time>
      </trkpt>
      <trkpt lat="45.66895" lon="5.95303">
        <ele>616.7</ele>
        <time>2012-04-01T10:58:32Z</time>
      </trkpt>
      <trkpt lat="45.66896" lon="5.95304">
        <ele>616.7</ele>
        <time>2012-04-01T10:58:37Z</time>
      </trkpt>
      <trkpt lat="45.66896" lon="5.95305">
        <ele>616.7</ele>
        <time>2012-04-01T10:58:42Z</time>
      </trkpt>
      <trkpt lat="45.66897" lon="5.95306">
        <ele>616.7</ele>
        <time>2012-04-01T10:58:47Z</time>
      </trkpt>
      <trkpt lat="45.66897" lon="5.95306">
        <ele>616.8</ele>
        <time>2012-04-01T10:58:52Z</time>
      </trkpt>
      <trkpt lat="45.66897" lon="5.95306">
        <ele>616.7</ele>
        <time>2012-04-01T10:58:57Z</time>
      </trkpt>
      <trkpt lat="45.6689" lon="5.95299">
        <ele>616.9</ele>
        <time>2012-04-01T10:59:02Z</time>
      </trkpt>
      <trkpt lat="45.6688" lon="5.95298">
        <ele>615.6</ele>
        <time>2012-04-01T10:59:07Z</time>
      </trkpt>
      <trkpt lat="45.66878" lon="5.95297">
        <ele>615.3</ele>
        <time>2012-04-01T10:59:12Z</time>
      </trkpt>
      <trkpt lat="45.66877" lon="5.95292">
        <ele>615</ele>
        <time>2012-04-01T10:59:17Z</time>
      </trkpt>
      <trkpt lat="45.66856" lon="5.95281">
        <ele>611.5</ele>
        <time>2012-04-01T10:59:22Z</time>
      </trkpt>
      <trkpt lat="45.66854" lon="5.95266">
        <ele>611.7</ele>
        <time>2012-04-01T10:59:27Z</time>
      </trkpt>
      <trkpt lat="45.66852" lon="5.95242">
        <ele>611</ele>
        <time>2012-04-01T10:59:32Z</time>
      </trkpt>
      <trkpt lat="45.66849" lon="5.95226">
        <ele>608.7</ele>
        <time>2012-04-01T10:59:37Z</time>
      </trkpt>
      <trkpt lat="45.66833" lon="5.95221">
        <ele>606.7</ele>
        <time>2012-04-01T10:59:42Z</time>
      </trkpt>
      <trkpt lat="45.66816" lon="5.95216">
        <ele>605.1</ele>
        <time>2012-04-01T10:59:47Z</time>
      </trkpt>
      <trkpt lat="45.66799" lon="5.95213">
        <ele>604.2</ele>
        <time>2012-04-01T10:59:52Z</time>
      </trkpt>
      <trkpt lat="45.66774" lon="5.95216">
        <ele>604.9</ele>
        <time>2012-04-01T10:59:57Z</time>
      </trkpt>
      <trkpt lat="45.66753" lon="5.95211">
        <ele>605.1</ele>
        <time>2012-04-01T11:00:02Z</time>
      </trkpt>
      <trkpt lat="45.66737" lon="5.9521">
        <ele>605.8</ele>
        <time>2012-04-01T11:00:07Z</time>
      </trkpt>
      <trkpt lat="45.66729" lon="5.95203">
        <ele>606.1</ele>
        <time>2012-04-01T11:00:12Z</time>
      </trkpt>
      <trkpt lat="45.66727" lon="5.95203">
        <ele>606.3</ele>
        <time>2012-04-01T11:00:17Z</time>
      </trkpt>
      <trkpt lat="45.66726" lon="5.95202">
        <ele>606.4</ele>
        <time>2012-04-01T11:00:22Z</time>
      </trkpt>
      <trkpt lat="45.66722" lon="5.95201">
        <ele>606.7</ele>
        <time>2012-04-01T11:00:27Z</time>
      </trkpt>
      <trkpt lat="45.66721" lon="5.95201">
        <ele>606.7</ele>
        <time>2012-04-01T11:00:32Z</time>
      </trkpt>
      <trkpt lat="45.66721" lon="5.95201">
        <ele>606.7</ele>
        <time>2012-04-01T11:00:37Z</time>
      </trkpt>
      <trkpt lat="45.66722" lon="5.95201">
        <ele>606.8</ele>
        <time>2012-04-01T11:00:42Z</time>
      </trkpt>
      <trkpt lat="45.66722" lon="5.95201">
        <ele>606.7</ele>
        <time>2012-04-01T11:00:47Z</time>
      </trkpt>
      <trkpt lat="45.66721" lon="5.95202">
        <ele>606.7</ele>
        <time>2012-04-01T11:00:52Z</time>
      </trkpt>
      <trkpt lat="45.6672" lon="5.95202">
        <ele>606.5</ele>
        <time>2012-04-01T11:00:57Z</time>
      </trkpt>
      <trkpt lat="45.66714" lon="5.952">
        <ele>606</ele>
        <time>2012-04-01T11:01:02Z</time>
      </trkpt>
      <trkpt lat="45.66704" lon="5.952">
        <ele>605.1</ele>
        <time>2012-04-01T11:01:07Z</time>
      </trkpt>
      <trkpt lat="45.66692" lon="5.95197">
        <ele>604.1</ele>
        <time>2012-04-01T11:01:12Z</time>
      </trkpt>
      <trkpt lat="45.66671" lon="5.95186">
        <ele>601.2</ele>
        <time>2012-04-01T11:01:17Z</time>
      </trkpt>
      <trkpt lat="45.66657" lon="5.95186">
        <ele>597.9</ele>
        <time>2012-04-01T11:01:22Z</time>
      </trkpt>
      <trkpt lat="45.66647" lon="5.95199">
        <ele>596.4</ele>
        <time>2012-04-01T11:01:27Z</time>
      </trkpt>
      <trkpt lat="45.66644" lon="5.95202">
        <ele>596.1</ele>
        <time>2012-04-01T11:01:32Z</time>
      </trkpt>
      <trkpt lat="45.66645" lon="5.95206">
        <ele>596.5</ele>
        <time>2012-04-01T11:01:37Z</time>
      </trkpt>
      <trkpt lat="45.66649" lon="5.95214">
        <ele>597.4</ele>
        <time>2012-04-01T11:01:42Z</time>
      </trkpt>
      <trkpt lat="45.66647" lon="5.95226">
        <ele>598.1</ele>
        <time>2012-04-01T11:01:47Z</time>
      </trkpt>
      <trkpt lat="45.66643" lon="5.9524">
        <ele>599.3</ele>
        <time>2012-04-01T11:01:52Z</time>
      </trkpt>
      <trkpt lat="45.6664" lon="5.95256">
        <ele>601.4</ele>
        <time>2012-04-01T11:01:57Z</time>
      </trkpt>
      <trkpt lat="45.66635" lon="5.95266">
        <ele>603</ele>
        <time>2012-04-01T11:02:02Z</time>
      </trkpt>
      <trkpt lat="45.6663" lon="5.95274">
        <ele>604.2</ele>
        <time>2012-04-01T11:02:07Z</time>
      </trkpt>
      <trkpt lat="45.66623" lon="5.95282">
        <ele>606</ele>
        <time>2012-04-01T11:02:12Z</time>
      </trkpt>
      <trkpt lat="45.66616" lon="5.9529">
        <ele>608</ele>
        <time>2012-04-01T11:02:17Z</time>
      </trkpt>
      <trkpt lat="45.66613" lon="5.95292">
        <ele>608.7</ele>
        <time>2012-04-01T11:02:22Z</time>
      </trkpt>
      <trkpt lat="45.66613" lon="5.95292">
        <ele>608.5</ele>
        <time>2012-04-01T11:02:27Z</time>
      </trkpt>
      <trkpt lat="45.66613" lon="5.95292">
        <ele>608.7</ele>
        <time>2012-04-01T11:02:32Z</time>
      </trkpt>
      <trkpt lat="45.66608" lon="5.95295">
        <ele>609.6</ele>
        <time>2012-04-01T11:02:37Z</time>
      </trkpt>
      <trkpt lat="45.66602" lon="5.95299">
        <ele>610.8</ele>
        <time>2012-04-01T11:02:42Z</time>
      </trkpt>
      <trkpt lat="45.666" lon="5.95301">
        <ele>611.2</ele>
        <time>2012-04-01T11:02:47Z</time>
      </trkpt>
      <trkpt lat="45.66599" lon="5.95299">
        <ele>610.7</ele>
        <time>2012-04-01T11:02:52Z</time>
      </trkpt>
      <trkpt lat="45.66598" lon="5.95298">
        <ele>610.2</ele>
        <time>2012-04-01T11:02:57Z</time>
      </trkpt>
      <trkpt lat="45.66598" lon="5.95295">
        <ele>609.6</ele>
        <time>2012-04-01T11:03:02Z</time>
      </trkpt>
      <trkpt lat="45.66595" lon="5.95291">
        <ele>608.4</ele>
        <time>2012-04-01T11:03:07Z</time>
      </trkpt>
      <trkpt lat="45.66589" lon="5.95295">
        <ele>609.3</ele>
        <time>2012-04-01T11:03:12Z</time>
      </trkpt>
      <trkpt lat="45.66583" lon="5.953">
        <ele>610.6</ele>
        <time>2012-04-01T11:03:17Z</time>
      </trkpt>
      <trkpt lat="45.66578" lon="5.95307">
        <ele>612.3</ele>
        <time>2012-04-01T11:03:22Z</time>
      </trkpt>
      <trkpt lat="45.66573" lon="5.95311">
        <ele>613.5</ele>
        <time>2012-04-01T11:03:27Z</time>
      </trkpt>
      <trkpt lat="45.66567" lon="5.95316">
        <ele>614.4</ele>
        <time>2012-04-01T11:03:32Z</time>
      </trkpt>
      <trkpt lat="45.66562" lon="5.95321">
        <ele>615.2</ele>
        <time>2012-04-01T11:03:37Z</time>
      </trkpt>
      <trkpt lat="45.66558" lon="5.95326">
        <ele>616</ele>
        <time>2012-04-01T11:03:42Z</time>
      </trkpt>
      <trkpt lat="45.66554" lon="5.95331">
        <ele>616.6</ele>
        <time>2012-04-01T11:03:47Z</time>
      </trkpt>
      <trkpt lat="45.66554" lon="5.9533">
        <ele>616.4</ele>
        <time>2012-04-01T11:03:52Z</time>
      </trkpt>
      <trkpt lat="45.66555" lon="5.9533">
        <ele>616.5</ele>
        <time>2012-04-01T11:03:57Z</time>
      </trkpt>
      <trkpt lat="45.66555" lon="5.95331">
        <ele>616.6</ele>
        <time>2012-04-01T11:04:02Z</time>
      </trkpt>
      <trkpt lat="45.66554" lon="5.9533">
        <ele>616.5</ele>
        <time>2012-04-01T11:04:07Z</time>
      </trkpt>
      <trkpt lat="45.66554" lon="5.9533">
        <ele>616.4</ele>
        <time>2012-04-01T11:04:12Z</time>
      </trkpt>
      <trkpt lat="45.66553" lon="5.9533">
        <ele>616.4</ele>
        <time>2012-04-01T11:04:17Z</time>
      </trkpt>
      <trkpt lat="45.66553" lon="5.9533">
        <ele>616.4</ele>
        <time>2012-04-01T11:04:22Z</time>
      </trkpt>
      <trkpt lat="45.66549" lon="5.95334">
        <ele>617.3</ele>
        <time>2012-04-01T11:04:27Z</time>
      </trkpt>
      <trkpt lat="45.66545" lon="5.95337">
        <ele>618.5</ele>
        <time>2012-04-01T11:04:32Z</time>
      </trkpt>
      <trkpt lat="45.6654" lon="5.95341">
        <ele>619.7</ele>
        <time>2012-04-01T11:04:37Z</time>
      </trkpt>
      <trkpt lat="45.66534" lon="5.95343">
        <ele>620.4</ele>
        <time>2012-04-01T11:04:42Z</time>
      </trkpt>
      <trkpt lat="45.66533" lon="5.95342">
        <ele>620</ele>
        <time>2012-04-01T11:04:47Z</time>
      </trkpt>
      <trkpt lat="45.66532" lon="5.9534">
        <ele>619.6</ele>
        <time>2012-04-01T11:04:52Z</time>
      </trkpt>
      <trkpt lat="45.66533" lon="5.95341">
        <ele>619.8</ele>
        <time>2012-04-01T11:04:57Z</time>
      </trkpt>
      <trkpt lat="45.66533" lon="5.9534">
        <ele>619.6</ele>
        <time>2012-04-01T11:05:02Z</time>
      </trkpt>
      <trkpt lat="45.66533" lon="5.95341">
        <ele>619.9</ele>
        <time>2012-04-01T11:05:07Z</time>
      </trkpt>
      <trkpt lat="45.66533" lon="5.9534">
        <ele>619.6</ele>
        <time>2012-04-01T11:05:12Z</time>
      </trkpt>
      <trkpt lat="45.66532" lon="5.95339">
        <ele>619.2</ele>
        <time>2012-04-01T11:05:17Z</time>
      </trkpt>
      <trkpt lat="45.66533" lon="5.95341">
        <ele>619.7</ele>
        <time>2012-04-01T11:05:22Z</time>
      </trkpt>
      <trkpt lat="45.66533" lon="5.95345">
        <ele>620.8</ele>
        <time>2012-04-01T11:05:27Z</time>
      </trkpt>
      <trkpt lat="45.66533" lon="5.95346">
        <ele>621</ele>
        <time>2012-04-01T11:05:32Z</time>
      </trkpt>
      <trkpt lat="45.66533" lon="5.95346">
        <ele>621</ele>
        <time>2012-04-01T11:05:37Z</time>
      </trkpt>
      <trkpt lat="45.66533" lon="5.95347">
        <ele>621.3</ele>
        <time>2012-04-01T11:05:47Z</time>
      </trkpt>
      <trkpt lat="45.66533" lon="5.95348">
        <ele>621.5</ele>
        <time>2012-04-01T11:05:52Z</time>
      </trkpt>
      <trkpt lat="45.66532" lon="5.95347">
        <ele>621.4</ele>
        <time>2012-04-01T11:05:57Z</time>
      </trkpt>
      <trkpt lat="45.6653" lon="5.95347">
        <ele>621.4</ele>
        <time>2012-04-01T11:06:02Z</time>
      </trkpt>
      <trkpt lat="45.66522" lon="5.95344">
        <ele>621</ele>
        <time>2012-04-01T11:06:07Z</time>
      </trkpt>
      <trkpt lat="45.66512" lon="5.95342">
        <ele>620.8</ele>
        <time>2012-04-01T11:06:12Z</time>
      </trkpt>
      <trkpt lat="45.66499" lon="5.95337">
        <ele>620</ele>
        <time>2012-04-01T11:06:17Z</time>
      </trkpt>
      <trkpt lat="45.6649" lon="5.95335">
        <ele>618.8</ele>
        <time>2012-04-01T11:06:22Z</time>
      </trkpt>
      <trkpt lat="45.66477" lon="5.95338">
        <ele>619.1</ele>
        <time>2012-04-01T11:06:27Z</time>
      </trkpt>
      <trkpt lat="45.66466" lon="5.95341">
        <ele>619.6</ele>
        <time>2012-04-01T11:06:32Z</time>
      </trkpt>
      <trkpt lat="45.66456" lon="5.95342">
        <ele>619.5</ele>
        <time>2012-04-01T11:06:37Z</time>
      </trkpt>
      <trkpt lat="45.66449" lon="5.95345">
        <ele>619.9</ele>
        <time>2012-04-01T11:06:42Z</time>
      </trkpt>
      <trkpt lat="45.66439" lon="5.95344">
        <ele>619.7</ele>
        <time>2012-04-01T11:06:47Z</time>
      </trkpt>
      <trkpt lat="45.66429" lon="5.95339">
        <ele>619.1</ele>
        <time>2012-04-01T11:06:52Z</time>
      </trkpt>
      <trkpt lat="45.6642" lon="5.95337">
        <ele>619.9</ele>
        <time>2012-04-01T11:06:57Z</time>
      </trkpt>
      <trkpt lat="45.6641" lon="5.95336">
        <ele>621.5</ele>
        <time>2012-04-01T11:07:02Z</time>
      </trkpt>
      <trkpt lat="45.66397" lon="5.95328">
        <ele>622.1</ele>
        <time>2012-04-01T11:07:07Z</time>
      </trkpt>
      <trkpt lat="45.66389" lon="5.9532">
        <ele>621.2</ele>
        <time>2012-04-01T11:07:12Z</time>
      </trkpt>
      <trkpt lat="45.66379" lon="5.95312">
        <ele>621.7</ele>
        <time>2012-04-01T11:07:17Z</time>
      </trkpt>
      <trkpt lat="45.66366" lon="5.95305">
        <ele>623.5</ele>
        <time>2012-04-01T11:07:22Z</time>
      </trkpt>
      <trkpt lat="45.66348" lon="5.953">
        <ele>624.1</ele>
        <time>2012-04-01T11:07:27Z</time>
      </trkpt>
      <trkpt lat="45.6633" lon="5.95295">
        <ele>623</ele>
        <time>2012-04-01T11:07:32Z</time>
      </trkpt>
      <trkpt lat="45.66311" lon="5.95294">
        <ele>622.2</ele>
        <time>2012-04-01T11:07:37Z</time>
      </trkpt>
      <trkpt lat="45.66294" lon="5.95296">
        <ele>621.6</ele>
        <time>2012-04-01T11:07:42Z</time>
      </trkpt>
      <trkpt lat="45.66284" lon="5.95305">
        <ele>623.2</ele>
        <time>2012-04-01T11:07:47Z</time>
      </trkpt>
      <trkpt lat="45.66273" lon="5.95312">
        <ele>623.3</ele>
        <time>2012-04-01T11:07:52Z</time>
      </trkpt>
      <trkpt lat="45.66254" lon="5.95319">
        <ele>623.2</ele>
        <time>2012-04-01T11:07:57Z</time>
      </trkpt>
      <trkpt lat="45.66238" lon="5.95328">
        <ele>623.1</ele>
        <time>2012-04-01T11:08:02Z</time>
      </trkpt>
      <trkpt lat="45.66225" lon="5.95343">
        <ele>625.1</ele>
        <time>2012-04-01T11:08:07Z</time>
      </trkpt>
      <trkpt lat="45.66209" lon="5.9534">
        <ele>623.2</ele>
        <time>2012-04-01T11:08:12Z</time>
      </trkpt>
      <trkpt lat="45.66195" lon="5.95346">
        <ele>623.7</ele>
        <time>2012-04-01T11:08:17Z</time>
      </trkpt>
      <trkpt lat="45.66178" lon="5.95346">
        <ele>622.6</ele>
        <time>2012-04-01T11:08:22Z</time>
      </trkpt>
      <trkpt lat="45.66157" lon="5.95358">
        <ele>624.3</ele>
        <time>2012-04-01T11:08:27Z</time>
      </trkpt>
      <trkpt lat="45.66144" lon="5.95384">
        <ele>626</ele>
        <time>2012-04-01T11:08:32Z</time>
      </trkpt>
      <trkpt lat="45.66126" lon="5.95398">
        <ele>627.6</ele>
        <time>2012-04-01T11:08:37Z</time>
      </trkpt>
      <trkpt lat="45.66112" lon="5.9539">
        <ele>625.2</ele>
        <time>2012-04-01T11:08:42Z</time>
      </trkpt>
      <trkpt lat="45.66093" lon="5.95389">
        <ele>627.1</ele>
        <time>2012-04-01T11:08:47Z</time>
      </trkpt>
      <trkpt lat="45.66084" lon="5.95368">
        <ele>624.1</ele>
        <time>2012-04-01T11:08:52Z</time>
      </trkpt>
      <trkpt lat="45.66059" lon="5.95349">
        <ele>623.6</ele>
        <time>2012-04-01T11:08:57Z</time>
      </trkpt>
      <trkpt lat="45.66046" lon="5.9536">
        <ele>625.1</ele>
        <time>2012-04-01T11:09:02Z</time>
      </trkpt>
      <trkpt lat="45.6603" lon="5.95368">
        <ele>624</ele>
        <time>2012-04-01T11:09:07Z</time>
      </trkpt>
      <trkpt lat="45.66016" lon="5.95368">
        <ele>622.4</ele>
        <time>2012-04-01T11:09:12Z</time>
      </trkpt>
      <trkpt lat="45.66007" lon="5.95367">
        <ele>621.3</ele>
        <time>2012-04-01T11:09:17Z</time>
      </trkpt>
      <trkpt lat="45.66001" lon="5.95367">
        <ele>620.6</ele>
        <time>2012-04-01T11:09:22Z</time>
      </trkpt>
      <trkpt lat="45.66" lon="5.95368">
        <ele>620.6</ele>
        <time>2012-04-01T11:09:27Z</time>
      </trkpt>
      <trkpt lat="45.65995" lon="5.95367">
        <ele>620.4</ele>
        <time>2012-04-01T11:09:32Z</time>
      </trkpt>
      <trkpt lat="45.6599" lon="5.95368">
        <ele>620.5</ele>
        <time>2012-04-01T11:09:37Z</time>
      </trkpt>
      <trkpt lat="45.65982" lon="5.95369">
        <ele>620.4</ele>
        <time>2012-04-01T11:09:42Z</time>
      </trkpt>
      <trkpt lat="45.65973" lon="5.95372">
        <ele>621</ele>
        <time>2012-04-01T11:09:47Z</time>
      </trkpt>
      <trkpt lat="45.65966" lon="5.95369">
        <ele>620.9</ele>
        <time>2012-04-01T11:09:52Z</time>
      </trkpt>
      <trkpt lat="45.65962" lon="5.95363">
        <ele>619.5</ele>
        <time>2012-04-01T11:09:57Z</time>
      </trkpt>
      <trkpt lat="45.65958" lon="5.95354">
        <ele>618.2</ele>
        <time>2012-04-01T11:10:02Z</time>
      </trkpt>
      <trkpt lat="45.65945" lon="5.95351">
        <ele>618.8</ele>
        <time>2012-04-01T11:10:07Z</time>
      </trkpt>
      <trkpt lat="45.6594" lon="5.95347">
        <ele>618</ele>
        <time>2012-04-01T11:10:12Z</time>
      </trkpt>
      <trkpt lat="45.65936" lon="5.95348">
        <ele>618.1</ele>
        <time>2012-04-01T11:10:17Z</time>
      </trkpt>
      <trkpt lat="45.6593" lon="5.95351">
        <ele>618.7</ele>
        <time>2012-04-01T11:10:22Z</time>
      </trkpt>
      <trkpt lat="45.65927" lon="5.95353">
        <ele>619.1</ele>
        <time>2012-04-01T11:10:27Z</time>
      </trkpt>
      <trkpt lat="45.65925" lon="5.95353">
        <ele>619</ele>
        <time>2012-04-01T11:10:32Z</time>
      </trkpt>
      <trkpt lat="45.6592" lon="5.95348">
        <ele>617.6</ele>
        <time>2012-04-01T11:10:37Z</time>
      </trkpt>
      <trkpt lat="45.65911" lon="5.95342">
        <ele>616.2</ele>
        <time>2012-04-01T11:10:42Z</time>
      </trkpt>
      <trkpt lat="45.65897" lon="5.95331">
        <ele>613.3</ele>
        <time>2012-04-01T11:10:47Z</time>
      </trkpt>
      <trkpt lat="45.65875" lon="5.95313">
        <ele>608.8</ele>
        <time>2012-04-01T11:10:52Z</time>
      </trkpt>
      <trkpt lat="45.65863" lon="5.95314">
        <ele>609.4</ele>
        <time>2012-04-01T11:10:57Z</time>
      </trkpt>
      <trkpt lat="45.65849" lon="5.95312">
        <ele>608.9</ele>
        <time>2012-04-01T11:11:02Z</time>
      </trkpt>
      <trkpt lat="45.65839" lon="5.9531">
        <ele>608.4</ele>
        <time>2012-04-01T11:11:07Z</time>
      </trkpt>
      <trkpt lat="45.65834" lon="5.95309">
        <ele>608</ele>
        <time>2012-04-01T11:11:12Z</time>
      </trkpt>
      <trkpt lat="45.65833" lon="5.9531">
        <ele>608.3</ele>
        <time>2012-04-01T11:11:17Z</time>
      </trkpt>
      <trkpt lat="45.65832" lon="5.95307">
        <ele>607.6</ele>
        <time>2012-04-01T11:11:22Z</time>
      </trkpt>
      <trkpt lat="45.65834" lon="5.95308">
        <ele>607.6</ele>
        <time>2012-04-01T11:11:27Z</time>
      </trkpt>
      <trkpt lat="45.6583" lon="5.95307">
        <ele>607.7</ele>
        <time>2012-04-01T11:11:32Z</time>
      </trkpt>
      <trkpt lat="45.65821" lon="5.95303">
        <ele>607.6</ele>
        <time>2012-04-01T11:11:37Z</time>
      </trkpt>
      <trkpt lat="45.658" lon="5.95292">
        <ele>605.8</ele>
        <time>2012-04-01T11:11:42Z</time>
      </trkpt>
      <trkpt lat="45.65783" lon="5.95285">
        <ele>603.2</ele>
        <time>2012-04-01T11:11:47Z</time>
      </trkpt>
      <trkpt lat="45.65761" lon="5.95288">
        <ele>601.6</ele>
        <time>2012-04-01T11:11:52Z</time>
      </trkpt>
      <trkpt lat="45.65749" lon="5.95291">
        <ele>600.8</ele>
        <time>2012-04-01T11:11:57Z</time>
      </trkpt>
      <trkpt lat="45.65741" lon="5.95283">
        <ele>599.6</ele>
        <time>2012-04-01T11:12:02Z</time>
      </trkpt>
      <trkpt lat="45.65725" lon="5.95279">
        <ele>599.1</ele>
        <time>2012-04-01T11:12:07Z</time>
      </trkpt>
      <trkpt lat="45.65708" lon="5.95266">
        <ele>596.6</ele>
        <time>2012-04-01T11:12:12Z</time>
      </trkpt>
      <trkpt lat="45.65696" lon="5.95257">
        <ele>594.6</ele>
        <time>2012-04-01T11:12:17Z</time>
      </trkpt>
      <trkpt lat="45.65678" lon="5.95253">
        <ele>592.2</ele>
        <time>2012-04-01T11:12:22Z</time>
      </trkpt>
      <trkpt lat="45.65658" lon="5.95259">
        <ele>593.8</ele>
        <time>2012-04-01T11:12:27Z</time>
      </trkpt>
      <trkpt lat="45.65648" lon="5.95263">
        <ele>595.2</ele>
        <time>2012-04-01T11:12:32Z</time>
      </trkpt>
      <trkpt lat="45.65637" lon="5.95272">
        <ele>597</ele>
        <time>2012-04-01T11:12:37Z</time>
      </trkpt>
      <trkpt lat="45.65619" lon="5.95282">
        <ele>599.7</ele>
        <time>2012-04-01T11:12:42Z</time>
      </trkpt>
      <trkpt lat="45.65607" lon="5.95292">
        <ele>602</ele>
        <time>2012-04-01T11:12:47Z</time>
      </trkpt>
      <trkpt lat="45.65604" lon="5.95294">
        <ele>602.7</ele>
        <time>2012-04-01T11:12:52Z</time>
      </trkpt>
      <trkpt lat="45.65605" lon="5.95293">
        <ele>602.4</ele>
        <time>2012-04-01T11:12:57Z</time>
      </trkpt>
      <trkpt lat="45.65606" lon="5.95295">
        <ele>602.6</ele>
        <time>2012-04-01T11:13:02Z</time>
      </trkpt>
      <trkpt lat="45.65605" lon="5.95298">
        <ele>603.3</ele>
        <time>2012-04-01T11:13:07Z</time>
      </trkpt>
      <trkpt lat="45.65603" lon="5.953">
        <ele>603.8</ele>
        <time>2012-04-01T11:13:12Z</time>
      </trkpt>
      <trkpt lat="45.65602" lon="5.953">
        <ele>604</ele>
        <time>2012-04-01T11:13:17Z</time>
      </trkpt>
      <trkpt lat="45.65603" lon="5.95302">
        <ele>604.2</ele>
        <time>2012-04-01T11:13:22Z</time>
      </trkpt>
      <trkpt lat="45.65604" lon="5.95302">
        <ele>604.2</ele>
        <time>2012-04-01T11:13:27Z</time>
      </trkpt>
      <trkpt lat="45.65606" lon="5.95303">
        <ele>604.1</ele>
        <time>2012-04-01T11:13:32Z</time>
      </trkpt>
      <trkpt lat="45.65608" lon="5.95305">
        <ele>604.2</ele>
        <time>2012-04-01T11:13:37Z</time>
      </trkpt>
      <trkpt lat="45.65607" lon="5.95307">
        <ele>604.6</ele>
        <time>2012-04-01T11:13:42Z</time>
      </trkpt>
      <trkpt lat="45.65605" lon="5.95309">
        <ele>605.4</ele>
        <time>2012-04-01T11:13:47Z</time>
      </trkpt>
      <trkpt lat="45.656" lon="5.95313">
        <ele>606.8</ele>
        <time>2012-04-01T11:13:52Z</time>
      </trkpt>
      <trkpt lat="45.65598" lon="5.95315">
        <ele>607.5</ele>
        <time>2012-04-01T11:13:57Z</time>
      </trkpt>
      <trkpt lat="45.65597" lon="5.95318">
        <ele>608.2</ele>
        <time>2012-04-01T11:14:02Z</time>
      </trkpt>
      <trkpt lat="45.65595" lon="5.95319">
        <ele>608.7</ele>
        <time>2012-04-01T11:14:07Z</time>
      </trkpt>
      <trkpt lat="45.65595" lon="5.9532">
        <ele>608.9</ele>
        <time>2012-04-01T11:14:12Z</time>
      </trkpt>
      <trkpt lat="45.65594" lon="5.95322">
        <ele>609.4</ele>
        <time>2012-04-01T11:14:17Z</time>
      </trkpt>
      <trkpt lat="45.65591" lon="5.95325">
        <ele>610.6</ele>
        <time>2012-04-01T11:14:22Z</time>
      </trkpt>
      <trkpt lat="45.65599" lon="5.95315">
        <ele>607.2</ele>
        <time>2012-04-01T11:14:27Z</time>
      </trkpt>
      <trkpt lat="45.65604" lon="5.9531">
        <ele>605.7</ele>
        <time>2012-04-01T11:14:32Z</time>
      </trkpt>
      <trkpt lat="45.65608" lon="5.95309">
        <ele>605</ele>
        <time>2012-04-01T11:14:37Z</time>
      </trkpt>
      <trkpt lat="45.65609" lon="5.95309">
        <ele>604.8</ele>
        <time>2012-04-01T11:14:42Z</time>
      </trkpt>
      <trkpt lat="45.6561" lon="5.95308">
        <ele>604.6</ele>
        <time>2012-04-01T11:14:47Z</time>
      </trkpt>
      <trkpt lat="45.65608" lon="5.95305">
        <ele>604.1</ele>
        <time>2012-04-01T11:14:52Z</time>
      </trkpt>
      <trkpt lat="45.65608" lon="5.95304">
        <ele>604</ele>
        <time>2012-04-01T11:14:57Z</time>
      </trkpt>
      <trkpt lat="45.65608" lon="5.95306">
        <ele>604.3</ele>
        <time>2012-04-01T11:15:02Z</time>
      </trkpt>
      <trkpt lat="45.65608" lon="5.95306">
        <ele>604.4</ele>
        <time>2012-04-01T11:15:07Z</time>
      </trkpt>
      <trkpt lat="45.65607" lon="5.95305">
        <ele>604.3</ele>
        <time>2012-04-01T11:15:12Z</time>
      </trkpt>
      <trkpt lat="45.65606" lon="5.95304">
        <ele>604.2</ele>
        <time>2012-04-01T11:15:17Z</time>
      </trkpt>
      <trkpt lat="45.65605" lon="5.95303">
        <ele>604.2</ele>
        <time>2012-04-01T11:15:22Z</time>
      </trkpt>
      <trkpt lat="45.65604" lon="5.95302">
        <ele>604.1</ele>
        <time>2012-04-01T11:15:27Z</time>
      </trkpt>
      <trkpt lat="45.65603" lon="5.95301">
        <ele>604</ele>
        <time>2012-04-01T11:15:32Z</time>
      </trkpt>
      <trkpt lat="45.65603" lon="5.95302">
        <ele>604.1</ele>
        <time>2012-04-01T11:15:37Z</time>
      </trkpt>
      <trkpt lat="45.65606" lon="5.95304">
        <ele>604.3</ele>
        <time>2012-04-01T11:15:42Z</time>
      </trkpt>
      <trkpt lat="45.65608" lon="5.95304">
        <ele>604.1</ele>
        <time>2012-04-01T11:15:47Z</time>
      </trkpt>
      <trkpt lat="45.65608" lon="5.95304">
        <ele>604.1</ele>
        <time>2012-04-01T11:15:52Z</time>
      </trkpt>
      <trkpt lat="45.65604" lon="5.95311">
        <ele>605.7</ele>
        <time>2012-04-01T11:15:57Z</time>
      </trkpt>
      <trkpt lat="45.65604" lon="5.95312">
        <ele>606.1</ele>
        <time>2012-04-01T11:16:02Z</time>
      </trkpt>
      <trkpt lat="45.65601" lon="5.95312">
        <ele>606.4</ele>
        <time>2012-04-01T11:16:12Z</time>
      </trkpt>
      <trkpt lat="45.65598" lon="5.95309">
        <ele>606.1</ele>
        <time>2012-04-01T11:16:22Z</time>
      </trkpt>
      <trkpt lat="45.65598" lon="5.95302">
        <ele>604.8</ele>
        <time>2012-04-01T11:16:27Z</time>
      </trkpt>
      <trkpt lat="45.65603" lon="5.95303">
        <ele>604.3</ele>
        <time>2012-04-01T11:16:32Z</time>
      </trkpt>
      <trkpt lat="45.65608" lon="5.95302">
        <ele>603.7</ele>
        <time>2012-04-01T11:16:37Z</time>
      </trkpt>
      <trkpt lat="45.65613" lon="5.953">
        <ele>603.2</ele>
        <time>2012-04-01T11:16:42Z</time>
      </trkpt>
      <trkpt lat="45.65616" lon="5.95297">
        <ele>603</ele>
        <time>2012-04-01T11:16:47Z</time>
      </trkpt>
      <trkpt lat="45.65615" lon="5.95297">
        <ele>602.8</ele>
        <time>2012-04-01T11:16:52Z</time>
      </trkpt>
      <trkpt lat="45.65617" lon="5.95298">
        <ele>603.3</ele>
        <time>2012-04-01T11:16:57Z</time>
      </trkpt>
      <trkpt lat="45.65617" lon="5.953">
        <ele>603.7</ele>
        <time>2012-04-01T11:17:02Z</time>
      </trkpt>
      <trkpt lat="45.65616" lon="5.953">
        <ele>603.7</ele>
        <time>2012-04-01T11:17:07Z</time>
      </trkpt>
      <trkpt lat="45.65615" lon="5.953">
        <ele>603.6</ele>
        <time>2012-04-01T11:17:12Z</time>
      </trkpt>
      <trkpt lat="45.65612" lon="5.95299">
        <ele>602.9</ele>
        <time>2012-04-01T11:17:17Z</time>
      </trkpt>
      <trkpt lat="45.65613" lon="5.95298">
        <ele>602.9</ele>
        <time>2012-04-01T11:17:22Z</time>
      </trkpt>
      <trkpt lat="45.65617" lon="5.95299">
        <ele>603.7</ele>
        <time>2012-04-01T11:17:27Z</time>
      </trkpt>
      <trkpt lat="45.65627" lon="5.95303">
        <ele>606</ele>
        <time>2012-04-01T11:17:32Z</time>
      </trkpt>
      <trkpt lat="45.65627" lon="5.95303">
        <ele>606.2</ele>
        <time>2012-04-01T11:17:37Z</time>
      </trkpt>
      <trkpt lat="45.65625" lon="5.95303">
        <ele>605.8</ele>
        <time>2012-04-01T11:17:42Z</time>
      </trkpt>
      <trkpt lat="45.65621" lon="5.95305">
        <ele>605.7</ele>
        <time>2012-04-01T11:17:47Z</time>
      </trkpt>
      <trkpt lat="45.65619" lon="5.95308">
        <ele>605.8</ele>
        <time>2012-04-01T11:17:52Z</time>
      </trkpt>
      <trkpt lat="45.65616" lon="5.95309">
        <ele>605.5</ele>
        <time>2012-04-01T11:17:57Z</time>
      </trkpt>
      <trkpt lat="45.65617" lon="5.95307">
        <ele>605.2</ele>
        <time>2012-04-01T11:18:02Z</time>
      </trkpt>
      <trkpt lat="45.65617" lon="5.95306">
        <ele>605.2</ele>
        <time>2012-04-01T11:18:07Z</time>
      </trkpt>
      <trkpt lat="45.65615" lon="5.95307">
        <ele>605</ele>
        <time>2012-04-01T11:18:12Z</time>
      </trkpt>
      <trkpt lat="45.65613" lon="5.95308">
        <ele>604.9</ele>
        <time>2012-04-01T11:18:17Z</time>
      </trkpt>
      <trkpt lat="45.65611" lon="5.95309">
        <ele>604.7</ele>
        <time>2012-04-01T11:18:22Z</time>
      </trkpt>
      <trkpt lat="45.65611" lon="5.9531">
        <ele>604.8</ele>
        <time>2012-04-01T11:18:27Z</time>
      </trkpt>
      <trkpt lat="45.65609" lon="5.9531">
        <ele>605</ele>
        <time>2012-04-01T11:18:32Z</time>
      </trkpt>
      <trkpt lat="45.65611" lon="5.9531">
        <ele>604.8</ele>
        <time>2012-04-01T11:18:37Z</time>
      </trkpt>
      <trkpt lat="45.6561" lon="5.95309">
        <ele>604.6</ele>
        <time>2012-04-01T11:18:42Z</time>
      </trkpt>
      <trkpt lat="45.6561" lon="5.95307">
        <ele>604.3</ele>
        <time>2012-04-01T11:18:47Z</time>
      </trkpt>
      <trkpt lat="45.65608" lon="5.95306">
        <ele>604.4</ele>
        <time>2012-04-01T11:18:52Z</time>
      </trkpt>
      <trkpt lat="45.65606" lon="5.95305">
        <ele>604.5</ele>
        <time>2012-04-01T11:18:57Z</time>
      </trkpt>
      <trkpt lat="45.65604" lon="5.95304">
        <ele>604.5</ele>
        <time>2012-04-01T11:19:02Z</time>
      </trkpt>
      <trkpt lat="45.65604" lon="5.95304">
        <ele>604.5</ele>
        <time>2012-04-01T11:19:07Z</time>
      </trkpt>
      <trkpt lat="45.65602" lon="5.95304">
        <ele>604.7</ele>
        <time>2012-04-01T11:19:12Z</time>
      </trkpt>
      <trkpt lat="45.65601" lon="5.95304">
        <ele>604.7</ele>
        <time>2012-04-01T11:19:17Z</time>
      </trkpt>
      <trkpt lat="45.65603" lon="5.95304">
        <ele>604.6</ele>
        <time>2012-04-01T11:19:22Z</time>
      </trkpt>
      <trkpt lat="45.65603" lon="5.95304">
        <ele>604.6</ele>
        <time>2012-04-01T11:19:27Z</time>
      </trkpt>
      <trkpt lat="45.65603" lon="5.95304">
        <ele>604.5</ele>
        <time>2012-04-01T11:19:32Z</time>
      </trkpt>
      <trkpt lat="45.65603" lon="5.95304">
        <ele>604.5</ele>
        <time>2012-04-01T11:19:37Z</time>
      </trkpt>
      <trkpt lat="45.65603" lon="5.95303">
        <ele>604.4</ele>
        <time>2012-04-01T11:19:47Z</time>
      </trkpt>
      <trkpt lat="45.65603" lon="5.95303">
        <ele>604.4</ele>
        <time>2012-04-01T11:19:52Z</time>
      </trkpt>
      <trkpt lat="45.65603" lon="5.95304">
        <ele>604.6</ele>
        <time>2012-04-01T11:19:57Z</time>
      </trkpt>
      <trkpt lat="45.65603" lon="5.95303">
        <ele>604.5</ele>
        <time>2012-04-01T11:20:02Z</time>
      </trkpt>
      <trkpt lat="45.65606" lon="5.95303">
        <ele>604.1</ele>
        <time>2012-04-01T11:20:07Z</time>
      </trkpt>
      <trkpt lat="45.6561" lon="5.95304">
        <ele>603.9</ele>
        <time>2012-04-01T11:20:12Z</time>
      </trkpt>
      <trkpt lat="45.65609" lon="5.95303">
        <ele>603.8</ele>
        <time>2012-04-01T11:20:17Z</time>
      </trkpt>
      <trkpt lat="45.65608" lon="5.95304">
        <ele>604.1</ele>
        <time>2012-04-01T11:20:22Z</time>
      </trkpt>
      <trkpt lat="45.65608" lon="5.95305">
        <ele>604.2</ele>
        <time>2012-04-01T11:20:27Z</time>
      </trkpt>
      <trkpt lat="45.65605" lon="5.95304">
        <ele>604.4</ele>
        <time>2012-04-01T11:20:32Z</time>
      </trkpt>
      <trkpt lat="45.656" lon="5.95298">
        <ele>603.7</ele>
        <time>2012-04-01T11:20:37Z</time>
      </trkpt>
      <trkpt lat="45.65599" lon="5.95298">
        <ele>604</ele>
        <time>2012-04-01T11:20:42Z</time>
      </trkpt>
      <trkpt lat="45.65595" lon="5.95295">
        <ele>603.8</ele>
        <time>2012-04-01T11:20:47Z</time>
      </trkpt>
      <trkpt lat="45.65594" lon="5.95299">
        <ele>604.7</ele>
        <time>2012-04-01T11:20:52Z</time>
      </trkpt>
      <trkpt lat="45.65597" lon="5.953">
        <ele>604.6</ele>
        <time>2012-04-01T11:20:57Z</time>
      </trkpt>
      <trkpt lat="45.65599" lon="5.95296">
        <ele>603.7</ele>
        <time>2012-04-01T11:21:02Z</time>
      </trkpt>
      <trkpt lat="45.65596" lon="5.95294">
        <ele>603.5</ele>
        <time>2012-04-01T11:21:07Z</time>
      </trkpt>
      <trkpt lat="45.65594" lon="5.95293">
        <ele>603.6</ele>
        <time>2012-04-01T11:21:12Z</time>
      </trkpt>
      <trkpt lat="45.65594" lon="5.95292">
        <ele>603.4</ele>
        <time>2012-04-01T11:21:17Z</time>
      </trkpt>
      <trkpt lat="45.65593" lon="5.9529">
        <ele>603.2</ele>
        <time>2012-04-01T11:21:22Z</time>
      </trkpt>
      <trkpt lat="45.65594" lon="5.9529">
        <ele>603.1</ele>
        <time>2012-04-01T11:21:27Z</time>
      </trkpt>
      <trkpt lat="45.6559" lon="5.95289">
        <ele>603.4</ele>
        <time>2012-04-01T11:21:32Z</time>
      </trkpt>
      <trkpt lat="45.65587" lon="5.95288">
        <ele>603.5</ele>
        <time>2012-04-01T11:21:37Z</time>
      </trkpt>
      <trkpt lat="45.65584" lon="5.95285">
        <ele>603.2</ele>
        <time>2012-04-01T11:21:42Z</time>
      </trkpt>
      <trkpt lat="45.65574" lon="5.95269">
        <ele>600.9</ele>
        <time>2012-04-01T11:21:47Z</time>
      </trkpt>
      <trkpt lat="45.65561" lon="5.95262">
        <ele>600.5</ele>
        <time>2012-04-01T11:21:52Z</time>
      </trkpt>
      <trkpt lat="45.65551" lon="5.95258">
        <ele>599.7</ele>
        <time>2012-04-01T11:21:57Z</time>
      </trkpt>
      <trkpt lat="45.65551" lon="5.95259">
        <ele>599.9</ele>
        <time>2012-04-01T11:22:02Z</time>
      </trkpt>
      <trkpt lat="45.65548" lon="5.9526">
        <ele>600.2</ele>
        <time>2012-04-01T11:22:07Z</time>
      </trkpt>
      <trkpt lat="45.65545" lon="5.9526">
        <ele>600</ele>
        <time>2012-04-01T11:22:12Z</time>
      </trkpt>
      <trkpt lat="45.65539" lon="5.95263">
        <ele>600.7</ele>
        <time>2012-04-01T11:22:17Z</time>
      </trkpt>
      <trkpt lat="45.65533" lon="5.95266">
        <ele>601.3</ele>
        <time>2012-04-01T11:22:22Z</time>
      </trkpt>
      <trkpt lat="45.65529" lon="5.9527">
        <ele>602.5</ele>
        <time>2012-04-01T11:22:27Z</time>
      </trkpt>
      <trkpt lat="45.65527" lon="5.95274">
        <ele>603.6</ele>
        <time>2012-04-01T11:22:32Z</time>
      </trkpt>
      <trkpt lat="45.65525" lon="5.95283">
        <ele>606.4</ele>
        <time>2012-04-01T11:22:37Z</time>
      </trkpt>
      <trkpt lat="45.65522" lon="5.95291">
        <ele>608.7</ele>
        <time>2012-04-01T11:22:42Z</time>
      </trkpt>
      <trkpt lat="45.6552" lon="5.95301">
        <ele>611.9</ele>
        <time>2012-04-01T11:22:47Z</time>
      </trkpt>
      <trkpt lat="45.65518" lon="5.95307">
        <ele>613.7</ele>
        <time>2012-04-01T11:22:52Z</time>
      </trkpt>
      <trkpt lat="45.65517" lon="5.95311">
        <ele>614.7</ele>
        <time>2012-04-01T11:22:57Z</time>
      </trkpt>
      <trkpt lat="45.65518" lon="5.95312">
        <ele>615</ele>
        <time>2012-04-01T11:23:02Z</time>
      </trkpt>
      <trkpt lat="45.65517" lon="5.95313">
        <ele>615.3</ele>
        <time>2012-04-01T11:23:07Z</time>
      </trkpt>
      <trkpt lat="45.65517" lon="5.95314">
        <ele>615.5</ele>
        <time>2012-04-01T11:23:12Z</time>
      </trkpt>
      <trkpt lat="45.65517" lon="5.95312">
        <ele>614.8</ele>
        <time>2012-04-01T11:23:17Z</time>
      </trkpt>
      <trkpt lat="45.65518" lon="5.95311">
        <ele>614.8</ele>
        <time>2012-04-01T11:23:22Z</time>
      </trkpt>
      <trkpt lat="45.65519" lon="5.95309">
        <ele>614.4</ele>
        <time>2012-04-01T11:23:27Z</time>
      </trkpt>
      <trkpt lat="45.65519" lon="5.9531">
        <ele>614.7</ele>
        <time>2012-04-01T11:23:32Z</time>
      </trkpt>
      <trkpt lat="45.6552" lon="5.95311">
        <ele>615.3</ele>
        <time>2012-04-01T11:23:37Z</time>
      </trkpt>
      <trkpt lat="45.65521" lon="5.95313">
        <ele>615.9</ele>
        <time>2012-04-01T11:23:42Z</time>
      </trkpt>
      <trkpt lat="45.65522" lon="5.95312">
        <ele>615.8</ele>
        <time>2012-04-01T11:23:47Z</time>
      </trkpt>
      <trkpt lat="45.65521" lon="5.95309">
        <ele>614.9</ele>
        <time>2012-04-01T11:23:52Z</time>
      </trkpt>
      <trkpt lat="45.6552" lon="5.95308">
        <ele>614.5</ele>
        <time>2012-04-01T11:23:57Z</time>
      </trkpt>
      <trkpt lat="45.6552" lon="5.95308">
        <ele>614.3</ele>
        <time>2012-04-01T11:24:02Z</time>
      </trkpt>
      <trkpt lat="45.65519" lon="5.95308">
        <ele>614.2</ele>
        <time>2012-04-01T11:24:07Z</time>
      </trkpt>
      <trkpt lat="45.65509" lon="5.95309">
        <ele>612.7</ele>
        <time>2012-04-01T11:24:12Z</time>
      </trkpt>
      <trkpt lat="45.655" lon="5.95308">
        <ele>610.8</ele>
        <time>2012-04-01T11:24:17Z</time>
      </trkpt>
      <trkpt lat="45.65484" lon="5.95292">
        <ele>607.6</ele>
        <time>2012-04-01T11:24:22Z</time>
      </trkpt>
      <trkpt lat="45.6547" lon="5.95285">
        <ele>608</ele>
        <time>2012-04-01T11:24:27Z</time>
      </trkpt>
      <trkpt lat="45.65446" lon="5.95286">
        <ele>607.4</ele>
        <time>2012-04-01T11:24:32Z</time>
      </trkpt>
      <trkpt lat="45.65435" lon="5.95282">
        <ele>608.2</ele>
        <time>2012-04-01T11:24:37Z</time>
      </trkpt>
      <trkpt lat="45.65424" lon="5.95273">
        <ele>608.2</ele>
        <time>2012-04-01T11:24:42Z</time>
      </trkpt>
      <trkpt lat="45.65416" lon="5.9527">
        <ele>608.7</ele>
        <time>2012-04-01T11:24:47Z</time>
      </trkpt>
      <trkpt lat="45.65405" lon="5.95267">
        <ele>608.9</ele>
        <time>2012-04-01T11:24:52Z</time>
      </trkpt>
      <trkpt lat="45.65394" lon="5.95271">
        <ele>611</ele>
        <time>2012-04-01T11:24:57Z</time>
      </trkpt>
      <trkpt lat="45.65383" lon="5.95272">
        <ele>611.7</ele>
        <time>2012-04-01T11:25:02Z</time>
      </trkpt>
      <trkpt lat="45.65373" lon="5.9527">
        <ele>611.1</ele>
        <time>2012-04-01T11:25:07Z</time>
      </trkpt>
      <trkpt lat="45.65358" lon="5.95263">
        <ele>609.2</ele>
        <time>2012-04-01T11:25:12Z</time>
      </trkpt>
      <trkpt lat="45.65351" lon="5.95258">
        <ele>609.5</ele>
        <time>2012-04-01T11:25:17Z</time>
      </trkpt>
      <trkpt lat="45.65349" lon="5.95257">
        <ele>609.5</ele>
        <time>2012-04-01T11:25:22Z</time>
      </trkpt>
      <trkpt lat="45.65347" lon="5.95258">
        <ele>610.3</ele>
        <time>2012-04-01T11:25:27Z</time>
      </trkpt>
      <trkpt lat="45.65347" lon="5.95259">
        <ele>610.4</ele>
        <time>2012-04-01T11:25:32Z</time>
      </trkpt>
      <trkpt lat="45.65347" lon="5.95253">
        <ele>609</ele>
        <time>2012-04-01T11:25:37Z</time>
      </trkpt>
      <trkpt lat="45.65343" lon="5.95244">
        <ele>608.8</ele>
        <time>2012-04-01T11:25:42Z</time>
      </trkpt>
      <trkpt lat="45.65339" lon="5.95236">
        <ele>608.5</ele>
        <time>2012-04-01T11:25:47Z</time>
      </trkpt>
      <trkpt lat="45.65334" lon="5.95229">
        <ele>608.8</ele>
        <time>2012-04-01T11:25:52Z</time>
      </trkpt>
      <trkpt lat="45.65325" lon="5.95223">
        <ele>608.2</ele>
        <time>2012-04-01T11:25:57Z</time>
      </trkpt>
      <trkpt lat="45.65316" lon="5.95219">
        <ele>606.8</ele>
        <time>2012-04-01T11:26:02Z</time>
      </trkpt>
      <trkpt lat="45.65299" lon="5.95218">
        <ele>605</ele>
        <time>2012-04-01T11:26:07Z</time>
      </trkpt>
      <trkpt lat="45.65277" lon="5.95218">
        <ele>602.2</ele>
        <time>2012-04-01T11:26:12Z</time>
      </trkpt>
      <trkpt lat="45.65256" lon="5.95211">
        <ele>601.7</ele>
        <time>2012-04-01T11:26:17Z</time>
      </trkpt>
      <trkpt lat="45.65233" lon="5.95201">
        <ele>599</ele>
        <time>2012-04-01T11:26:22Z</time>
      </trkpt>
      <trkpt lat="45.65219" lon="5.95194">
        <ele>596.7</ele>
        <time>2012-04-01T11:26:27Z</time>
      </trkpt>
      <trkpt lat="45.65202" lon="5.95187">
        <ele>594</ele>
        <time>2012-04-01T11:26:32Z</time>
      </trkpt>
      <trkpt lat="45.65187" lon="5.95191">
        <ele>594.7</ele>
        <time>2012-04-01T11:26:37Z</time>
      </trkpt>
      <trkpt lat="45.65172" lon="5.95189">
        <ele>594.2</ele>
        <time>2012-04-01T11:26:42Z</time>
      </trkpt>
      <trkpt lat="45.65158" lon="5.95181">
        <ele>592.1</ele>
        <time>2012-04-01T11:26:47Z</time>
      </trkpt>
      <trkpt lat="45.6514" lon="5.95173">
        <ele>590.9</ele>
        <time>2012-04-01T11:26:52Z</time>
      </trkpt>
      <trkpt lat="45.65125" lon="5.95168">
        <ele>589.8</ele>
        <time>2012-04-01T11:26:57Z</time>
      </trkpt>
      <trkpt lat="45.65111" lon="5.95166">
        <ele>590</ele>
        <time>2012-04-01T11:27:02Z</time>
      </trkpt>
      <trkpt lat="45.65103" lon="5.95159">
        <ele>588.8</ele>
        <time>2012-04-01T11:27:07Z</time>
      </trkpt>
      <trkpt lat="45.65101" lon="5.95157">
        <ele>588.5</ele>
        <time>2012-04-01T11:27:12Z</time>
      </trkpt>
      <trkpt lat="45.65092" lon="5.95158">
        <ele>588.6</ele>
        <time>2012-04-01T11:27:17Z</time>
      </trkpt>
      <trkpt lat="45.65086" lon="5.95168">
        <ele>590.2</ele>
        <time>2012-04-01T11:27:22Z</time>
      </trkpt>
      <trkpt lat="45.65079" lon="5.95173">
        <ele>589.1</ele>
        <time>2012-04-01T11:27:27Z</time>
      </trkpt>
      <trkpt lat="45.65074" lon="5.95182">
        <ele>588.5</ele>
        <time>2012-04-01T11:27:32Z</time>
      </trkpt>
      <trkpt lat="45.65065" lon="5.95189">
        <ele>587.2</ele>
        <time>2012-04-01T11:27:37Z</time>
      </trkpt>
      <trkpt lat="45.65051" lon="5.95193">
        <ele>585.4</ele>
        <time>2012-04-01T11:27:42Z</time>
      </trkpt>
      <trkpt lat="45.6504" lon="5.95193">
        <ele>584.9</ele>
        <time>2012-04-01T11:27:47Z</time>
      </trkpt>
      <trkpt lat="45.65032" lon="5.952">
        <ele>586.9</ele>
        <time>2012-04-01T11:27:52Z</time>
      </trkpt>
      <trkpt lat="45.65024" lon="5.95205">
        <ele>586.9</ele>
        <time>2012-04-01T11:27:57Z</time>
      </trkpt>
      <trkpt lat="45.65018" lon="5.95211">
        <ele>587.2</ele>
        <time>2012-04-01T11:28:02Z</time>
      </trkpt>
      <trkpt lat="45.65016" lon="5.95213">
        <ele>587</ele>
        <time>2012-04-01T11:28:07Z</time>
      </trkpt>
      <trkpt lat="45.65016" lon="5.95213">
        <ele>587.3</ele>
        <time>2012-04-01T11:28:12Z</time>
      </trkpt>
      <trkpt lat="45.65016" lon="5.95216">
        <ele>588.1</ele>
        <time>2012-04-01T11:28:17Z</time>
      </trkpt>
      <trkpt lat="45.65016" lon="5.95218">
        <ele>588.4</ele>
        <time>2012-04-01T11:28:22Z</time>
      </trkpt>
      <trkpt lat="45.65016" lon="5.95217">
        <ele>588.1</ele>
        <time>2012-04-01T11:28:27Z</time>
      </trkpt>
      <trkpt lat="45.65014" lon="5.95216">
        <ele>587.2</ele>
        <time>2012-04-01T11:28:32Z</time>
      </trkpt>
      <trkpt lat="45.65011" lon="5.95213">
        <ele>586</ele>
        <time>2012-04-01T11:28:37Z</time>
      </trkpt>
      <trkpt lat="45.6501" lon="5.95209">
        <ele>584.8</ele>
        <time>2012-04-01T11:28:42Z</time>
      </trkpt>
      <trkpt lat="45.65007" lon="5.9521">
        <ele>584</ele>
        <time>2012-04-01T11:28:47Z</time>
      </trkpt>
      <trkpt lat="45.65005" lon="5.95212">
        <ele>584</ele>
        <time>2012-04-01T11:28:52Z</time>
      </trkpt>
      <trkpt lat="45.65004" lon="5.95217">
        <ele>584.8</ele>
        <time>2012-04-01T11:28:57Z</time>
      </trkpt>
      <trkpt lat="45.65001" lon="5.9522">
        <ele>584.8</ele>
        <time>2012-04-01T11:29:02Z</time>
      </trkpt>
      <trkpt lat="45.65002" lon="5.95225">
        <ele>587</ele>
        <time>2012-04-01T11:29:07Z</time>
      </trkpt>
      <trkpt lat="45.65" lon="5.95227">
        <ele>587.2</ele>
        <time>2012-04-01T11:29:12Z</time>
      </trkpt>
      <trkpt lat="45.64991" lon="5.95226">
        <ele>587.7</ele>
        <time>2012-04-01T11:29:17Z</time>
      </trkpt>
      <trkpt lat="45.64985" lon="5.95227">
        <ele>589</ele>
        <time>2012-04-01T11:29:22Z</time>
      </trkpt>
      <trkpt lat="45.64977" lon="5.95228">
        <ele>590.2</ele>
        <time>2012-04-01T11:29:27Z</time>
      </trkpt>
      <trkpt lat="45.64974" lon="5.95225">
        <ele>589.6</ele>
        <time>2012-04-01T11:29:32Z</time>
      </trkpt>
      <trkpt lat="45.64976" lon="5.95222">
        <ele>588.3</ele>
        <time>2012-04-01T11:29:37Z</time>
      </trkpt>
      <trkpt lat="45.64978" lon="5.95222">
        <ele>588.2</ele>
        <time>2012-04-01T11:29:42Z</time>
      </trkpt>
      <trkpt lat="45.64979" lon="5.95223">
        <ele>588.2</ele>
        <time>2012-04-01T11:29:47Z</time>
      </trkpt>
      <trkpt lat="45.64974" lon="5.95219">
        <ele>588.1</ele>
        <time>2012-04-01T11:29:52Z</time>
      </trkpt>
      <trkpt lat="45.64972" lon="5.95218">
        <ele>588</ele>
        <time>2012-04-01T11:29:57Z</time>
      </trkpt>
      <trkpt lat="45.64971" lon="5.95216">
        <ele>587.7</ele>
        <time>2012-04-01T11:30:02Z</time>
      </trkpt>
      <trkpt lat="45.64973" lon="5.95215">
        <ele>587.4</ele>
        <time>2012-04-01T11:30:07Z</time>
      </trkpt>
      <trkpt lat="45.64972" lon="5.95216">
        <ele>587.7</ele>
        <time>2012-04-01T11:30:12Z</time>
      </trkpt>
      <trkpt lat="45.64967" lon="5.95219">
        <ele>588.9</ele>
        <time>2012-04-01T11:30:17Z</time>
      </trkpt>
      <trkpt lat="45.64967" lon="5.95219">
        <ele>589</ele>
        <time>2012-04-01T11:30:22Z</time>
      </trkpt>
      <trkpt lat="45.64966" lon="5.95224">
        <ele>590.3</ele>
        <time>2012-04-01T11:30:27Z</time>
      </trkpt>
      <trkpt lat="45.64965" lon="5.95227">
        <ele>591.8</ele>
        <time>2012-04-01T11:30:32Z</time>
      </trkpt>
      <trkpt lat="45.64963" lon="5.95228">
        <ele>592.4</ele>
        <time>2012-04-01T11:30:37Z</time>
      </trkpt>
      <trkpt lat="45.64961" lon="5.95231">
        <ele>593.7</ele>
        <time>2012-04-01T11:30:42Z</time>
      </trkpt>
      <trkpt lat="45.64957" lon="5.95232">
        <ele>594.6</ele>
        <time>2012-04-01T11:30:47Z</time>
      </trkpt>
      <trkpt lat="45.64955" lon="5.95233">
        <ele>595.2</ele>
        <time>2012-04-01T11:30:52Z</time>
      </trkpt>
      <trkpt lat="45.64955" lon="5.95232">
        <ele>595.3</ele>
        <time>2012-04-01T11:30:57Z</time>
      </trkpt>
      <trkpt lat="45.64952" lon="5.95232">
        <ele>595.7</ele>
        <time>2012-04-01T11:31:02Z</time>
      </trkpt>
      <trkpt lat="45.6495" lon="5.95229">
        <ele>594.6</ele>
        <time>2012-04-01T11:31:07Z</time>
      </trkpt>
      <trkpt lat="45.64948" lon="5.95227">
        <ele>594.2</ele>
        <time>2012-04-01T11:31:12Z</time>
      </trkpt>
      <trkpt lat="45.64947" lon="5.95225">
        <ele>593.7</ele>
        <time>2012-04-01T11:31:17Z</time>
      </trkpt>
      <trkpt lat="45.64947" lon="5.95225">
        <ele>593.5</ele>
        <time>2012-04-01T11:31:22Z</time>
      </trkpt>
      <trkpt lat="45.64946" lon="5.95226">
        <ele>594.1</ele>
        <time>2012-04-01T11:31:27Z</time>
      </trkpt>
      <trkpt lat="45.64945" lon="5.95227">
        <ele>594.8</ele>
        <time>2012-04-01T11:31:32Z</time>
      </trkpt>
      <trkpt lat="45.64945" lon="5.9523">
        <ele>596</ele>
        <time>2012-04-01T11:31:37Z</time>
      </trkpt>
      <trkpt lat="45.64946" lon="5.95232">
        <ele>596.5</ele>
        <time>2012-04-01T11:31:42Z</time>
      </trkpt>
      <trkpt lat="45.64946" lon="5.95232">
        <ele>596.6</ele>
        <time>2012-04-01T11:31:47Z</time>
      </trkpt>
      <trkpt lat="45.64947" lon="5.9523">
        <ele>595.8</ele>
        <time>2012-04-01T11:31:52Z</time>
      </trkpt>
      <trkpt lat="45.64944" lon="5.95229">
        <ele>595.6</ele>
        <time>2012-04-01T11:31:57Z</time>
      </trkpt>
      <trkpt lat="45.64945" lon="5.95225">
        <ele>594.1</ele>
        <time>2012-04-01T11:32:02Z</time>
      </trkpt>
      <trkpt lat="45.64946" lon="5.95224">
        <ele>593.3</ele>
        <time>2012-04-01T11:32:07Z</time>
      </trkpt>
      <trkpt lat="45.64944" lon="5.95222">
        <ele>593.3</ele>
        <time>2012-04-01T11:32:12Z</time>
      </trkpt>
      <trkpt lat="45.64945" lon="5.95224">
        <ele>593.4</ele>
        <time>2012-04-01T11:32:17Z</time>
      </trkpt>
      <trkpt lat="45.64946" lon="5.95224">
        <ele>593.6</ele>
        <time>2012-04-01T11:32:22Z</time>
      </trkpt>
      <trkpt lat="45.64947" lon="5.95226">
        <ele>593.9</ele>
        <time>2012-04-01T11:32:27Z</time>
      </trkpt>
      <trkpt lat="45.64946" lon="5.95226">
        <ele>594.2</ele>
        <time>2012-04-01T11:32:32Z</time>
      </trkpt>
      <trkpt lat="45.64946" lon="5.95226">
        <ele>594.4</ele>
        <time>2012-04-01T11:32:37Z</time>
      </trkpt>
      <trkpt lat="45.64944" lon="5.95229">
        <ele>595.9</ele>
        <time>2012-04-01T11:32:42Z</time>
      </trkpt>
      <trkpt lat="45.64942" lon="5.95225">
        <ele>595</ele>
        <time>2012-04-01T11:32:47Z</time>
      </trkpt>
      <trkpt lat="45.64942" lon="5.95216">
        <ele>591.8</ele>
        <time>2012-04-01T11:32:52Z</time>
      </trkpt>
      <trkpt lat="45.64939" lon="5.95204">
        <ele>588.3</ele>
        <time>2012-04-01T11:32:57Z</time>
      </trkpt>
      <trkpt lat="45.64937" lon="5.95197">
        <ele>586.3</ele>
        <time>2012-04-01T11:33:02Z</time>
      </trkpt>
      <trkpt lat="45.64936" lon="5.95186">
        <ele>583.9</ele>
        <time>2012-04-01T11:33:07Z</time>
      </trkpt>
      <trkpt lat="45.64936" lon="5.95177">
        <ele>581.9</ele>
        <time>2012-04-01T11:33:12Z</time>
      </trkpt>
      <trkpt lat="45.64934" lon="5.95164">
        <ele>579.1</ele>
        <time>2012-04-01T11:33:17Z</time>
      </trkpt>
      <trkpt lat="45.64932" lon="5.95154">
        <ele>577.2</ele>
        <time>2012-04-01T11:33:22Z</time>
      </trkpt>
      <trkpt lat="45.64933" lon="5.95154">
        <ele>577.2</ele>
        <time>2012-04-01T11:33:27Z</time>
      </trkpt>
      <trkpt lat="45.64935" lon="5.95157">
        <ele>577.8</ele>
        <time>2012-04-01T11:33:32Z</time>
      </trkpt>
      <trkpt lat="45.64935" lon="5.95155">
        <ele>577.4</ele>
        <time>2012-04-01T11:33:37Z</time>
      </trkpt>
      <trkpt lat="45.64938" lon="5.95143">
        <ele>575</ele>
        <time>2012-04-01T11:33:42Z</time>
      </trkpt>
      <trkpt lat="45.64941" lon="5.95134">
        <ele>572.5</ele>
        <time>2012-04-01T11:33:47Z</time>
      </trkpt>
      <trkpt lat="45.64942" lon="5.95124">
        <ele>569.4</ele>
        <time>2012-04-01T11:33:52Z</time>
      </trkpt>
      <trkpt lat="45.64944" lon="5.95111">
        <ele>565.1</ele>
        <time>2012-04-01T11:33:57Z</time>
      </trkpt>
      <trkpt lat="45.64945" lon="5.95106">
        <ele>564.1</ele>
        <time>2012-04-01T11:34:02Z</time>
      </trkpt>
      <trkpt lat="45.64943" lon="5.95105">
        <ele>564.3</ele>
        <time>2012-04-01T11:34:07Z</time>
      </trkpt>
      <trkpt lat="45.64944" lon="5.95098">
        <ele>562.6</ele>
        <time>2012-04-01T11:34:12Z</time>
      </trkpt>
      <trkpt lat="45.64946" lon="5.95086">
        <ele>560.4</ele>
        <time>2012-04-01T11:34:17Z</time>
      </trkpt>
      <trkpt lat="45.64949" lon="5.95079">
        <ele>559.1</ele>
        <time>2012-04-01T11:34:22Z</time>
      </trkpt>
      <trkpt lat="45.6495" lon="5.95075">
        <ele>558.2</ele>
        <time>2012-04-01T11:34:27Z</time>
      </trkpt>
      <trkpt lat="45.64948" lon="5.95073">
        <ele>557.9</ele>
        <time>2012-04-01T11:34:32Z</time>
      </trkpt>
      <trkpt lat="45.64947" lon="5.95071">
        <ele>557.7</ele>
        <time>2012-04-01T11:34:37Z</time>
      </trkpt>
      <trkpt lat="45.64946" lon="5.95069">
        <ele>557.3</ele>
        <time>2012-04-01T11:34:42Z</time>
      </trkpt>
      <trkpt lat="45.64946" lon="5.95065">
        <ele>556.5</ele>
        <time>2012-04-01T11:34:47Z</time>
      </trkpt>
      <trkpt lat="45.64943" lon="5.95043">
        <ele>552.4</ele>
        <time>2012-04-01T11:34:52Z</time>
      </trkpt>
      <trkpt lat="45.64936" lon="5.9503">
        <ele>550.1</ele>
        <time>2012-04-01T11:34:57Z</time>
      </trkpt>
      <trkpt lat="45.64931" lon="5.95028">
        <ele>550</ele>
        <time>2012-04-01T11:35:02Z</time>
      </trkpt>
      <trkpt lat="45.64924" lon="5.95028">
        <ele>550.5</ele>
        <time>2012-04-01T11:35:07Z</time>
      </trkpt>
      <trkpt lat="45.64915" lon="5.9503">
        <ele>552.2</ele>
        <time>2012-04-01T11:35:12Z</time>
      </trkpt>
      <trkpt lat="45.64908" lon="5.9503">
        <ele>554.9</ele>
        <time>2012-04-01T11:35:17Z</time>
      </trkpt>
      <trkpt lat="45.64907" lon="5.9503">
        <ele>555.5</ele>
        <time>2012-04-01T11:35:22Z</time>
      </trkpt>
      <trkpt lat="45.64904" lon="5.95029">
        <ele>556.1</ele>
        <time>2012-04-01T11:35:27Z</time>
      </trkpt>
      <trkpt lat="45.64905" lon="5.95028">
        <ele>555.7</ele>
        <time>2012-04-01T11:35:32Z</time>
      </trkpt>
      <trkpt lat="45.64901" lon="5.95025">
        <ele>557.2</ele>
        <time>2012-04-01T11:35:37Z</time>
      </trkpt>
      <trkpt lat="45.64895" lon="5.95024">
        <ele>559.4</ele>
        <time>2012-04-01T11:35:42Z</time>
      </trkpt>
      <trkpt lat="45.6489" lon="5.95023">
        <ele>561.3</ele>
        <time>2012-04-01T11:35:47Z</time>
      </trkpt>
      <trkpt lat="45.64886" lon="5.95023">
        <ele>563</ele>
        <time>2012-04-01T11:35:52Z</time>
      </trkpt>
      <trkpt lat="45.64882" lon="5.9502">
        <ele>564.1</ele>
        <time>2012-04-01T11:35:57Z</time>
      </trkpt>
      <trkpt lat="45.6488" lon="5.9502">
        <ele>564.7</ele>
        <time>2012-04-01T11:36:02Z</time>
      </trkpt>
      <trkpt lat="45.64875" lon="5.9502">
        <ele>566.4</ele>
        <time>2012-04-01T11:36:07Z</time>
      </trkpt>
      <trkpt lat="45.64869" lon="5.9502">
        <ele>568.7</ele>
        <time>2012-04-01T11:36:12Z</time>
      </trkpt>
      <trkpt lat="45.64863" lon="5.95021">
        <ele>570.6</ele>
        <time>2012-04-01T11:36:17Z</time>
      </trkpt>
      <trkpt lat="45.64855" lon="5.9502">
        <ele>572.2</ele>
        <time>2012-04-01T11:36:22Z</time>
      </trkpt>
      <trkpt lat="45.64852" lon="5.95018">
        <ele>572.4</ele>
        <time>2012-04-01T11:36:27Z</time>
      </trkpt>
      <trkpt lat="45.64849" lon="5.95018">
        <ele>572.7</ele>
        <time>2012-04-01T11:36:32Z</time>
      </trkpt>
      <trkpt lat="45.64847" lon="5.95018">
        <ele>572.9</ele>
        <time>2012-04-01T11:36:37Z</time>
      </trkpt>
      <trkpt lat="45.64844" lon="5.9502">
        <ele>574.1</ele>
        <time>2012-04-01T11:36:42Z</time>
      </trkpt>
      <trkpt lat="45.64843" lon="5.95024">
        <ele>575.1</ele>
        <time>2012-04-01T11:36:47Z</time>
      </trkpt>
      <trkpt lat="45.64842" lon="5.9503">
        <ele>576.8</ele>
        <time>2012-04-01T11:36:52Z</time>
      </trkpt>
      <trkpt lat="45.64841" lon="5.95036">
        <ele>578.9</ele>
        <time>2012-04-01T11:36:57Z</time>
      </trkpt>
      <trkpt lat="45.64839" lon="5.95038">
        <ele>580</ele>
        <time>2012-04-01T11:37:02Z</time>
      </trkpt>
      <trkpt lat="45.64836" lon="5.9504">
        <ele>581.2</ele>
        <time>2012-04-01T11:37:07Z</time>
      </trkpt>
      <trkpt lat="45.64835" lon="5.95043">
        <ele>582.5</ele>
        <time>2012-04-01T11:37:12Z</time>
      </trkpt>
      <trkpt lat="45.64831" lon="5.95046">
        <ele>584.2</ele>
        <time>2012-04-01T11:37:17Z</time>
      </trkpt>
      <trkpt lat="45.64829" lon="5.95052">
        <ele>586</ele>
        <time>2012-04-01T11:37:22Z</time>
      </trkpt>
      <trkpt lat="45.64827" lon="5.95055">
        <ele>587.1</ele>
        <time>2012-04-01T11:37:27Z</time>
      </trkpt>
      <trkpt lat="45.64826" lon="5.95056">
        <ele>587.3</ele>
        <time>2012-04-01T11:37:32Z</time>
      </trkpt>
      <trkpt lat="45.64827" lon="5.95055">
        <ele>587</ele>
        <time>2012-04-01T11:37:37Z</time>
      </trkpt>
      <trkpt lat="45.64828" lon="5.95055">
        <ele>587.1</ele>
        <time>2012-04-01T11:37:42Z</time>
      </trkpt>
      <trkpt lat="45.64826" lon="5.95055">
        <ele>587.2</ele>
        <time>2012-04-01T11:37:47Z</time>
      </trkpt>
      <trkpt lat="45.64823" lon="5.95057">
        <ele>587.5</ele>
        <time>2012-04-01T11:37:52Z</time>
      </trkpt>
      <trkpt lat="45.64824" lon="5.95061">
        <ele>587.9</ele>
        <time>2012-04-01T11:37:57Z</time>
      </trkpt>
      <trkpt lat="45.64823" lon="5.95064">
        <ele>588.2</ele>
        <time>2012-04-01T11:38:02Z</time>
      </trkpt>
      <trkpt lat="45.64823" lon="5.95066">
        <ele>588.5</ele>
        <time>2012-04-01T11:38:07Z</time>
      </trkpt>
      <trkpt lat="45.64822" lon="5.95066">
        <ele>588.4</ele>
        <time>2012-04-01T11:38:12Z</time>
      </trkpt>
      <trkpt lat="45.64824" lon="5.95065">
        <ele>588.2</ele>
        <time>2012-04-01T11:38:17Z</time>
      </trkpt>
      <trkpt lat="45.64826" lon="5.95065">
        <ele>588.1</ele>
        <time>2012-04-01T11:38:22Z</time>
      </trkpt>
      <trkpt lat="45.64827" lon="5.95064">
        <ele>588</ele>
        <time>2012-04-01T11:38:27Z</time>
      </trkpt>
      <trkpt lat="45.64825" lon="5.95067">
        <ele>588.3</ele>
        <time>2012-04-01T11:38:32Z</time>
      </trkpt>
      <trkpt lat="45.64825" lon="5.95066">
        <ele>588.3</ele>
        <time>2012-04-01T11:38:37Z</time>
      </trkpt>
      <trkpt lat="45.64825" lon="5.95065">
        <ele>588.2</ele>
        <time>2012-04-01T11:38:47Z</time>
      </trkpt>
      <trkpt lat="45.64823" lon="5.95062">
        <ele>588</ele>
        <time>2012-04-01T11:38:52Z</time>
      </trkpt>
      <trkpt lat="45.64818" lon="5.95056">
        <ele>587.5</ele>
        <time>2012-04-01T11:38:57Z</time>
      </trkpt>
      <trkpt lat="45.64811" lon="5.95048">
        <ele>586.2</ele>
        <time>2012-04-01T11:39:02Z</time>
      </trkpt>
      <trkpt lat="45.64804" lon="5.95038">
        <ele>584.9</ele>
        <time>2012-04-01T11:39:07Z</time>
      </trkpt>
      <trkpt lat="45.64792" lon="5.95036">
        <ele>585.4</ele>
        <time>2012-04-01T11:39:12Z</time>
      </trkpt>
      <trkpt lat="45.64781" lon="5.95034">
        <ele>585.8</ele>
        <time>2012-04-01T11:39:17Z</time>
      </trkpt>
      <trkpt lat="45.64775" lon="5.95032">
        <ele>585.8</ele>
        <time>2012-04-01T11:39:22Z</time>
      </trkpt>
      <trkpt lat="45.64772" lon="5.95032">
        <ele>586</ele>
        <time>2012-04-01T11:39:27Z</time>
      </trkpt>
      <trkpt lat="45.64769" lon="5.95031">
        <ele>586.1</ele>
        <time>2012-04-01T11:39:32Z</time>
      </trkpt>
      <trkpt lat="45.6476" lon="5.95029">
        <ele>586.4</ele>
        <time>2012-04-01T11:39:37Z</time>
      </trkpt>
      <trkpt lat="45.64752" lon="5.95033">
        <ele>587.2</ele>
        <time>2012-04-01T11:39:42Z</time>
      </trkpt>
      <trkpt lat="45.64738" lon="5.9504">
        <ele>585.4</ele>
        <time>2012-04-01T11:39:47Z</time>
      </trkpt>
      <trkpt lat="45.64729" lon="5.9505">
        <ele>585.4</ele>
        <time>2012-04-01T11:39:52Z</time>
      </trkpt>
      <trkpt lat="45.64716" lon="5.95051">
        <ele>583.3</ele>
        <time>2012-04-01T11:39:57Z</time>
      </trkpt>
      <trkpt lat="45.64709" lon="5.95052">
        <ele>582.1</ele>
        <time>2012-04-01T11:40:02Z</time>
      </trkpt>
      <trkpt lat="45.64705" lon="5.95056">
        <ele>582.3</ele>
        <time>2012-04-01T11:40:07Z</time>
      </trkpt>
      <trkpt lat="45.64702" lon="5.95063">
        <ele>583.6</ele>
        <time>2012-04-01T11:40:12Z</time>
      </trkpt>
      <trkpt lat="45.647" lon="5.95066">
        <ele>584.3</ele>
        <time>2012-04-01T11:40:17Z</time>
      </trkpt>
      <trkpt lat="45.64698" lon="5.95069">
        <ele>584.7</ele>
        <time>2012-04-01T11:40:22Z</time>
      </trkpt>
      <trkpt lat="45.64696" lon="5.95074">
        <ele>586.1</ele>
        <time>2012-04-01T11:40:27Z</time>
      </trkpt>
      <trkpt lat="45.64694" lon="5.95074">
        <ele>586</ele>
        <time>2012-04-01T11:40:32Z</time>
      </trkpt>
      <trkpt lat="45.64686" lon="5.95075">
        <ele>584.6</ele>
        <time>2012-04-01T11:40:37Z</time>
      </trkpt>
      <trkpt lat="45.64676" lon="5.95075">
        <ele>582</ele>
        <time>2012-04-01T11:40:42Z</time>
      </trkpt>
      <trkpt lat="45.64671" lon="5.95076">
        <ele>581.4</ele>
        <time>2012-04-01T11:40:47Z</time>
      </trkpt>
      <trkpt lat="45.64668" lon="5.95079">
        <ele>581.4</ele>
        <time>2012-04-01T11:40:52Z</time>
      </trkpt>
      <trkpt lat="45.64662" lon="5.95081">
        <ele>580.9</ele>
        <time>2012-04-01T11:40:57Z</time>
      </trkpt>
      <trkpt lat="45.64655" lon="5.95083">
        <ele>579.9</ele>
        <time>2012-04-01T11:41:02Z</time>
      </trkpt>
      <trkpt lat="45.64647" lon="5.95088">
        <ele>579.6</ele>
        <time>2012-04-01T11:41:07Z</time>
      </trkpt>
      <trkpt lat="45.64641" lon="5.95091">
        <ele>579.2</ele>
        <time>2012-04-01T11:41:12Z</time>
      </trkpt>
      <trkpt lat="45.64638" lon="5.95093">
        <ele>579.5</ele>
        <time>2012-04-01T11:41:17Z</time>
      </trkpt>
      <trkpt lat="45.64635" lon="5.95097">
        <ele>580.5</ele>
        <time>2012-04-01T11:41:22Z</time>
      </trkpt>
      <trkpt lat="45.64631" lon="5.95103">
        <ele>582.4</ele>
        <time>2012-04-01T11:41:27Z</time>
      </trkpt>
      <trkpt lat="45.64628" lon="5.95107">
        <ele>583.9</ele>
        <time>2012-04-01T11:41:32Z</time>
      </trkpt>
      <trkpt lat="45.64618" lon="5.95106">
        <ele>583</ele>
        <time>2012-04-01T11:41:37Z</time>
      </trkpt>
      <trkpt lat="45.6461" lon="5.95105">
        <ele>581.7</ele>
        <time>2012-04-01T11:41:42Z</time>
      </trkpt>
      <trkpt lat="45.64609" lon="5.95104">
        <ele>581.4</ele>
        <time>2012-04-01T11:41:47Z</time>
      </trkpt>
      <trkpt lat="45.64609" lon="5.95104">
        <ele>581.2</ele>
        <time>2012-04-01T11:41:52Z</time>
      </trkpt>
      <trkpt lat="45.64607" lon="5.95102">
        <ele>580.4</ele>
        <time>2012-04-01T11:41:57Z</time>
      </trkpt>
      <trkpt lat="45.64605" lon="5.95103">
        <ele>580.9</ele>
        <time>2012-04-01T11:42:02Z</time>
      </trkpt>
      <trkpt lat="45.64603" lon="5.95102">
        <ele>580.5</ele>
        <time>2012-04-01T11:42:07Z</time>
      </trkpt>
      <trkpt lat="45.64603" lon="5.95102">
        <ele>580.4</ele>
        <time>2012-04-01T11:42:12Z</time>
      </trkpt>
      <trkpt lat="45.64598" lon="5.95099">
        <ele>579.5</ele>
        <time>2012-04-01T11:42:17Z</time>
      </trkpt>
      <trkpt lat="45.64599" lon="5.95091">
        <ele>576.4</ele>
        <time>2012-04-01T11:42:22Z</time>
      </trkpt>
      <trkpt lat="45.646" lon="5.95091">
        <ele>576.4</ele>
        <time>2012-04-01T11:42:27Z</time>
      </trkpt>
      <trkpt lat="45.64603" lon="5.95092">
        <ele>576.4</ele>
        <time>2012-04-01T11:42:32Z</time>
      </trkpt>
      <trkpt lat="45.64606" lon="5.95092">
        <ele>575.8</ele>
        <time>2012-04-01T11:42:37Z</time>
      </trkpt>
      <trkpt lat="45.64606" lon="5.95091">
        <ele>575.5</ele>
        <time>2012-04-01T11:42:42Z</time>
      </trkpt>
      <trkpt lat="45.64606" lon="5.9509">
        <ele>574.9</ele>
        <time>2012-04-01T11:42:47Z</time>
      </trkpt>
      <trkpt lat="45.64603" lon="5.95089">
        <ele>575.1</ele>
        <time>2012-04-01T11:42:52Z</time>
      </trkpt>
      <trkpt lat="45.64601" lon="5.95089">
        <ele>575.5</ele>
        <time>2012-04-01T11:42:57Z</time>
      </trkpt>
      <trkpt lat="45.64599" lon="5.9509">
        <ele>576.1</ele>
        <time>2012-04-01T11:43:02Z</time>
      </trkpt>
      <trkpt lat="45.64596" lon="5.9509">
        <ele>576.6</ele>
        <time>2012-04-01T11:43:07Z</time>
      </trkpt>
      <trkpt lat="45.64597" lon="5.95092">
        <ele>576.9</ele>
        <time>2012-04-01T11:43:12Z</time>
      </trkpt>
      <trkpt lat="45.64598" lon="5.9509">
        <ele>576.2</ele>
        <time>2012-04-01T11:43:17Z</time>
      </trkpt>
      <trkpt lat="45.64595" lon="5.95089">
        <ele>576.2</ele>
        <time>2012-04-01T11:43:22Z</time>
      </trkpt>
      <trkpt lat="45.64594" lon="5.95087">
        <ele>576</ele>
        <time>2012-04-01T11:43:27Z</time>
      </trkpt>
      <trkpt lat="45.64592" lon="5.95086">
        <ele>575.7</ele>
        <time>2012-04-01T11:43:32Z</time>
      </trkpt>
      <trkpt lat="45.64594" lon="5.95084">
        <ele>574.9</ele>
        <time>2012-04-01T11:43:37Z</time>
      </trkpt>
      <trkpt lat="45.64595" lon="5.95086">
        <ele>575.3</ele>
        <time>2012-04-01T11:43:42Z</time>
      </trkpt>
      <trkpt lat="45.64595" lon="5.95088">
        <ele>576</ele>
        <time>2012-04-01T11:43:47Z</time>
      </trkpt>
      <trkpt lat="45.64596" lon="5.95091">
        <ele>577</ele>
        <time>2012-04-01T11:43:52Z</time>
      </trkpt>
      <trkpt lat="45.64602" lon="5.95092">
        <ele>576.7</ele>
        <time>2012-04-01T11:43:57Z</time>
      </trkpt>
      <trkpt lat="45.646" lon="5.95095">
        <ele>577.9</ele>
        <time>2012-04-01T11:44:02Z</time>
      </trkpt>
      <trkpt lat="45.64605" lon="5.95092">
        <ele>576.3</ele>
        <time>2012-04-01T11:44:07Z</time>
      </trkpt>
      <trkpt lat="45.64604" lon="5.95091">
        <ele>576</ele>
        <time>2012-04-01T11:44:12Z</time>
      </trkpt>
      <trkpt lat="45.64596" lon="5.9508">
        <ele>573.5</ele>
        <time>2012-04-01T11:44:17Z</time>
      </trkpt>
      <trkpt lat="45.64585" lon="5.95056">
        <ele>572.4</ele>
        <time>2012-04-01T11:44:22Z</time>
      </trkpt>
      <trkpt lat="45.64582" lon="5.9504">
        <ele>570.5</ele>
        <time>2012-04-01T11:44:27Z</time>
      </trkpt>
      <trkpt lat="45.64564" lon="5.95022">
        <ele>569.7</ele>
        <time>2012-04-01T11:44:32Z</time>
      </trkpt>
      <trkpt lat="45.64543" lon="5.94988">
        <ele>561.6</ele>
        <time>2012-04-01T11:44:37Z</time>
      </trkpt>
      <trkpt lat="45.64513" lon="5.94941">
        <ele>554.2</ele>
        <time>2012-04-01T11:44:42Z</time>
      </trkpt>
      <trkpt lat="45.64499" lon="5.94905">
        <ele>550.9</ele>
        <time>2012-04-01T11:44:47Z</time>
      </trkpt>
      <trkpt lat="45.64492" lon="5.94883">
        <ele>547.5</ele>
        <time>2012-04-01T11:44:52Z</time>
      </trkpt>
      <trkpt lat="45.64482" lon="5.9486">
        <ele>543.6</ele>
        <time>2012-04-01T11:44:57Z</time>
      </trkpt>
      <trkpt lat="45.64484" lon="5.94834">
        <ele>540</ele>
        <time>2012-04-01T11:45:02Z</time>
      </trkpt>
      <trkpt lat="45.64494" lon="5.94818">
        <ele>536.1</ele>
        <time>2012-04-01T11:45:07Z</time>
      </trkpt>
      <trkpt lat="45.64502" lon="5.9479">
        <ele>527.9</ele>
        <time>2012-04-01T11:45:12Z</time>
      </trkpt>
      <trkpt lat="45.64488" lon="5.94752">
        <ele>525</ele>
        <time>2012-04-01T11:45:17Z</time>
      </trkpt>
      <trkpt lat="45.64477" lon="5.94723">
        <ele>522.5</ele>
        <time>2012-04-01T11:45:22Z</time>
      </trkpt>
      <trkpt lat="45.64478" lon="5.947">
        <ele>520.3</ele>
        <time>2012-04-01T11:45:27Z</time>
      </trkpt>
      <trkpt lat="45.64475" lon="5.94684">
        <ele>518.7</ele>
        <time>2012-04-01T11:45:32Z</time>
      </trkpt>
      <trkpt lat="45.64471" lon="5.94673">
        <ele>517.1</ele>
        <time>2012-04-01T11:45:37Z</time>
      </trkpt>
      <trkpt lat="45.64462" lon="5.9466">
        <ele>514.2</ele>
        <time>2012-04-01T11:45:42Z</time>
      </trkpt>
      <trkpt lat="45.64454" lon="5.94647">
        <ele>510.7</ele>
        <time>2012-04-01T11:45:47Z</time>
      </trkpt>
      <trkpt lat="45.64456" lon="5.94631">
        <ele>505.9</ele>
        <time>2012-04-01T11:45:52Z</time>
      </trkpt>
      <trkpt lat="45.64443" lon="5.94615">
        <ele>499.3</ele>
        <time>2012-04-01T11:45:57Z</time>
      </trkpt>
      <trkpt lat="45.64435" lon="5.94588">
        <ele>491.6</ele>
        <time>2012-04-01T11:46:02Z</time>
      </trkpt>
      <trkpt lat="45.64423" lon="5.94562">
        <ele>489.5</ele>
        <time>2012-04-01T11:46:07Z</time>
      </trkpt>
      <trkpt lat="45.6442" lon="5.9454">
        <ele>487.5</ele>
        <time>2012-04-01T11:46:12Z</time>
      </trkpt>
      <trkpt lat="45.6442" lon="5.94516">
        <ele>484.3</ele>
        <time>2012-04-01T11:46:17Z</time>
      </trkpt>
      <trkpt lat="45.64416" lon="5.94488">
        <ele>479.4</ele>
        <time>2012-04-01T11:46:22Z</time>
      </trkpt>
      <trkpt lat="45.6441" lon="5.94462">
        <ele>473.5</ele>
        <time>2012-04-01T11:46:27Z</time>
      </trkpt>
      <trkpt lat="45.64405" lon="5.94446">
        <ele>469.9</ele>
        <time>2012-04-01T11:46:32Z</time>
      </trkpt>
      <trkpt lat="45.64399" lon="5.94445">
        <ele>469.4</ele>
        <time>2012-04-01T11:46:37Z</time>
      </trkpt>
      <trkpt lat="45.6439" lon="5.94444">
        <ele>468.8</ele>
        <time>2012-04-01T11:46:42Z</time>
      </trkpt>
      <trkpt lat="45.64376" lon="5.94444">
        <ele>467.3</ele>
        <time>2012-04-01T11:46:47Z</time>
      </trkpt>
      <trkpt lat="45.64363" lon="5.94459">
        <ele>469.7</ele>
        <time>2012-04-01T11:46:52Z</time>
      </trkpt>
      <trkpt lat="45.64349" lon="5.94455">
        <ele>469.1</ele>
        <time>2012-04-01T11:46:57Z</time>
      </trkpt>
      <trkpt lat="45.6433" lon="5.9445">
        <ele>468.2</ele>
        <time>2012-04-01T11:47:02Z</time>
      </trkpt>
      <trkpt lat="45.64309" lon="5.94468">
        <ele>467.2</ele>
        <time>2012-04-01T11:47:07Z</time>
      </trkpt>
      <trkpt lat="45.64298" lon="5.94492">
        <ele>466.1</ele>
        <time>2012-04-01T11:47:12Z</time>
      </trkpt>
      <trkpt lat="45.64284" lon="5.94519">
        <ele>464.7</ele>
        <time>2012-04-01T11:47:17Z</time>
      </trkpt>
      <trkpt lat="45.64263" lon="5.94524">
        <ele>463</ele>
        <time>2012-04-01T11:47:22Z</time>
      </trkpt>
      <trkpt lat="45.64242" lon="5.94508">
        <ele>460.4</ele>
        <time>2012-04-01T11:47:27Z</time>
      </trkpt>
      <trkpt lat="45.64217" lon="5.94481">
        <ele>456</ele>
        <time>2012-04-01T11:47:32Z</time>
      </trkpt>
      <trkpt lat="45.64201" lon="5.94452">
        <ele>452.4</ele>
        <time>2012-04-01T11:47:37Z</time>
      </trkpt>
      <trkpt lat="45.64197" lon="5.94412">
        <ele>447.6</ele>
        <time>2012-04-01T11:47:42Z</time>
      </trkpt>
      <trkpt lat="45.64194" lon="5.94386">
        <ele>444.7</ele>
        <time>2012-04-01T11:47:47Z</time>
      </trkpt>
      <trkpt lat="45.64182" lon="5.94377">
        <ele>444.2</ele>
        <time>2012-04-01T11:47:52Z</time>
      </trkpt>
      <trkpt lat="45.64178" lon="5.94354">
        <ele>441.5</ele>
        <time>2012-04-01T11:47:57Z</time>
      </trkpt>
      <trkpt lat="45.64156" lon="5.9435">
        <ele>441.4</ele>
        <time>2012-04-01T11:48:02Z</time>
      </trkpt>
      <trkpt lat="45.64138" lon="5.94348">
        <ele>441.2</ele>
        <time>2012-04-01T11:48:07Z</time>
      </trkpt>
      <trkpt lat="45.64129" lon="5.94343">
        <ele>441.6</ele>
        <time>2012-04-01T11:48:12Z</time>
      </trkpt>
      <trkpt lat="45.64122" lon="5.94341">
        <ele>442.2</ele>
        <time>2012-04-01T11:48:17Z</time>
      </trkpt>
      <trkpt lat="45.64108" lon="5.94334">
        <ele>443.5</ele>
        <time>2012-04-01T11:48:22Z</time>
      </trkpt>
      <trkpt lat="45.64096" lon="5.94329">
        <ele>444.5</ele>
        <time>2012-04-01T11:48:27Z</time>
      </trkpt>
      <trkpt lat="45.64078" lon="5.94318">
        <ele>444.9</ele>
        <time>2012-04-01T11:48:32Z</time>
      </trkpt>
      <trkpt lat="45.64065" lon="5.94317">
        <ele>446.2</ele>
        <time>2012-04-01T11:48:37Z</time>
      </trkpt>
      <trkpt lat="45.64046" lon="5.94316">
        <ele>446.9</ele>
        <time>2012-04-01T11:48:42Z</time>
      </trkpt>
      <trkpt lat="45.64028" lon="5.94316">
        <ele>446.5</ele>
        <time>2012-04-01T11:48:47Z</time>
      </trkpt>
      <trkpt lat="45.64019" lon="5.9432">
        <ele>448</ele>
        <time>2012-04-01T11:48:52Z</time>
      </trkpt>
      <trkpt lat="45.64011" lon="5.94325">
        <ele>449.3</ele>
        <time>2012-04-01T11:48:57Z</time>
      </trkpt>
      <trkpt lat="45.63998" lon="5.94323">
        <ele>450.5</ele>
        <time>2012-04-01T11:49:02Z</time>
      </trkpt>
      <trkpt lat="45.63988" lon="5.94319">
        <ele>451.1</ele>
        <time>2012-04-01T11:49:07Z</time>
      </trkpt>
      <trkpt lat="45.63977" lon="5.94314">
        <ele>451.6</ele>
        <time>2012-04-01T11:49:12Z</time>
      </trkpt>
      <trkpt lat="45.63958" lon="5.94302">
        <ele>450.3</ele>
        <time>2012-04-01T11:49:17Z</time>
      </trkpt>
      <trkpt lat="45.63943" lon="5.94294">
        <ele>449.5</ele>
        <time>2012-04-01T11:49:22Z</time>
      </trkpt>
      <trkpt lat="45.63922" lon="5.94284">
        <ele>450.3</ele>
        <time>2012-04-01T11:49:27Z</time>
      </trkpt>
      <trkpt lat="45.63888" lon="5.94271">
        <ele>448.3</ele>
        <time>2012-04-01T11:49:32Z</time>
      </trkpt>
      <trkpt lat="45.63876" lon="5.94275">
        <ele>448.7</ele>
        <time>2012-04-01T11:49:37Z</time>
      </trkpt>
      <trkpt lat="45.63866" lon="5.94283">
        <ele>450.2</ele>
        <time>2012-04-01T11:49:42Z</time>
      </trkpt>
      <trkpt lat="45.63858" lon="5.94294">
        <ele>453.4</ele>
        <time>2012-04-01T11:49:47Z</time>
      </trkpt>
      <trkpt lat="45.63852" lon="5.94293">
        <ele>454</ele>
        <time>2012-04-01T11:49:52Z</time>
      </trkpt>
      <trkpt lat="45.63838" lon="5.94278">
        <ele>452.4</ele>
        <time>2012-04-01T11:49:57Z</time>
      </trkpt>
      <trkpt lat="45.63819" lon="5.94276">
        <ele>451.5</ele>
        <time>2012-04-01T11:50:02Z</time>
      </trkpt>
      <trkpt lat="45.63807" lon="5.94287">
        <ele>454.2</ele>
        <time>2012-04-01T11:50:07Z</time>
      </trkpt>
      <trkpt lat="45.638" lon="5.94292">
        <ele>456.2</ele>
        <time>2012-04-01T11:50:12Z</time>
      </trkpt>
      <trkpt lat="45.63793" lon="5.94295">
        <ele>457.3</ele>
        <time>2012-04-01T11:50:17Z</time>
      </trkpt>
      <trkpt lat="45.63782" lon="5.94297">
        <ele>458.3</ele>
        <time>2012-04-01T11:50:22Z</time>
      </trkpt>
      <trkpt lat="45.63773" lon="5.94303">
        <ele>459.7</ele>
        <time>2012-04-01T11:50:27Z</time>
      </trkpt>
      <trkpt lat="45.63759" lon="5.94309">
        <ele>459.7</ele>
        <time>2012-04-01T11:50:32Z</time>
      </trkpt>
      <trkpt lat="45.63742" lon="5.94316">
        <ele>460.6</ele>
        <time>2012-04-01T11:50:37Z</time>
      </trkpt>
      <trkpt lat="45.63726" lon="5.94321">
        <ele>461.7</ele>
        <time>2012-04-01T11:50:42Z</time>
      </trkpt>
      <trkpt lat="45.63713" lon="5.94325">
        <ele>462.7</ele>
        <time>2012-04-01T11:50:47Z</time>
      </trkpt>
      <trkpt lat="45.63701" lon="5.94327">
        <ele>463.4</ele>
        <time>2012-04-01T11:50:52Z</time>
      </trkpt>
      <trkpt lat="45.63689" lon="5.94325">
        <ele>463.1</ele>
        <time>2012-04-01T11:50:57Z</time>
      </trkpt>
      <trkpt lat="45.63674" lon="5.94327">
        <ele>464.2</ele>
        <time>2012-04-01T11:51:02Z</time>
      </trkpt>
      <trkpt lat="45.63666" lon="5.94328">
        <ele>465</ele>
        <time>2012-04-01T11:51:07Z</time>
      </trkpt>
      <trkpt lat="45.63653" lon="5.94331">
        <ele>469.2</ele>
        <time>2012-04-01T11:51:12Z</time>
      </trkpt>
      <trkpt lat="45.63642" lon="5.94334">
        <ele>472.3</ele>
        <time>2012-04-01T11:51:17Z</time>
      </trkpt>
      <trkpt lat="45.63636" lon="5.94335">
        <ele>474</ele>
        <time>2012-04-01T11:51:22Z</time>
      </trkpt>
      <trkpt lat="45.63627" lon="5.94332">
        <ele>475.9</ele>
        <time>2012-04-01T11:51:27Z</time>
      </trkpt>
      <trkpt lat="45.63621" lon="5.9433">
        <ele>477.2</ele>
        <time>2012-04-01T11:51:32Z</time>
      </trkpt>
      <trkpt lat="45.63613" lon="5.94322">
        <ele>477.5</ele>
        <time>2012-04-01T11:51:37Z</time>
      </trkpt>
      <trkpt lat="45.63613" lon="5.9432">
        <ele>477.3</ele>
        <time>2012-04-01T11:51:42Z</time>
      </trkpt>
      <trkpt lat="45.63613" lon="5.9432">
        <ele>477.3</ele>
        <time>2012-04-01T11:51:47Z</time>
      </trkpt>
      <trkpt lat="45.63614" lon="5.94321">
        <ele>477.2</ele>
        <time>2012-04-01T11:51:52Z</time>
      </trkpt>
      <trkpt lat="45.63613" lon="5.94321">
        <ele>477.3</ele>
        <time>2012-04-01T11:51:57Z</time>
      </trkpt>
      <trkpt lat="45.63615" lon="5.94321">
        <ele>477</ele>
        <time>2012-04-01T11:52:02Z</time>
      </trkpt>
      <trkpt lat="45.63615" lon="5.94321">
        <ele>477.1</ele>
        <time>2012-04-01T11:52:07Z</time>
      </trkpt>
      <trkpt lat="45.63614" lon="5.94321">
        <ele>477.2</ele>
        <time>2012-04-01T11:52:12Z</time>
      </trkpt>
      <trkpt lat="45.63609" lon="5.94309">
        <ele>476</ele>
        <time>2012-04-01T11:52:17Z</time>
      </trkpt>
      <trkpt lat="45.63587" lon="5.94289">
        <ele>474.9</ele>
        <time>2012-04-01T11:52:22Z</time>
      </trkpt>
      <trkpt lat="45.63566" lon="5.94283">
        <ele>475.3</ele>
        <time>2012-04-01T11:52:27Z</time>
      </trkpt>
      <trkpt lat="45.63555" lon="5.94272">
        <ele>474.7</ele>
        <time>2012-04-01T11:52:32Z</time>
      </trkpt>
      <trkpt lat="45.63542" lon="5.94253">
        <ele>473.9</ele>
        <time>2012-04-01T11:52:37Z</time>
      </trkpt>
      <trkpt lat="45.63522" lon="5.94244">
        <ele>472.7</ele>
        <time>2012-04-01T11:52:42Z</time>
      </trkpt>
      <trkpt lat="45.635" lon="5.94244">
        <ele>473.9</ele>
        <time>2012-04-01T11:52:47Z</time>
      </trkpt>
      <trkpt lat="45.63489" lon="5.9425">
        <ele>475.4</ele>
        <time>2012-04-01T11:52:52Z</time>
      </trkpt>
      <trkpt lat="45.63476" lon="5.94248">
        <ele>475.6</ele>
        <time>2012-04-01T11:52:57Z</time>
      </trkpt>
      <trkpt lat="45.63456" lon="5.94247">
        <ele>473.9</ele>
        <time>2012-04-01T11:53:02Z</time>
      </trkpt>
      <trkpt lat="45.63435" lon="5.94247">
        <ele>472.8</ele>
        <time>2012-04-01T11:53:07Z</time>
      </trkpt>
      <trkpt lat="45.63409" lon="5.94239">
        <ele>472.9</ele>
        <time>2012-04-01T11:53:12Z</time>
      </trkpt>
      <trkpt lat="45.63405" lon="5.94213">
        <ele>467.7</ele>
        <time>2012-04-01T11:53:17Z</time>
      </trkpt>
      <trkpt lat="45.63392" lon="5.94188">
        <ele>464.1</ele>
        <time>2012-04-01T11:53:22Z</time>
      </trkpt>
      <trkpt lat="45.63372" lon="5.94176">
        <ele>462.3</ele>
        <time>2012-04-01T11:53:27Z</time>
      </trkpt>
      <trkpt lat="45.63343" lon="5.94163">
        <ele>461.7</ele>
        <time>2012-04-01T11:53:32Z</time>
      </trkpt>
      <trkpt lat="45.63328" lon="5.94155">
        <ele>462.2</ele>
        <time>2012-04-01T11:53:37Z</time>
      </trkpt>
      <trkpt lat="45.6331" lon="5.94146">
        <ele>463.4</ele>
        <time>2012-04-01T11:53:42Z</time>
      </trkpt>
      <trkpt lat="45.63295" lon="5.94139">
        <ele>462.7</ele>
        <time>2012-04-01T11:53:47Z</time>
      </trkpt>
      <trkpt lat="45.63279" lon="5.94146">
        <ele>463.3</ele>
        <time>2012-04-01T11:53:52Z</time>
      </trkpt>
      <trkpt lat="45.63268" lon="5.94154">
        <ele>463.7</ele>
        <time>2012-04-01T11:53:57Z</time>
      </trkpt>
      <trkpt lat="45.63271" lon="5.94146">
        <ele>462.6</ele>
        <time>2012-04-01T11:54:02Z</time>
      </trkpt>
      <trkpt lat="45.63278" lon="5.94127">
        <ele>461.2</ele>
        <time>2012-04-01T11:54:07Z</time>
      </trkpt>
      <trkpt lat="45.63283" lon="5.94111">
        <ele>460</ele>
        <time>2012-04-01T11:54:12Z</time>
      </trkpt>
      <trkpt lat="45.63274" lon="5.94101">
        <ele>456.7</ele>
        <time>2012-04-01T11:54:17Z</time>
      </trkpt>
      <trkpt lat="45.63259" lon="5.94113">
        <ele>455.7</ele>
        <time>2012-04-01T11:54:22Z</time>
      </trkpt>
      <trkpt lat="45.63238" lon="5.94118">
        <ele>454.8</ele>
        <time>2012-04-01T11:54:27Z</time>
      </trkpt>
      <trkpt lat="45.63213" lon="5.94115">
        <ele>453.5</ele>
        <time>2012-04-01T11:54:32Z</time>
      </trkpt>
      <trkpt lat="45.63177" lon="5.94108">
        <ele>449.6</ele>
        <time>2012-04-01T11:54:37Z</time>
      </trkpt>
      <trkpt lat="45.63147" lon="5.94097">
        <ele>446.8</ele>
        <time>2012-04-01T11:54:42Z</time>
      </trkpt>
      <trkpt lat="45.63113" lon="5.94096">
        <ele>446.2</ele>
        <time>2012-04-01T11:54:47Z</time>
      </trkpt>
      <trkpt lat="45.63079" lon="5.94097">
        <ele>444.7</ele>
        <time>2012-04-01T11:54:52Z</time>
      </trkpt>
      <trkpt lat="45.63038" lon="5.94079">
        <ele>442.5</ele>
        <time>2012-04-01T11:54:57Z</time>
      </trkpt>
      <trkpt lat="45.63007" lon="5.94062">
        <ele>440.2</ele>
        <time>2012-04-01T11:55:02Z</time>
      </trkpt>
      <trkpt lat="45.62977" lon="5.94049">
        <ele>439.1</ele>
        <time>2012-04-01T11:55:07Z</time>
      </trkpt>
      <trkpt lat="45.6296" lon="5.94043">
        <ele>438.8</ele>
        <time>2012-04-01T11:55:12Z</time>
      </trkpt>
      <trkpt lat="45.62942" lon="5.94039">
        <ele>439.1</ele>
        <time>2012-04-01T11:55:17Z</time>
      </trkpt>
      <trkpt lat="45.62923" lon="5.94037">
        <ele>439.2</ele>
        <time>2012-04-01T11:55:22Z</time>
      </trkpt>
      <trkpt lat="45.62902" lon="5.94025">
        <ele>437.3</ele>
        <time>2012-04-01T11:55:27Z</time>
      </trkpt>
      <trkpt lat="45.62881" lon="5.94018">
        <ele>436.7</ele>
        <time>2012-04-01T11:55:32Z</time>
      </trkpt>
      <trkpt lat="45.62858" lon="5.94019">
        <ele>439.1</ele>
        <time>2012-04-01T11:55:37Z</time>
      </trkpt>
      <trkpt lat="45.62831" lon="5.94011">
        <ele>438.3</ele>
        <time>2012-04-01T11:55:42Z</time>
      </trkpt>
      <trkpt lat="45.62806" lon="5.94001">
        <ele>435.3</ele>
        <time>2012-04-01T11:55:47Z</time>
      </trkpt>
      <trkpt lat="45.62764" lon="5.93984">
        <ele>430.6</ele>
        <time>2012-04-01T11:55:52Z</time>
      </trkpt>
      <trkpt lat="45.6271" lon="5.93966">
        <ele>425.9</ele>
        <time>2012-04-01T11:55:57Z</time>
      </trkpt>
      <trkpt lat="45.62689" lon="5.93966">
        <ele>425.4</ele>
        <time>2012-04-01T11:56:02Z</time>
      </trkpt>
      <trkpt lat="45.62673" lon="5.93953">
        <ele>420</ele>
        <time>2012-04-01T11:56:07Z</time>
      </trkpt>
      <trkpt lat="45.62653" lon="5.93954">
        <ele>418.4</ele>
        <time>2012-04-01T11:56:12Z</time>
      </trkpt>
      <trkpt lat="45.62637" lon="5.93954">
        <ele>416</ele>
        <time>2012-04-01T11:56:17Z</time>
      </trkpt>
      <trkpt lat="45.62615" lon="5.93957">
        <ele>412.8</ele>
        <time>2012-04-01T11:56:22Z</time>
      </trkpt>
      <trkpt lat="45.62604" lon="5.93956">
        <ele>411.9</ele>
        <time>2012-04-01T11:56:27Z</time>
      </trkpt>
      <trkpt lat="45.6259" lon="5.93955">
        <ele>411.5</ele>
        <time>2012-04-01T11:56:32Z</time>
      </trkpt>
      <trkpt lat="45.62577" lon="5.93956">
        <ele>411.7</ele>
        <time>2012-04-01T11:56:37Z</time>
      </trkpt>
      <trkpt lat="45.62564" lon="5.93946">
        <ele>409.2</ele>
        <time>2012-04-01T11:56:42Z</time>
      </trkpt>
      <trkpt lat="45.62562" lon="5.93947">
        <ele>409.4</ele>
        <time>2012-04-01T11:56:47Z</time>
      </trkpt>
      <trkpt lat="45.62563" lon="5.9395">
        <ele>410</ele>
        <time>2012-04-01T11:56:52Z</time>
      </trkpt>
      <trkpt lat="45.62564" lon="5.9395">
        <ele>410.1</ele>
        <time>2012-04-01T11:56:57Z</time>
      </trkpt>
      <trkpt lat="45.62566" lon="5.9395">
        <ele>409.9</ele>
        <time>2012-04-01T11:57:02Z</time>
      </trkpt>
      <trkpt lat="45.62566" lon="5.9395">
        <ele>409.9</ele>
        <time>2012-04-01T11:57:07Z</time>
      </trkpt>
      <trkpt lat="45.62564" lon="5.93948">
        <ele>409.6</ele>
        <time>2012-04-01T11:57:12Z</time>
      </trkpt>
      <trkpt lat="45.62565" lon="5.93949">
        <ele>409.7</ele>
        <time>2012-04-01T11:57:17Z</time>
      </trkpt>
      <trkpt lat="45.62565" lon="5.93949">
        <ele>409.7</ele>
        <time>2012-04-01T11:57:22Z</time>
      </trkpt>
      <trkpt lat="45.62565" lon="5.93949">
        <ele>409.8</ele>
        <time>2012-04-01T11:57:27Z</time>
      </trkpt>
      <trkpt lat="45.62565" lon="5.9395">
        <ele>409.9</ele>
        <time>2012-04-01T11:57:32Z</time>
      </trkpt>
      <trkpt lat="45.62565" lon="5.93949">
        <ele>409.9</ele>
        <time>2012-04-01T11:57:37Z</time>
      </trkpt>
      <trkpt lat="45.62566" lon="5.93949">
        <ele>409.7</ele>
        <time>2012-04-01T11:57:42Z</time>
      </trkpt>
      <trkpt lat="45.62564" lon="5.93941">
        <ele>407.6</ele>
        <time>2012-04-01T11:57:47Z</time>
      </trkpt>
      <trkpt lat="45.6256" lon="5.93932">
        <ele>405.2</ele>
        <time>2012-04-01T11:57:52Z</time>
      </trkpt>
      <trkpt lat="45.62553" lon="5.9392">
        <ele>402.2</ele>
        <time>2012-04-01T11:57:57Z</time>
      </trkpt>
      <trkpt lat="45.62548" lon="5.93907">
        <ele>399.3</ele>
        <time>2012-04-01T11:58:02Z</time>
      </trkpt>
      <trkpt lat="45.62544" lon="5.93898">
        <ele>397</ele>
        <time>2012-04-01T11:58:07Z</time>
      </trkpt>
      <trkpt lat="45.62534" lon="5.93884">
        <ele>394</ele>
        <time>2012-04-01T11:58:12Z</time>
      </trkpt>
      <trkpt lat="45.62523" lon="5.93874">
        <ele>392.5</ele>
        <time>2012-04-01T11:58:17Z</time>
      </trkpt>
      <trkpt lat="45.6252" lon="5.93868">
        <ele>391.3</ele>
        <time>2012-04-01T11:58:22Z</time>
      </trkpt>
      <trkpt lat="45.62519" lon="5.93867">
        <ele>391.2</ele>
        <time>2012-04-01T11:58:27Z</time>
      </trkpt>
      <trkpt lat="45.62519" lon="5.93865">
        <ele>390.7</ele>
        <time>2012-04-01T11:58:32Z</time>
      </trkpt>
      <trkpt lat="45.62513" lon="5.93856">
        <ele>388.4</ele>
        <time>2012-04-01T11:58:37Z</time>
      </trkpt>
      <trkpt lat="45.62502" lon="5.93852">
        <ele>388.8</ele>
        <time>2012-04-01T11:58:42Z</time>
      </trkpt>
      <trkpt lat="45.62494" lon="5.93847">
        <ele>387.8</ele>
        <time>2012-04-01T11:58:47Z</time>
      </trkpt>
      <trkpt lat="45.62488" lon="5.93845">
        <ele>387.5</ele>
        <time>2012-04-01T11:58:52Z</time>
      </trkpt>
      <trkpt lat="45.62483" lon="5.93842">
        <ele>386.6</ele>
        <time>2012-04-01T11:58:57Z</time>
      </trkpt>
      <trkpt lat="45.62475" lon="5.93838">
        <ele>385.8</ele>
        <time>2012-04-01T11:59:02Z</time>
      </trkpt>
      <trkpt lat="45.62468" lon="5.93837">
        <ele>386</ele>
        <time>2012-04-01T11:59:07Z</time>
      </trkpt>
      <trkpt lat="45.62461" lon="5.93837">
        <ele>387.1</ele>
        <time>2012-04-01T11:59:12Z</time>
      </trkpt>
      <trkpt lat="45.62457" lon="5.93837">
        <ele>387.8</ele>
        <time>2012-04-01T11:59:17Z</time>
      </trkpt>
      <trkpt lat="45.62449" lon="5.93833">
        <ele>387</ele>
        <time>2012-04-01T11:59:22Z</time>
      </trkpt>
      <trkpt lat="45.62442" lon="5.93824">
        <ele>384.1</ele>
        <time>2012-04-01T11:59:27Z</time>
      </trkpt>
      <trkpt lat="45.62436" lon="5.93818">
        <ele>381.9</ele>
        <time>2012-04-01T11:59:32Z</time>
      </trkpt>
      <trkpt lat="45.62427" lon="5.9381">
        <ele>378.4</ele>
        <time>2012-04-01T11:59:37Z</time>
      </trkpt>
      <trkpt lat="45.62415" lon="5.93799">
        <ele>374.3</ele>
        <time>2012-04-01T11:59:42Z</time>
      </trkpt>
      <trkpt lat="45.62406" lon="5.93793">
        <ele>372.4</ele>
        <time>2012-04-01T11:59:47Z</time>
      </trkpt>
      <trkpt lat="45.62398" lon="5.93783">
        <ele>369</ele>
        <time>2012-04-01T11:59:52Z</time>
      </trkpt>
      <trkpt lat="45.62388" lon="5.93773">
        <ele>366</ele>
        <time>2012-04-01T11:59:57Z</time>
      </trkpt>
      <trkpt lat="45.62384" lon="5.93768">
        <ele>364.6</ele>
        <time>2012-04-01T12:00:02Z</time>
      </trkpt>
      <trkpt lat="45.62381" lon="5.93767">
        <ele>364</ele>
        <time>2012-04-01T12:00:07Z</time>
      </trkpt>
      <trkpt lat="45.62378" lon="5.93766">
        <ele>363.8</ele>
        <time>2012-04-01T12:00:12Z</time>
      </trkpt>
      <trkpt lat="45.6237" lon="5.93764">
        <ele>363.5</ele>
        <time>2012-04-01T12:00:17Z</time>
      </trkpt>
      <trkpt lat="45.62363" lon="5.93758">
        <ele>361.5</ele>
        <time>2012-04-01T12:00:22Z</time>
      </trkpt>
      <trkpt lat="45.62348" lon="5.93752">
        <ele>360.8</ele>
        <time>2012-04-01T12:00:27Z</time>
      </trkpt>
      <trkpt lat="45.62336" lon="5.93752">
        <ele>362.7</ele>
        <time>2012-04-01T12:00:32Z</time>
      </trkpt>
      <trkpt lat="45.62319" lon="5.93754">
        <ele>364.3</ele>
        <time>2012-04-01T12:00:37Z</time>
      </trkpt>
      <trkpt lat="45.62302" lon="5.93747">
        <ele>362.3</ele>
        <time>2012-04-01T12:00:42Z</time>
      </trkpt>
      <trkpt lat="45.62284" lon="5.93725">
        <ele>354.7</ele>
        <time>2012-04-01T12:00:47Z</time>
      </trkpt>
      <trkpt lat="45.62268" lon="5.93712">
        <ele>352.2</ele>
        <time>2012-04-01T12:00:52Z</time>
      </trkpt>
      <trkpt lat="45.62252" lon="5.93707">
        <ele>353</ele>
        <time>2012-04-01T12:00:57Z</time>
      </trkpt>
      <trkpt lat="45.62243" lon="5.93709">
        <ele>353.8</ele>
        <time>2012-04-01T12:01:02Z</time>
      </trkpt>
      <trkpt lat="45.62236" lon="5.93706">
        <ele>352.8</ele>
        <time>2012-04-01T12:01:07Z</time>
      </trkpt>
      <trkpt lat="45.62228" lon="5.93713">
        <ele>354.9</ele>
        <time>2012-04-01T12:01:12Z</time>
      </trkpt>
      <trkpt lat="45.6222" lon="5.93719">
        <ele>357.2</ele>
        <time>2012-04-01T12:01:17Z</time>
      </trkpt>
      <trkpt lat="45.62211" lon="5.93721">
        <ele>358.3</ele>
        <time>2012-04-01T12:01:22Z</time>
      </trkpt>
      <trkpt lat="45.62204" lon="5.93723">
        <ele>359.6</ele>
        <time>2012-04-01T12:01:27Z</time>
      </trkpt>
      <trkpt lat="45.62195" lon="5.93725">
        <ele>360.8</ele>
        <time>2012-04-01T12:01:32Z</time>
      </trkpt>
      <trkpt lat="45.62189" lon="5.93727">
        <ele>362.1</ele>
        <time>2012-04-01T12:01:37Z</time>
      </trkpt>
      <trkpt lat="45.62179" lon="5.93731">
        <ele>363.8</ele>
        <time>2012-04-01T12:01:42Z</time>
      </trkpt>
      <trkpt lat="45.6217" lon="5.93732">
        <ele>364.5</ele>
        <time>2012-04-01T12:01:47Z</time>
      </trkpt>
      <trkpt lat="45.6216" lon="5.93733">
        <ele>365.7</ele>
        <time>2012-04-01T12:01:52Z</time>
      </trkpt>
      <trkpt lat="45.62147" lon="5.93732">
        <ele>365.9</ele>
        <time>2012-04-01T12:01:57Z</time>
      </trkpt>
      <trkpt lat="45.62133" lon="5.9373">
        <ele>366.5</ele>
        <time>2012-04-01T12:02:02Z</time>
      </trkpt>
      <trkpt lat="45.62122" lon="5.93729">
        <ele>367</ele>
        <time>2012-04-01T12:02:07Z</time>
      </trkpt>
      <trkpt lat="45.62113" lon="5.9373">
        <ele>368.4</ele>
        <time>2012-04-01T12:02:12Z</time>
      </trkpt>
      <trkpt lat="45.62106" lon="5.93732">
        <ele>369.1</ele>
        <time>2012-04-01T12:02:17Z</time>
      </trkpt>
      <trkpt lat="45.62096" lon="5.93729">
        <ele>368.3</ele>
        <time>2012-04-01T12:02:22Z</time>
      </trkpt>
      <trkpt lat="45.62087" lon="5.93718">
        <ele>364.8</ele>
        <time>2012-04-01T12:02:27Z</time>
      </trkpt>
      <trkpt lat="45.62079" lon="5.93709">
        <ele>363</ele>
        <time>2012-04-01T12:02:32Z</time>
      </trkpt>
      <trkpt lat="45.62075" lon="5.93708">
        <ele>363.3</ele>
        <time>2012-04-01T12:02:37Z</time>
      </trkpt>
      <trkpt lat="45.62074" lon="5.93708">
        <ele>363.4</ele>
        <time>2012-04-01T12:02:42Z</time>
      </trkpt>
      <trkpt lat="45.62069" lon="5.93703">
        <ele>362.9</ele>
        <time>2012-04-01T12:02:47Z</time>
      </trkpt>
      <trkpt lat="45.62068" lon="5.93699">
        <ele>362</ele>
        <time>2012-04-01T12:02:52Z</time>
      </trkpt>
      <trkpt lat="45.62064" lon="5.93695">
        <ele>361.6</ele>
        <time>2012-04-01T12:02:57Z</time>
      </trkpt>
      <trkpt lat="45.62055" lon="5.93689">
        <ele>362.4</ele>
        <time>2012-04-01T12:03:02Z</time>
      </trkpt>
      <trkpt lat="45.62049" lon="5.93684">
        <ele>362.6</ele>
        <time>2012-04-01T12:03:07Z</time>
      </trkpt>
      <trkpt lat="45.62043" lon="5.93684">
        <ele>363.5</ele>
        <time>2012-04-01T12:03:12Z</time>
      </trkpt>
      <trkpt lat="45.62037" lon="5.93685">
        <ele>364.6</ele>
        <time>2012-04-01T12:03:17Z</time>
      </trkpt>
      <trkpt lat="45.62031" lon="5.93687">
        <ele>365.7</ele>
        <time>2012-04-01T12:03:22Z</time>
      </trkpt>
      <trkpt lat="45.6202" lon="5.93688">
        <ele>367.1</ele>
        <time>2012-04-01T12:03:27Z</time>
      </trkpt>
      <trkpt lat="45.62013" lon="5.93683">
        <ele>366.6</ele>
        <time>2012-04-01T12:03:32Z</time>
      </trkpt>
      <trkpt lat="45.62001" lon="5.93663">
        <ele>363</ele>
        <time>2012-04-01T12:03:37Z</time>
      </trkpt>
      <trkpt lat="45.61983" lon="5.93661">
        <ele>362.3</ele>
        <time>2012-04-01T12:03:42Z</time>
      </trkpt>
      <trkpt lat="45.61969" lon="5.93662">
        <ele>362.6</ele>
        <time>2012-04-01T12:03:47Z</time>
      </trkpt>
      <trkpt lat="45.61953" lon="5.93653">
        <ele>359.8</ele>
        <time>2012-04-01T12:03:52Z</time>
      </trkpt>
      <trkpt lat="45.61944" lon="5.93631">
        <ele>355.7</ele>
        <time>2012-04-01T12:03:57Z</time>
      </trkpt>
      <trkpt lat="45.61934" lon="5.93622">
        <ele>354.6</ele>
        <time>2012-04-01T12:04:02Z</time>
      </trkpt>
      <trkpt lat="45.61929" lon="5.93616">
        <ele>354</ele>
        <time>2012-04-01T12:04:07Z</time>
      </trkpt>
      <trkpt lat="45.61919" lon="5.93611">
        <ele>353.8</ele>
        <time>2012-04-01T12:04:12Z</time>
      </trkpt>
      <trkpt lat="45.61906" lon="5.93611">
        <ele>354.3</ele>
        <time>2012-04-01T12:04:17Z</time>
      </trkpt>
      <trkpt lat="45.6189" lon="5.9361">
        <ele>354.7</ele>
        <time>2012-04-01T12:04:22Z</time>
      </trkpt>
      <trkpt lat="45.61874" lon="5.93606">
        <ele>354.3</ele>
        <time>2012-04-01T12:04:27Z</time>
      </trkpt>
      <trkpt lat="45.61852" lon="5.93597">
        <ele>353.3</ele>
        <time>2012-04-01T12:04:32Z</time>
      </trkpt>
      <trkpt lat="45.61841" lon="5.93587">
        <ele>351.9</ele>
        <time>2012-04-01T12:04:37Z</time>
      </trkpt>
      <trkpt lat="45.61823" lon="5.93573">
        <ele>351.7</ele>
        <time>2012-04-01T12:04:42Z</time>
      </trkpt>
      <trkpt lat="45.61806" lon="5.93565">
        <ele>353.4</ele>
        <time>2012-04-01T12:04:47Z</time>
      </trkpt>
      <trkpt lat="45.61793" lon="5.93558">
        <ele>354.2</ele>
        <time>2012-04-01T12:04:52Z</time>
      </trkpt>
      <trkpt lat="45.61779" lon="5.93544">
        <ele>354.5</ele>
        <time>2012-04-01T12:04:57Z</time>
      </trkpt>
      <trkpt lat="45.61766" lon="5.93527">
        <ele>354.5</ele>
        <time>2012-04-01T12:05:02Z</time>
      </trkpt>
      <trkpt lat="45.61748" lon="5.93509">
        <ele>355.1</ele>
        <time>2012-04-01T12:05:07Z</time>
      </trkpt>
      <trkpt lat="45.61724" lon="5.93489">
        <ele>355.1</ele>
        <time>2012-04-01T12:05:12Z</time>
      </trkpt>
      <trkpt lat="45.61713" lon="5.93477">
        <ele>355.1</ele>
        <time>2012-04-01T12:05:17Z</time>
      </trkpt>
      <trkpt lat="45.61703" lon="5.93475">
        <ele>355.6</ele>
        <time>2012-04-01T12:05:22Z</time>
      </trkpt>
      <trkpt lat="45.61693" lon="5.93477">
        <ele>356.5</ele>
        <time>2012-04-01T12:05:27Z</time>
      </trkpt>
      <trkpt lat="45.61686" lon="5.93489">
        <ele>357.8</ele>
        <time>2012-04-01T12:05:32Z</time>
      </trkpt>
      <trkpt lat="45.61678" lon="5.93502">
        <ele>359.4</ele>
        <time>2012-04-01T12:05:37Z</time>
      </trkpt>
      <trkpt lat="45.6167" lon="5.93512">
        <ele>361.1</ele>
        <time>2012-04-01T12:05:42Z</time>
      </trkpt>
      <trkpt lat="45.6166" lon="5.93517">
        <ele>362.3</ele>
        <time>2012-04-01T12:05:47Z</time>
      </trkpt>
      <trkpt lat="45.6165" lon="5.93514">
        <ele>362.7</ele>
        <time>2012-04-01T12:05:52Z</time>
      </trkpt>
      <trkpt lat="45.61638" lon="5.93508">
        <ele>362.9</ele>
        <time>2012-04-01T12:05:57Z</time>
      </trkpt>
      <trkpt lat="45.61622" lon="5.93502">
        <ele>362.3</ele>
        <time>2012-04-01T12:06:02Z</time>
      </trkpt>
      <trkpt lat="45.61605" lon="5.93492">
        <ele>362</ele>
        <time>2012-04-01T12:06:07Z</time>
      </trkpt>
      <trkpt lat="45.61588" lon="5.9347">
        <ele>360.6</ele>
        <time>2012-04-01T12:06:12Z</time>
      </trkpt>
      <trkpt lat="45.61566" lon="5.93461">
        <ele>361</ele>
        <time>2012-04-01T12:06:17Z</time>
      </trkpt>
      <trkpt lat="45.61549" lon="5.93452">
        <ele>361.8</ele>
        <time>2012-04-01T12:06:22Z</time>
      </trkpt>
      <trkpt lat="45.61537" lon="5.93447">
        <ele>362.9</ele>
        <time>2012-04-01T12:06:27Z</time>
      </trkpt>
      <trkpt lat="45.61524" lon="5.9344">
        <ele>364</ele>
        <time>2012-04-01T12:06:32Z</time>
      </trkpt>
      <trkpt lat="45.61504" lon="5.93429">
        <ele>364.4</ele>
        <time>2012-04-01T12:06:37Z</time>
      </trkpt>
      <trkpt lat="45.61486" lon="5.93417">
        <ele>364.5</ele>
        <time>2012-04-01T12:06:42Z</time>
      </trkpt>
      <trkpt lat="45.61465" lon="5.93401">
        <ele>362.8</ele>
        <time>2012-04-01T12:06:47Z</time>
      </trkpt>
      <trkpt lat="45.61446" lon="5.93387">
        <ele>360.5</ele>
        <time>2012-04-01T12:06:52Z</time>
      </trkpt>
      <trkpt lat="45.61432" lon="5.93379">
        <ele>360</ele>
        <time>2012-04-01T12:06:57Z</time>
      </trkpt>
      <trkpt lat="45.6143" lon="5.93378">
        <ele>359.9</ele>
        <time>2012-04-01T12:07:02Z</time>
      </trkpt>
      <trkpt lat="45.6143" lon="5.93378">
        <ele>360</ele>
        <time>2012-04-01T12:07:07Z</time>
      </trkpt>
      <trkpt lat="45.61429" lon="5.93377">
        <ele>359.8</ele>
        <time>2012-04-01T12:07:12Z</time>
      </trkpt>
      <trkpt lat="45.61428" lon="5.93376">
        <ele>359.6</ele>
        <time>2012-04-01T12:07:17Z</time>
      </trkpt>
      <trkpt lat="45.61427" lon="5.93376">
        <ele>359.5</ele>
        <time>2012-04-01T12:07:22Z</time>
      </trkpt>
      <trkpt lat="45.61427" lon="5.93378">
        <ele>359.9</ele>
        <time>2012-04-01T12:07:27Z</time>
      </trkpt>
      <trkpt lat="45.61427" lon="5.93378">
        <ele>360</ele>
        <time>2012-04-01T12:07:32Z</time>
      </trkpt>
      <trkpt lat="45.61427" lon="5.93377">
        <ele>359.9</ele>
        <time>2012-04-01T12:07:37Z</time>
      </trkpt>
      <trkpt lat="45.61427" lon="5.93376">
        <ele>359.6</ele>
        <time>2012-04-01T12:07:42Z</time>
      </trkpt>
      <trkpt lat="45.61427" lon="5.93375">
        <ele>359.4</ele>
        <time>2012-04-01T12:07:47Z</time>
      </trkpt>
      <trkpt lat="45.61428" lon="5.93375">
        <ele>359.3</ele>
        <time>2012-04-01T12:07:52Z</time>
      </trkpt>
      <trkpt lat="45.61427" lon="5.93374">
        <ele>359.2</ele>
        <time>2012-04-01T12:07:57Z</time>
      </trkpt>
      <trkpt lat="45.61427" lon="5.93374">
        <ele>359.3</ele>
        <time>2012-04-01T12:08:02Z</time>
      </trkpt>
      <trkpt lat="45.61427" lon="5.93375">
        <ele>359.5</ele>
        <time>2012-04-01T12:08:07Z</time>
      </trkpt>
      <trkpt lat="45.61427" lon="5.93375">
        <ele>359.5</ele>
        <time>2012-04-01T12:08:12Z</time>
      </trkpt>
      <trkpt lat="45.61427" lon="5.93375">
        <ele>359.4</ele>
        <time>2012-04-01T12:08:17Z</time>
      </trkpt>
      <trkpt lat="45.61428" lon="5.93376">
        <ele>359.5</ele>
        <time>2012-04-01T12:08:22Z</time>
      </trkpt>
      <trkpt lat="45.61428" lon="5.93377">
        <ele>359.7</ele>
        <time>2012-04-01T12:08:27Z</time>
      </trkpt>
      <trkpt lat="45.61429" lon="5.93378">
        <ele>359.9</ele>
        <time>2012-04-01T12:08:32Z</time>
      </trkpt>
      <trkpt lat="45.61428" lon="5.93378">
        <ele>360</ele>
        <time>2012-04-01T12:08:37Z</time>
      </trkpt>
      <trkpt lat="45.61428" lon="5.93375">
        <ele>359.4</ele>
        <time>2012-04-01T12:08:42Z</time>
      </trkpt>
      <trkpt lat="45.61428" lon="5.93374">
        <ele>359.2</ele>
        <time>2012-04-01T12:08:47Z</time>
      </trkpt>
      <trkpt lat="45.61427" lon="5.93373">
        <ele>359</ele>
        <time>2012-04-01T12:08:52Z</time>
      </trkpt>
      <trkpt lat="45.61427" lon="5.93371">
        <ele>358.6</ele>
        <time>2012-04-01T12:08:57Z</time>
      </trkpt>
      <trkpt lat="45.61427" lon="5.93372">
        <ele>358.9</ele>
        <time>2012-04-01T12:09:02Z</time>
      </trkpt>
      <trkpt lat="45.61427" lon="5.93373">
        <ele>359.1</ele>
        <time>2012-04-01T12:09:07Z</time>
      </trkpt>
      <trkpt lat="45.61427" lon="5.93372">
        <ele>358.8</ele>
        <time>2012-04-01T12:09:12Z</time>
      </trkpt>
      <trkpt lat="45.61428" lon="5.93369">
        <ele>358.2</ele>
        <time>2012-04-01T12:09:17Z</time>
      </trkpt>
      <trkpt lat="45.61426" lon="5.93363">
        <ele>356.9</ele>
        <time>2012-04-01T12:09:22Z</time>
      </trkpt>
      <trkpt lat="45.61427" lon="5.93366">
        <ele>357.6</ele>
        <time>2012-04-01T12:09:27Z</time>
      </trkpt>
      <trkpt lat="45.61427" lon="5.93368">
        <ele>358</ele>
        <time>2012-04-01T12:09:32Z</time>
      </trkpt>
      <trkpt lat="45.61427" lon="5.93366">
        <ele>357.7</ele>
        <time>2012-04-01T12:09:37Z</time>
      </trkpt>
      <trkpt lat="45.61426" lon="5.93369">
        <ele>358.2</ele>
        <time>2012-04-01T12:09:42Z</time>
      </trkpt>
      <trkpt lat="45.61424" lon="5.93368">
        <ele>358.2</ele>
        <time>2012-04-01T12:09:47Z</time>
      </trkpt>
      <trkpt lat="45.61399" lon="5.93368">
        <ele>355.3</ele>
        <time>2012-04-01T12:09:52Z</time>
      </trkpt>
      <trkpt lat="45.61374" lon="5.93352">
        <ele>352.1</ele>
        <time>2012-04-01T12:09:57Z</time>
      </trkpt>
      <trkpt lat="45.61341" lon="5.93335">
        <ele>350.2</ele>
        <time>2012-04-01T12:10:02Z</time>
      </trkpt>
      <trkpt lat="45.61312" lon="5.93332">
        <ele>349.5</ele>
        <time>2012-04-01T12:10:07Z</time>
      </trkpt>
      <trkpt lat="45.61285" lon="5.93315">
        <ele>344.8</ele>
        <time>2012-04-01T12:10:12Z</time>
      </trkpt>
      <trkpt lat="45.61235" lon="5.93277">
        <ele>334.8</ele>
        <time>2012-04-01T12:10:17Z</time>
      </trkpt>
      <trkpt lat="45.61199" lon="5.93259">
        <ele>330.9</ele>
        <time>2012-04-01T12:10:22Z</time>
      </trkpt>
      <trkpt lat="45.6114" lon="5.93241">
        <ele>321.7</ele>
        <time>2012-04-01T12:10:27Z</time>
      </trkpt>
      <trkpt lat="45.61089" lon="5.93217">
        <ele>315.9</ele>
        <time>2012-04-01T12:10:32Z</time>
      </trkpt>
      <trkpt lat="45.61057" lon="5.93182">
        <ele>308.2</ele>
        <time>2012-04-01T12:10:37Z</time>
      </trkpt>
      <trkpt lat="45.61046" lon="5.9314">
        <ele>302.1</ele>
        <time>2012-04-01T12:10:42Z</time>
      </trkpt>
      <trkpt lat="45.61043" lon="5.93105">
        <ele>299.2</ele>
        <time>2012-04-01T12:10:47Z</time>
      </trkpt>
      <trkpt lat="45.61032" lon="5.93101">
        <ele>298.5</ele>
        <time>2012-04-01T12:10:52Z</time>
      </trkpt>
      <trkpt lat="45.61008" lon="5.93109">
        <ele>299.1</ele>
        <time>2012-04-01T12:10:57Z</time>
      </trkpt>
      <trkpt lat="45.60987" lon="5.93114">
        <ele>298.9</ele>
        <time>2012-04-01T12:11:02Z</time>
      </trkpt>
      <trkpt lat="45.60964" lon="5.93119">
        <ele>299.3</ele>
        <time>2012-04-01T12:11:07Z</time>
      </trkpt>
      <trkpt lat="45.60945" lon="5.93122">
        <ele>300.1</ele>
        <time>2012-04-01T12:11:12Z</time>
      </trkpt>
      <trkpt lat="45.60922" lon="5.93125">
        <ele>300.1</ele>
        <time>2012-04-01T12:11:17Z</time>
      </trkpt>
      <trkpt lat="45.60896" lon="5.9313">
        <ele>300.8</ele>
        <time>2012-04-01T12:11:22Z</time>
      </trkpt>
      <trkpt lat="45.60872" lon="5.93135">
        <ele>300.5</ele>
        <time>2012-04-01T12:11:27Z</time>
      </trkpt>
      <trkpt lat="45.60847" lon="5.93141">
        <ele>300.3</ele>
        <time>2012-04-01T12:11:32Z</time>
      </trkpt>
      <trkpt lat="45.60821" lon="5.93145">
        <ele>300.9</ele>
        <time>2012-04-01T12:11:37Z</time>
      </trkpt>
      <trkpt lat="45.60798" lon="5.93129">
        <ele>301.1</ele>
        <time>2012-04-01T12:11:42Z</time>
      </trkpt>
      <trkpt lat="45.60781" lon="5.93115">
        <ele>301.8</ele>
        <time>2012-04-01T12:11:47Z</time>
      </trkpt>
      <trkpt lat="45.60759" lon="5.93109">
        <ele>303</ele>
        <time>2012-04-01T12:11:52Z</time>
      </trkpt>
      <trkpt lat="45.60734" lon="5.93106">
        <ele>304.4</ele>
        <time>2012-04-01T12:11:57Z</time>
      </trkpt>
      <trkpt lat="45.60715" lon="5.93106">
        <ele>305.2</ele>
        <time>2012-04-01T12:12:02Z</time>
      </trkpt>
      <trkpt lat="45.60696" lon="5.93105">
        <ele>305.9</ele>
        <time>2012-04-01T12:12:07Z</time>
      </trkpt>
      <trkpt lat="45.60676" lon="5.93102">
        <ele>306.1</ele>
        <time>2012-04-01T12:12:12Z</time>
      </trkpt>
      <trkpt lat="45.60658" lon="5.93097">
        <ele>306.7</ele>
        <time>2012-04-01T12:12:17Z</time>
      </trkpt>
      <trkpt lat="45.60635" lon="5.9309">
        <ele>307.4</ele>
        <time>2012-04-01T12:12:22Z</time>
      </trkpt>
      <trkpt lat="45.6061" lon="5.93081">
        <ele>307.5</ele>
        <time>2012-04-01T12:12:27Z</time>
      </trkpt>
      <trkpt lat="45.60579" lon="5.93075">
        <ele>308.3</ele>
        <time>2012-04-01T12:12:32Z</time>
      </trkpt>
      <trkpt lat="45.60555" lon="5.93067">
        <ele>308.6</ele>
        <time>2012-04-01T12:12:37Z</time>
      </trkpt>
      <trkpt lat="45.60531" lon="5.93055">
        <ele>307.6</ele>
        <time>2012-04-01T12:12:42Z</time>
      </trkpt>
      <trkpt lat="45.60498" lon="5.93048">
        <ele>305.9</ele>
        <time>2012-04-01T12:12:47Z</time>
      </trkpt>
      <trkpt lat="45.60476" lon="5.93043">
        <ele>307.8</ele>
        <time>2012-04-01T12:12:52Z</time>
      </trkpt>
      <trkpt lat="45.60455" lon="5.93029">
        <ele>310.5</ele>
        <time>2012-04-01T12:12:57Z</time>
      </trkpt>
      <trkpt lat="45.60435" lon="5.93017">
        <ele>312.3</ele>
        <time>2012-04-01T12:13:02Z</time>
      </trkpt>
      <trkpt lat="45.60418" lon="5.93008">
        <ele>311.8</ele>
        <time>2012-04-01T12:13:07Z</time>
      </trkpt>
      <trkpt lat="45.60397" lon="5.93">
        <ele>312.2</ele>
        <time>2012-04-01T12:13:12Z</time>
      </trkpt>
      <trkpt lat="45.60375" lon="5.92995">
        <ele>313.4</ele>
        <time>2012-04-01T12:13:17Z</time>
      </trkpt>
      <trkpt lat="45.60359" lon="5.92994">
        <ele>314.3</ele>
        <time>2012-04-01T12:13:22Z</time>
      </trkpt>
      <trkpt lat="45.60337" lon="5.92989">
        <ele>315.5</ele>
        <time>2012-04-01T12:13:27Z</time>
      </trkpt>
      <trkpt lat="45.60315" lon="5.92983">
        <ele>316.1</ele>
        <time>2012-04-01T12:13:32Z</time>
      </trkpt>
      <trkpt lat="45.60292" lon="5.92975">
        <ele>316.5</ele>
        <time>2012-04-01T12:13:37Z</time>
      </trkpt>
      <trkpt lat="45.60272" lon="5.92971">
        <ele>317.4</ele>
        <time>2012-04-01T12:13:42Z</time>
      </trkpt>
      <trkpt lat="45.60252" lon="5.92969">
        <ele>318.6</ele>
        <time>2012-04-01T12:13:47Z</time>
      </trkpt>
      <trkpt lat="45.60236" lon="5.92968">
        <ele>319.7</ele>
        <time>2012-04-01T12:13:52Z</time>
      </trkpt>
      <trkpt lat="45.60217" lon="5.9297">
        <ele>321</ele>
        <time>2012-04-01T12:13:57Z</time>
      </trkpt>
      <trkpt lat="45.60196" lon="5.92974">
        <ele>322.1</ele>
        <time>2012-04-01T12:14:02Z</time>
      </trkpt>
      <trkpt lat="45.6018" lon="5.92975">
        <ele>322.8</ele>
        <time>2012-04-01T12:14:07Z</time>
      </trkpt>
      <trkpt lat="45.60162" lon="5.92973">
        <ele>323.4</ele>
        <time>2012-04-01T12:14:12Z</time>
      </trkpt>
      <trkpt lat="45.6014" lon="5.92967">
        <ele>323.7</ele>
        <time>2012-04-01T12:14:17Z</time>
      </trkpt>
      <trkpt lat="45.60117" lon="5.92957">
        <ele>323.4</ele>
        <time>2012-04-01T12:14:22Z</time>
      </trkpt>
      <trkpt lat="45.601" lon="5.9295">
        <ele>324.2</ele>
        <time>2012-04-01T12:14:27Z</time>
      </trkpt>
      <trkpt lat="45.60081" lon="5.92941">
        <ele>326</ele>
        <time>2012-04-01T12:14:32Z</time>
      </trkpt>
      <trkpt lat="45.60061" lon="5.92931">
        <ele>327.1</ele>
        <time>2012-04-01T12:14:37Z</time>
      </trkpt>
      <trkpt lat="45.60043" lon="5.92926">
        <ele>327.8</ele>
        <time>2012-04-01T12:14:42Z</time>
      </trkpt>
      <trkpt lat="45.60025" lon="5.92923">
        <ele>328.3</ele>
        <time>2012-04-01T12:14:47Z</time>
      </trkpt>
      <trkpt lat="45.60007" lon="5.9292">
        <ele>328.8</ele>
        <time>2012-04-01T12:14:52Z</time>
      </trkpt>
      <trkpt lat="45.59993" lon="5.92918">
        <ele>329.7</ele>
        <time>2012-04-01T12:14:57Z</time>
      </trkpt>
      <trkpt lat="45.59978" lon="5.92912">
        <ele>331.4</ele>
        <time>2012-04-01T12:15:02Z</time>
      </trkpt>
      <trkpt lat="45.59964" lon="5.92903">
        <ele>333.2</ele>
        <time>2012-04-01T12:15:07Z</time>
      </trkpt>
      <trkpt lat="45.5995" lon="5.92891">
        <ele>334.5</ele>
        <time>2012-04-01T12:15:12Z</time>
      </trkpt>
      <trkpt lat="45.59942" lon="5.92875">
        <ele>335.4</ele>
        <time>2012-04-01T12:15:17Z</time>
      </trkpt>
      <trkpt lat="45.59934" lon="5.92848">
        <ele>336.4</ele>
        <time>2012-04-01T12:15:22Z</time>
      </trkpt>
      <trkpt lat="45.59931" lon="5.92803">
        <ele>339.8</ele>
        <time>2012-04-01T12:15:27Z</time>
      </trkpt>
      <trkpt lat="45.59913" lon="5.92816">
        <ele>342.3</ele>
        <time>2012-04-01T12:15:32Z</time>
      </trkpt>
      <trkpt lat="45.59878" lon="5.92834">
        <ele>345.2</ele>
        <time>2012-04-01T12:15:37Z</time>
      </trkpt>
      <trkpt lat="45.59834" lon="5.92816">
        <ele>349.7</ele>
        <time>2012-04-01T12:15:42Z</time>
      </trkpt>
      <trkpt lat="45.59812" lon="5.92796">
        <ele>350.7</ele>
        <time>2012-04-01T12:15:47Z</time>
      </trkpt>
      <trkpt lat="45.59802" lon="5.92783">
        <ele>350.8</ele>
        <time>2012-04-01T12:15:52Z</time>
      </trkpt>
      <trkpt lat="45.59808" lon="5.92793">
        <ele>350.9</ele>
        <time>2012-04-01T12:15:57Z</time>
      </trkpt>
      <trkpt lat="45.59815" lon="5.92804">
        <ele>350.9</ele>
        <time>2012-04-01T12:16:02Z</time>
      </trkpt>
      <trkpt lat="45.59819" lon="5.9281">
        <ele>350.8</ele>
        <time>2012-04-01T12:16:07Z</time>
      </trkpt>
      <trkpt lat="45.59819" lon="5.92809">
        <ele>350.8</ele>
        <time>2012-04-01T12:16:12Z</time>
      </trkpt>
      <trkpt lat="45.59819" lon="5.92809">
        <ele>350.7</ele>
        <time>2012-04-01T12:16:17Z</time>
      </trkpt>
      <trkpt lat="45.59819" lon="5.9281">
        <ele>350.8</ele>
        <time>2012-04-01T12:16:22Z</time>
      </trkpt>
      <trkpt lat="45.59819" lon="5.9281">
        <ele>350.8</ele>
        <time>2012-04-01T12:16:27Z</time>
      </trkpt>
      <trkpt lat="45.59819" lon="5.92809">
        <ele>350.8</ele>
        <time>2012-04-01T12:16:32Z</time>
      </trkpt>
      <trkpt lat="45.59819" lon="5.9281">
        <ele>350.8</ele>
        <time>2012-04-01T12:16:37Z</time>
      </trkpt>
      <trkpt lat="45.59819" lon="5.9281">
        <ele>350.8</ele>
        <time>2012-04-01T12:16:42Z</time>
      </trkpt>
      <trkpt lat="45.59819" lon="5.9281">
        <ele>350.8</ele>
        <time>2012-04-01T12:16:47Z</time>
      </trkpt>
      <trkpt lat="45.59819" lon="5.9281">
        <ele>350.8</ele>
        <time>2012-04-01T12:16:52Z</time>
      </trkpt>
      <trkpt lat="45.59818" lon="5.92809">
        <ele>350.8</ele>
        <time>2012-04-01T12:16:57Z</time>
      </trkpt>
      <trkpt lat="45.59818" lon="5.9281">
        <ele>350.9</ele>
        <time>2012-04-01T12:17:02Z</time>
      </trkpt>
      <trkpt lat="45.59818" lon="5.92809">
        <ele>350.9</ele>
        <time>2012-04-01T12:17:07Z</time>
      </trkpt>
      <trkpt lat="45.59818" lon="5.92809">
        <ele>350.8</ele>
        <time>2012-04-01T12:17:12Z</time>
      </trkpt>
      <trkpt lat="45.59818" lon="5.92808">
        <ele>350.8</ele>
        <time>2012-04-01T12:17:17Z</time>
      </trkpt>
      <trkpt lat="45.59818" lon="5.92809">
        <ele>350.8</ele>
        <time>2012-04-01T12:17:22Z</time>
      </trkpt>
      <trkpt lat="45.59818" lon="5.92809">
        <ele>350.8</ele>
        <time>2012-04-01T12:17:27Z</time>
      </trkpt>
      <trkpt lat="45.59819" lon="5.92809">
        <ele>350.7</ele>
        <time>2012-04-01T12:17:32Z</time>
      </trkpt>
      <trkpt lat="45.59819" lon="5.92809">
        <ele>350.8</ele>
        <time>2012-04-01T12:17:37Z</time>
      </trkpt>
      <trkpt lat="45.59818" lon="5.9281">
        <ele>350.9</ele>
        <time>2012-04-01T12:17:42Z</time>
      </trkpt>
      <trkpt lat="45.59818" lon="5.92811">
        <ele>351</ele>
        <time>2012-04-01T12:17:47Z</time>
      </trkpt>
      <trkpt lat="45.59818" lon="5.92811">
        <ele>351</ele>
        <time>2012-04-01T12:17:52Z</time>
      </trkpt>
      <trkpt lat="45.59817" lon="5.92811">
        <ele>351</ele>
        <time>2012-04-01T12:17:57Z</time>
      </trkpt>
      <trkpt lat="45.59817" lon="5.92811">
        <ele>351</ele>
        <time>2012-04-01T12:18:02Z</time>
      </trkpt>
      <trkpt lat="45.59818" lon="5.9281">
        <ele>350.9</ele>
        <time>2012-04-01T12:18:07Z</time>
      </trkpt>
      <trkpt lat="45.59818" lon="5.9281">
        <ele>350.9</ele>
        <time>2012-04-01T12:18:12Z</time>
      </trkpt>
      <trkpt lat="45.59818" lon="5.9281">
        <ele>350.9</ele>
        <time>2012-04-01T12:18:17Z</time>
      </trkpt>
      <trkpt lat="45.59819" lon="5.92808">
        <ele>350.7</ele>
        <time>2012-04-01T12:18:27Z</time>
      </trkpt>
      <trkpt lat="45.59818" lon="5.92808">
        <ele>350.7</ele>
        <time>2012-04-01T12:18:32Z</time>
      </trkpt>
      <trkpt lat="45.59818" lon="5.92808">
        <ele>350.7</ele>
        <time>2012-04-01T12:18:37Z</time>
      </trkpt>
      <trkpt lat="45.59818" lon="5.92808">
        <ele>350.8</ele>
        <time>2012-04-01T12:18:42Z</time>
      </trkpt>
      <trkpt lat="45.59818" lon="5.92808">
        <ele>350.8</ele>
        <time>2012-04-01T12:18:47Z</time>
      </trkpt>
      <trkpt lat="45.59818" lon="5.92808">
        <ele>350.7</ele>
        <time>2012-04-01T12:18:52Z</time>
      </trkpt>
      <trkpt lat="45.59818" lon="5.92808">
        <ele>350.8</ele>
        <time>2012-04-01T12:18:57Z</time>
      </trkpt>
      <trkpt lat="45.59818" lon="5.92808">
        <ele>350.8</ele>
        <time>2012-04-01T12:19:07Z</time>
      </trkpt>
      <trkpt lat="45.59819" lon="5.92808">
        <ele>350.7</ele>
        <time>2012-04-01T12:20:12Z</time>
      </trkpt>
      <trkpt lat="45.59818" lon="5.92809">
        <ele>350.8</ele>
        <time>2012-04-01T12:20:27Z</time>
      </trkpt>
      <trkpt lat="45.59823" lon="5.92807">
        <ele>350.2</ele>
        <time>2012-04-01T12:20:32Z</time>
      </trkpt>
      <trkpt lat="45.59817" lon="5.92795">
        <ele>350.2</ele>
        <time>2012-04-01T12:20:37Z</time>
      </trkpt>
      <trkpt lat="45.59809" lon="5.92785">
        <ele>350.3</ele>
        <time>2012-04-01T12:20:42Z</time>
      </trkpt>
      <trkpt lat="45.59799" lon="5.92774">
        <ele>350.6</ele>
        <time>2012-04-01T12:20:47Z</time>
      </trkpt>
      <trkpt lat="45.59791" lon="5.92765">
        <ele>351.2</ele>
        <time>2012-04-01T12:20:52Z</time>
      </trkpt>
      <trkpt lat="45.5978" lon="5.92752">
        <ele>351.9</ele>
        <time>2012-04-01T12:20:57Z</time>
      </trkpt>
      <trkpt lat="45.59767" lon="5.92737">
        <ele>352.6</ele>
        <time>2012-04-01T12:21:02Z</time>
      </trkpt>
      <trkpt lat="45.59758" lon="5.92724">
        <ele>352.8</ele>
        <time>2012-04-01T12:21:07Z</time>
      </trkpt>
      <trkpt lat="45.59748" lon="5.92707">
        <ele>352</ele>
        <time>2012-04-01T12:21:12Z</time>
      </trkpt>
      <trkpt lat="45.59737" lon="5.92686">
        <ele>350.8</ele>
        <time>2012-04-01T12:21:17Z</time>
      </trkpt>
      <trkpt lat="45.59724" lon="5.92673">
        <ele>349.8</ele>
        <time>2012-04-01T12:21:22Z</time>
      </trkpt>
      <trkpt lat="45.59702" lon="5.92665">
        <ele>347.9</ele>
        <time>2012-04-01T12:21:27Z</time>
      </trkpt>
      <trkpt lat="45.59676" lon="5.92661">
        <ele>345.5</ele>
        <time>2012-04-01T12:21:32Z</time>
      </trkpt>
      <trkpt lat="45.59638" lon="5.9266">
        <ele>344</ele>
        <time>2012-04-01T12:21:37Z</time>
      </trkpt>
      <trkpt lat="45.59617" lon="5.92636">
        <ele>341.7</ele>
        <time>2012-04-01T12:21:42Z</time>
      </trkpt>
      <trkpt lat="45.59618" lon="5.92588">
        <ele>339.9</ele>
        <time>2012-04-01T12:21:47Z</time>
      </trkpt>
      <trkpt lat="45.5962" lon="5.92554">
        <ele>339.7</ele>
        <time>2012-04-01T12:21:52Z</time>
      </trkpt>
      <trkpt lat="45.59631" lon="5.92523">
        <ele>340.4</ele>
        <time>2012-04-01T12:21:57Z</time>
      </trkpt>
      <trkpt lat="45.59626" lon="5.925">
        <ele>341</ele>
        <time>2012-04-01T12:22:02Z</time>
      </trkpt>
      <trkpt lat="45.59608" lon="5.92494">
        <ele>341</ele>
        <time>2012-04-01T12:22:07Z</time>
      </trkpt>
      <trkpt lat="45.59589" lon="5.92488">
        <ele>341.3</ele>
        <time>2012-04-01T12:22:12Z</time>
      </trkpt>
      <trkpt lat="45.5957" lon="5.92485">
        <ele>342</ele>
        <time>2012-04-01T12:22:17Z</time>
      </trkpt>
      <trkpt lat="45.59551" lon="5.92481">
        <ele>342.9</ele>
        <time>2012-04-01T12:22:22Z</time>
      </trkpt>
      <trkpt lat="45.59536" lon="5.92477">
        <ele>343.5</ele>
        <time>2012-04-01T12:22:27Z</time>
      </trkpt>
      <trkpt lat="45.59518" lon="5.92473">
        <ele>344.4</ele>
        <time>2012-04-01T12:22:32Z</time>
      </trkpt>
      <trkpt lat="45.59494" lon="5.92475">
        <ele>345.1</ele>
        <time>2012-04-01T12:22:37Z</time>
      </trkpt>
      <trkpt lat="45.59474" lon="5.92479">
        <ele>345.7</ele>
        <time>2012-04-01T12:22:42Z</time>
      </trkpt>
      <trkpt lat="45.59455" lon="5.92482">
        <ele>345.9</ele>
        <time>2012-04-01T12:22:47Z</time>
      </trkpt>
      <trkpt lat="45.59436" lon="5.92487">
        <ele>346.3</ele>
        <time>2012-04-01T12:22:52Z</time>
      </trkpt>
      <trkpt lat="45.59421" lon="5.92487">
        <ele>346.8</ele>
        <time>2012-04-01T12:22:57Z</time>
      </trkpt>
      <trkpt lat="45.59406" lon="5.92478">
        <ele>348.4</ele>
        <time>2012-04-01T12:23:02Z</time>
      </trkpt>
      <trkpt lat="45.59394" lon="5.92464">
        <ele>350.3</ele>
        <time>2012-04-01T12:23:07Z</time>
      </trkpt>
      <trkpt lat="45.59381" lon="5.92446">
        <ele>352.8</ele>
        <time>2012-04-01T12:23:12Z</time>
      </trkpt>
      <trkpt lat="45.5937" lon="5.92431">
        <ele>354.5</ele>
        <time>2012-04-01T12:23:17Z</time>
      </trkpt>
      <trkpt lat="45.59356" lon="5.92418">
        <ele>355.7</ele>
        <time>2012-04-01T12:23:22Z</time>
      </trkpt>
      <trkpt lat="45.59341" lon="5.92408">
        <ele>356.7</ele>
        <time>2012-04-01T12:23:27Z</time>
      </trkpt>
      <trkpt lat="45.59329" lon="5.92401">
        <ele>357.2</ele>
        <time>2012-04-01T12:23:32Z</time>
      </trkpt>
      <trkpt lat="45.59311" lon="5.92395">
        <ele>358</ele>
        <time>2012-04-01T12:23:37Z</time>
      </trkpt>
      <trkpt lat="45.59289" lon="5.92399">
        <ele>358.9</ele>
        <time>2012-04-01T12:23:42Z</time>
      </trkpt>
      <trkpt lat="45.5927" lon="5.92407">
        <ele>359</ele>
        <time>2012-04-01T12:23:47Z</time>
      </trkpt>
      <trkpt lat="45.5925" lon="5.92411">
        <ele>359</ele>
        <time>2012-04-01T12:23:52Z</time>
      </trkpt>
      <trkpt lat="45.59231" lon="5.92412">
        <ele>359.6</ele>
        <time>2012-04-01T12:23:57Z</time>
      </trkpt>
      <trkpt lat="45.59216" lon="5.92413">
        <ele>360.5</ele>
        <time>2012-04-01T12:24:02Z</time>
      </trkpt>
      <trkpt lat="45.59197" lon="5.92414">
        <ele>362.3</ele>
        <time>2012-04-01T12:24:07Z</time>
      </trkpt>
      <trkpt lat="45.59175" lon="5.92414">
        <ele>362</ele>
        <time>2012-04-01T12:24:12Z</time>
      </trkpt>
      <trkpt lat="45.59155" lon="5.92414">
        <ele>361.8</ele>
        <time>2012-04-01T12:24:17Z</time>
      </trkpt>
      <trkpt lat="45.59135" lon="5.92415">
        <ele>362.1</ele>
        <time>2012-04-01T12:24:22Z</time>
      </trkpt>
      <trkpt lat="45.59116" lon="5.92415">
        <ele>362.8</ele>
        <time>2012-04-01T12:24:27Z</time>
      </trkpt>
      <trkpt lat="45.59109" lon="5.92411">
        <ele>362.9</ele>
        <time>2012-04-01T12:24:32Z</time>
      </trkpt>
      <trkpt lat="45.5911" lon="5.92411">
        <ele>362.9</ele>
        <time>2012-04-01T12:24:37Z</time>
      </trkpt>
      <trkpt lat="45.59106" lon="5.92406">
        <ele>362.9</ele>
        <time>2012-04-01T12:24:42Z</time>
      </trkpt>
      <trkpt lat="45.59106" lon="5.92388">
        <ele>362.5</ele>
        <time>2012-04-01T12:24:47Z</time>
      </trkpt>
      <trkpt lat="45.59106" lon="5.92364">
        <ele>364.2</ele>
        <time>2012-04-01T12:24:52Z</time>
      </trkpt>
      <trkpt lat="45.5911" lon="5.92338">
        <ele>364.2</ele>
        <time>2012-04-01T12:24:57Z</time>
      </trkpt>
      <trkpt lat="45.59116" lon="5.92315">
        <ele>365.1</ele>
        <time>2012-04-01T12:25:02Z</time>
      </trkpt>
      <trkpt lat="45.59124" lon="5.92298">
        <ele>365.9</ele>
        <time>2012-04-01T12:25:07Z</time>
      </trkpt>
      <trkpt lat="45.59128" lon="5.92274">
        <ele>368.2</ele>
        <time>2012-04-01T12:25:12Z</time>
      </trkpt>
      <trkpt lat="45.59124" lon="5.92245">
        <ele>369.3</ele>
        <time>2012-04-01T12:25:17Z</time>
      </trkpt>
      <trkpt lat="45.59117" lon="5.92223">
        <ele>371.3</ele>
        <time>2012-04-01T12:25:22Z</time>
      </trkpt>
      <trkpt lat="45.59108" lon="5.92202">
        <ele>373</ele>
        <time>2012-04-01T12:25:27Z</time>
      </trkpt>
      <trkpt lat="45.591" lon="5.92182">
        <ele>373.8</ele>
        <time>2012-04-01T12:25:32Z</time>
      </trkpt>
      <trkpt lat="45.59092" lon="5.92166">
        <ele>374.4</ele>
        <time>2012-04-01T12:25:37Z</time>
      </trkpt>
      <trkpt lat="45.59085" lon="5.92145">
        <ele>375.7</ele>
        <time>2012-04-01T12:25:42Z</time>
      </trkpt>
      <trkpt lat="45.59077" lon="5.92122">
        <ele>376.3</ele>
        <time>2012-04-01T12:25:47Z</time>
      </trkpt>
      <trkpt lat="45.59058" lon="5.92105">
        <ele>376.7</ele>
        <time>2012-04-01T12:25:52Z</time>
      </trkpt>
      <trkpt lat="45.59039" lon="5.92098">
        <ele>376.5</ele>
        <time>2012-04-01T12:25:57Z</time>
      </trkpt>
      <trkpt lat="45.5902" lon="5.92092">
        <ele>375.8</ele>
        <time>2012-04-01T12:26:02Z</time>
      </trkpt>
      <trkpt lat="45.58999" lon="5.92084">
        <ele>374</ele>
        <time>2012-04-01T12:26:07Z</time>
      </trkpt>
      <trkpt lat="45.5899" lon="5.92071">
        <ele>373.8</ele>
        <time>2012-04-01T12:26:12Z</time>
      </trkpt>
      <trkpt lat="45.58989" lon="5.92064">
        <ele>373.7</ele>
        <time>2012-04-01T12:26:17Z</time>
      </trkpt>
      <trkpt lat="45.5899" lon="5.92065">
        <ele>373.8</ele>
        <time>2012-04-01T12:26:22Z</time>
      </trkpt>
      <trkpt lat="45.58993" lon="5.92065">
        <ele>373.8</ele>
        <time>2012-04-01T12:26:27Z</time>
      </trkpt>
      <trkpt lat="45.58994" lon="5.92066">
        <ele>373.9</ele>
        <time>2012-04-01T12:26:32Z</time>
      </trkpt>
      <trkpt lat="45.58995" lon="5.92067">
        <ele>373.9</ele>
        <time>2012-04-01T12:26:37Z</time>
      </trkpt>
      <trkpt lat="45.58996" lon="5.92068">
        <ele>373.9</ele>
        <time>2012-04-01T12:26:42Z</time>
      </trkpt>
      <trkpt lat="45.58997" lon="5.92068">
        <ele>373.9</ele>
        <time>2012-04-01T12:26:47Z</time>
      </trkpt>
    </trkseg>
  </trk>
</gpx>